GFSGL_925_spd_000.txt.gz
Wind_Speed
23 22 21 18 16 13 10 7 4 1 4 6 9 12 15 18 20 22 23 24 23 24 22 22 22 26 23 25 23 24 23 21 12 32 30 29 29 28 32 28 28 28 28
21 20 19 17 15 11 8 5 2 3 6 8 11 14 17 20 22 23 24 22 24 24 25 21 22 23 25 25 24 24 25 28 22 14 32 29 29 31 25 27 29 32 33
20 19 17 15 12 9 6 3 2 5 7 9 12 16 20 21 23 24 21 24 26 25 23 18 21 27 25 25 28 27 23 21 22 24 28 31 34 24 25 29 32 34 33
19 18 16 13 10 7 4 2 4 6 9 12 15 18 20 22 23 21 25 26 26 26 21 19 21 25 26 27 26 21 24 28 27 26 24 29 21 28 27 29 32 30 34
19 16 13 11 8 5 2 2 4 7 10 14 17 20 21 23 21 24 25 26 27 27 25 22 25 25 24 25 26 27 29 28 25 21 25 23 19 26 24 29 29 33 31
18 15 12 9 6 3 1 3 6 9 13 17 19 20 22 23 22 23 25 27 29 28 29 27 27 25 24 26 28 31 32 32 31 26 17 18 24 26 29 29 29 13 17
16 13 10 7 5 2 2 4 8 12 16 18 20 21 23 25 21 23 25 27 26 23 25 27 27 23 27 29 32 32 32 31 26 27 25 26 28 30 28 29 29 26 23
15 12 9 6 3 1 3 6 10 14 17 19 21 22 23 23 21 23 26 24 25 27 25 24 23 26 28 30 33 30 28 26 26 28 27 28 29 33 35 30 29 31 29
13 10 7 4 2 2 5 9 12 16 18 20 21 23 23 22 21 23 24 25 23 25 23 23 24 29 29 33 34 24 24 26 30 27 26 30 34 31 31 31 23 20 12
10 8 5 2 2 4 7 11 14 15 17 20 23 22 21 21 22 23 23 23 22 24 24 24 26 30 33 29 30 27 27 30 27 26 29 29 29 29 29 27 26 18 13
9 6 4 2 3 6 8 12 15 17 20 23 23 22 21 20 22 22 21 23 23 26 24 24 25 29 26 34 31 27 28 32 27 28 27 28 27 26 28 28 28 27 23
8 6 4 3 4 6 10 14 16 18 21 22 22 21 20 21 21 21 22 24 25 24 22 24 26 27 30 29 26 27 28 28 26 25 25 25 27 28 29 31 33 34 33
7 5 3 3 4 9 12 14 18 19 21 22 17 18 19 21 22 24 23 23 25 26 25 23 23 27 25 25 25 26 27 24 24 23 24 26 27 31 33 31 30 30 30
6 3 2 4 7 10 11 14 16 18 20 17 17 18 19 19 22 24 22 26 24 21 24 19 24 23 24 25 24 25 24 24 25 24 25 29 29 28 28 27 27 29 25
5 2 3 5 9 11 14 14 15 16 17 19 20 20 20 20 21 27 27 28 28 29 28 21 21 22 24 24 25 25 25 25 24 25 26 27 27 27 27 27 25 25 19
3 2 4 7 10 12 15 20 19 14 16 17 18 19 21 21 25 25 27 27 29 26 21 19 20 21 21 23 24 26 26 26 25 27 27 26 25 25 26 26 24 21 17
2 4 7 9 11 14 16 18 17 22 16 17 18 19 19 23 23 25 26 28 22 22 17 19 20 21 23 24 25 25 26 27 28 26 27 26 25 25 25 24 23 20 18
3 5 7 9 12 13 14 16 18 16 16 19 19 18 20 22 23 23 26 22 20 20 18 20 21 23 24 25 26 26 28 28 27 26 26 26 25 23 23 21 20 18 16
4 6 10 11 11 11 14 17 18 17 17 18 19 18 20 21 21 22 20 18 19 20 21 22 23 24 25 26 27 27 27 27 28 28 27 25 25 22 22 21 19 20 19
5 8 9 10 12 14 16 18 16 16 16 17 18 19 23 22 19 21 20 19 19 21 22 24 25 26 27 27 28 28 28 28 28 27 27 26 25 23 21 21 17 15 14
8 9 10 11 13 13 16 15 16 15 15 17 18 19 21 19 20 19 20 20 21 22 24 26 28 28 28 28 28 28 28 28 28 27 27 26 25 23 24 19 17 15 13
8 11 12 12 12 15 15 17 17 17 16 17 19 19 21 19 18 19 21 21 23 24 25 27 29 29 30 30 29 29 29 29 30 28 28 28 26 25 22 16 15 14 14
10 11 12 12 13 13 16 17 17 16 16 17 18 18 20 19 20 21 21 23 25 27 30 29 30 33 34 34 33 30 30 32 33 32 32 32 28 21 17 14 13 12 12
11 11 11 13 14 14 17 15 16 15 16 16 18 20 18 20 21 22 23 26 26 30 31 32 34 35 38 37 35 33 31 32 34 38 33 21 17 16 15 14 16 13 4
10 10 11 13 15 16 16 16 14 15 15 18 20 19 21 21 22 22 24 25 28 30 33 35 36 38 38 36 32 31 32 36 36 18 16 13 14 14 14 13 13 8 4
10 11 13 15 17 17 15 15 15 16 20 22 20 23 20 21 21 23 25 27 29 33 34 36 38 39 38 34 32 31 33 29 18 17 16 14 11 12 13 10 7 8 6

GFSGL_925_spd_003.txt.gz
Wind_Speed
27 25 23 20 18 15 12 10 6 3 1 4 7 9 11 14 16 17 18 17 19 21 21 20 19 19 21 25 24 22 21 20 13 33 30 28 31 30 30 30 28 22 29
24 23 21 19 16 13 11 7 4 2 3 5 8 10 13 15 17 18 17 19 21 22 23 22 20 20 21 23 24 24 24 25 22 15 34 34 31 31 31 30 27 26 29
23 22 19 17 14 12 9 6 3 2 4 6 9 12 15 16 17 16 19 20 21 22 22 22 23 21 23 25 27 27 25 20 24 25 29 34 31 30 32 26 31 29 28
22 20 18 15 12 10 7 4 2 3 5 8 11 13 14 16 16 18 19 21 22 23 23 23 23 23 25 27 25 25 23 26 27 27 28 24 32 27 25 26 31 29 30
21 18 16 14 11 9 6 3 2 4 7 10 12 14 15 17 18 18 20 21 22 22 21 21 22 22 23 25 27 27 30 28 27 21 25 22 21 24 24 27 28 31 27
20 18 15 13 10 7 4 2 2 6 9 11 13 15 17 19 17 17 18 22 21 23 26 24 23 22 22 25 29 31 31 33 30 26 18 20 27 27 29 28 26 23 14
19 16 14 11 9 5 3 2 5 8 11 14 16 17 19 19 15 17 19 19 22 22 24 25 25 24 27 32 32 32 31 24 26 29 29 27 28 29 28 29 27 24 25
17 15 12 10 7 4 2 3 6 10 13 15 17 19 19 18 17 18 20 20 21 22 24 25 26 29 31 30 31 22 29 26 28 30 28 30 29 33 34 30 29 30 29
16 13 10 7 5 3 3 5 9 12 14 16 18 18 18 18 18 19 21 22 23 24 27 25 24 26 29 31 29 29 27 28 30 27 27 31 34 31 30 29 22 21 14
14 12 8 6 5 3 5 7 10 12 14 17 18 17 16 18 20 19 20 22 22 24 22 21 21 25 30 29 32 28 24 30 28 25 29 30 29 29 27 26 26 19 16
13 10 8 6 5 4 5 9 11 14 16 17 18 17 16 19 21 19 19 23 24 23 23 22 23 24 31 32 30 25 27 31 26 28 26 28 27 26 27 27 28 27 25
11 10 8 6 4 4 8 11 12 14 16 17 17 17 19 21 21 19 20 22 24 26 23 26 24 29 31 28 26 25 28 27 26 24 25 25 26 28 30 32 33 33 32
11 9 6 4 4 7 9 12 15 14 15 18 15 17 20 21 22 21 21 22 25 25 23 27 25 27 25 24 24 25 25 24 23 22 23 26 28 31 33 31 30 29 29
10 7 5 4 5 7 8 10 12 14 16 16 15 17 20 20 21 24 23 25 20 21 25 21 24 22 23 23 23 23 22 22 24 23 24 28 29 28 29 28 27 29 25
8 5 3 4 7 8 10 10 12 13 14 17 19 20 20 18 20 25 25 25 27 26 27 22 20 21 23 23 24 23 24 24 24 24 25 27 28 28 28 28 25 26 19
6 3 3 5 7 8 11 14 11 11 14 15 16 18 20 20 23 24 25 26 27 25 20 18 19 20 21 22 23 26 26 26 25 27 27 26 26 26 27 27 24 21 18
4 2 3 4 6 9 9 12 18 23 18 17 17 19 19 22 22 24 24 26 22 20 16 18 19 21 23 24 24 24 25 27 27 25 26 26 25 26 26 25 23 21 20
2 1 4 6 7 8 10 13 16 16 16 20 22 19 20 21 21 22 24 21 19 18 17 19 21 23 24 25 25 25 27 28 27 26 26 26 25 23 24 22 21 19 17
1 3 6 6 7 8 11 15 15 17 17 18 19 18 20 21 20 22 19 16 18 19 20 21 22 24 25 26 27 27 26 26 27 27 26 25 25 23 23 22 21 23 21
2 4 5 8 9 11 14 15 16 16 16 16 17 18 22 21 17 20 18 18 18 20 21 23 25 26 27 28 28 28 28 28 27 26 26 26 25 24 22 22 21 18 16
4 6 7 10 11 12 15 13 17 16 16 16 17 18 20 20 19 18 19 19 20 21 24 25 27 29 29 29 28 28 28 29 27 27 27 27 25 24 24 22 20 17 16
6 9 10 11 11 14 13 15 16 17 17 16 18 19 21 19 17 19 20 20 22 24 24 26 30 30 31 31 30 30 30 30 30 28 28 27 26 25 24 21 17 16 15
9 10 10 10 12 12 15 17 16 17 16 16 17 18 20 19 19 20 21 22 25 27 30 29 31 34 35 34 33 31 30 32 33 32 32 32 29 26 19 18 18 15 11
10 9 10 12 13 14 17 16 17 15 15 15 17 20 19 20 21 21 22 26 27 30 30 31 33 35 37 37 34 32 31 32 34 39 32 25 17 18 18 19 17 10 7
8 9 11 13 14 16 16 17 16 15 15 17 21 20 21 22 21 22 25 27 28 30 32 33 35 37 37 34 31 31 32 36 31 20 20 17 13 13 15 16 14 9 7
9 10 11 14 15 15 16 15 15 16 20 24 20 23 21 21 22 24 28 28 29 32 32 34 37 37 35 31 32 30 33 26 18 19 16 15 11 13 14 14 10 7 7

GFSGL_925_spd_006.txt.gz
Wind_Speed
27 26 26 24 22 20 17 15 11 8 5 3 3 3 6 8 10 11 12 13 16 18 18 20 20 20 20 19 19 20 22 23 15 34 31 30 33 33 30 29 29 29 31
27 27 25 24 21 19 16 13 10 7 4 3 3 5 7 10 11 12 13 15 17 20 21 21 23 22 23 23 24 25 26 27 23 22 32 33 33 32 33 31 29 27 29
28 27 25 23 20 18 15 11 8 5 4 3 4 7 10 11 13 13 14 16 17 18 19 21 22 21 22 23 24 26 26 24 22 25 31 34 35 30 31 28 29 31 30
27 26 24 21 18 16 13 10 6 5 3 4 6 8 10 12 14 15 15 15 17 18 21 22 23 22 22 23 23 23 21 25 27 26 27 30 24 23 28 28 29 28 31
26 24 21 19 17 15 11 8 6 4 4 6 7 9 12 15 17 14 15 16 18 20 21 20 20 19 19 20 24 27 28 27 26 24 19 18 27 27 25 29 29 32 32
25 23 20 18 16 13 10 7 5 5 5 7 9 13 15 16 16 14 16 19 17 22 22 23 23 22 22 23 28 28 29 27 22 26 25 23 23 28 31 28 27 27 15
23 21 19 17 14 11 8 6 5 5 7 9 12 14 16 16 14 16 17 19 19 21 23 26 27 26 27 29 32 31 16 25 27 30 28 27 29 30 29 30 29 27 28
22 20 17 15 13 10 7 6 4 6 9 12 15 16 17 17 15 17 19 20 20 21 24 26 26 28 27 29 31 24 29 26 27 28 28 31 29 34 33 30 31 32 32
21 18 15 13 12 9 6 4 5 8 10 13 15 17 17 17 18 19 20 21 22 24 26 22 23 25 27 31 30 28 26 26 31 27 24 31 33 30 29 29 24 23 14
19 17 14 12 10 8 5 4 7 9 12 14 17 17 15 18 20 19 20 21 22 23 20 20 19 24 30 28 31 28 23 30 29 24 31 31 30 30 27 25 26 21 19
19 17 14 11 9 6 4 5 8 11 14 15 17 18 18 20 21 20 19 21 24 23 21 20 23 26 29 32 28 25 26 30 26 28 26 28 27 27 28 27 27 27 26
18 16 13 10 7 4 5 7 10 12 14 16 19 21 21 22 21 20 19 21 24 25 22 24 26 28 30 27 24 24 27 26 26 24 25 25 26 28 30 32 34 33 31
17 14 11 8 5 5 7 9 11 12 14 17 17 18 22 21 23 20 21 23 24 24 24 27 25 27 25 23 23 24 24 23 22 22 23 26 27 31 33 30 31 31 31
15 12 9 6 4 5 7 9 11 13 15 18 17 16 19 21 20 23 24 24 21 23 23 22 24 23 21 22 22 23 22 22 23 23 24 28 29 27 28 28 28 30 28
13 9 6 4 5 6 8 9 12 12 13 17 18 19 19 18 19 24 24 23 26 25 27 22 20 20 22 22 23 23 23 23 23 24 25 26 27 27 28 27 26 26 20
11 7 4 4 6 8 10 12 11 10 13 14 15 16 18 17 21 21 23 24 24 24 19 18 19 20 20 21 23 25 25 25 25 26 26 24 25 26 26 28 24 21 20
8 5 4 6 7 9 9 11 17 20 15 14 14 16 16 20 20 22 23 24 20 19 15 17 18 20 22 23 24 24 26 27 27 24 25 26 25 26 25 24 23 21 20
7 6 5 5 6 7 8 11 13 14 16 22 22 18 19 19 20 20 22 20 19 18 16 18 20 21 23 24 25 25 28 28 26 25 25 26 25 23 23 22 21 20 19
5 4 5 6 7 7 9 12 13 15 18 18 19 18 19 19 19 20 18 16 17 19 19 20 21 23 25 26 27 28 27 27 27 28 27 25 25 23 23 22 21 23 23
3 4 4 7 8 9 10 13 13 17 17 17 17 19 22 20 17 20 18 17 18 19 20 22 24 25 27 28 29 28 28 28 27 26 26 26 26 23 22 22 21 19 17
3 6 6 8 9 10 13 12 16 16 16 17 19 19 19 19 18 18 19 19 19 20 22 24 26 28 30 30 29 28 28 29 28 28 27 27 26 24 24 22 22 20 15
5 7 8 9 10 13 12 14 16 16 17 17 19 20 19 18 17 18 19 19 21 22 25 26 29 31 32 31 31 30 29 30 30 30 29 29 27 26 24 23 21 16 16
7 9 9 10 12 12 15 17 16 17 17 17 17 17 19 19 18 20 20 21 25 28 28 28 30 34 35 34 33 30 30 32 32 32 34 34 31 28 25 19 18 15 13
8 9 10 12 14 14 17 17 18 16 15 15 17 18 19 19 21 21 22 26 28 29 28 29 32 34 36 36 34 33 31 30 32 39 33 25 19 18 18 19 17 14 14
9 10 11 13 15 17 17 18 17 16 16 16 19 19 20 22 21 22 25 27 28 29 30 31 33 35 36 34 31 31 29 31 31 21 20 18 14 15 16 17 14 12 12
10 11 12 14 17 16 17 16 15 16 19 23 19 23 23 21 22 24 27 27 28 30 30 33 36 36 35 31 30 29 29 26 23 19 18 14 12 14 15 14 11 8 9

GFSGL_925_spd_009.txt.gz
Wind_Speed
29 29 31 32 31 28 24 21 18 16 12 9 6 4 2 3 5 7 7 8 10 12 12 12 14 15 14 15 15 17 19 21 17 35 31 32 32 31 31 29 28 29 31
30 31 32 32 30 27 24 20 17 14 11 8 5 3 3 4 6 7 9 10 11 12 14 15 15 15 16 16 15 17 20 23 26 27 33 32 33 33 32 31 28 30 33
34 33 32 31 30 26 23 19 16 13 10 7 4 3 4 6 7 8 10 12 11 13 15 15 16 16 16 16 16 19 21 23 24 26 32 33 31 29 28 33 31 32 31
35 34 32 29 27 25 21 18 15 11 8 6 3 3 5 8 9 11 11 12 13 15 17 19 16 15 16 18 19 21 21 25 27 27 26 23 28 32 29 30 29 30 30
35 33 30 27 25 23 20 16 13 10 7 4 3 4 7 10 11 11 12 14 15 17 18 19 16 18 19 20 22 24 26 25 24 17 22 25 27 27 26 29 29 32 32
33 31 29 26 24 21 18 15 12 9 5 3 4 7 10 12 12 11 13 14 16 15 17 17 20 21 20 20 23 25 25 27 22 22 24 23 28 27 30 27 29 28 16
31 29 27 25 22 19 16 14 10 6 4 4 6 10 11 12 11 13 14 15 15 16 18 20 20 18 22 21 25 26 23 23 26 27 29 28 28 30 27 31 29 28 28
29 27 25 23 21 18 15 11 7 4 4 6 9 10 12 13 12 14 15 14 16 17 20 21 20 21 20 24 28 20 24 25 24 26 27 30 28 31 31 28 30 31 32
27 25 23 21 20 16 12 9 5 4 6 8 9 12 13 14 15 15 16 16 16 17 20 20 19 21 23 29 26 26 27 26 28 25 25 27 33 29 25 26 24 22 16
25 24 21 18 16 13 10 6 5 5 6 9 11 12 12 14 17 16 16 16 17 20 19 17 17 22 28 26 29 26 24 28 26 24 28 27 24 24 23 20 23 20 19
25 23 20 16 14 11 8 5 4 5 8 9 12 13 14 16 16 16 16 17 19 21 20 21 22 25 27 29 27 23 24 28 27 25 24 25 24 23 23 23 23 24 24
24 21 18 14 11 9 6 5 5 7 9 12 15 14 14 18 18 16 16 18 20 21 20 22 24 26 28 26 23 22 24 24 21 21 23 24 25 26 27 30 30 29 27
22 19 15 12 9 7 6 5 6 8 10 11 11 12 16 17 18 17 18 20 21 21 21 25 25 25 24 21 20 22 22 19 20 22 23 24 24 28 31 28 29 28 28
19 16 12 9 7 6 5 6 8 8 9 10 12 14 16 16 15 17 19 20 19 21 22 20 22 21 18 19 19 19 20 20 22 22 23 27 26 26 26 26 26 27 26
16 13 10 7 5 5 6 6 8 8 10 12 12 13 15 16 16 21 21 22 23 23 25 18 18 18 19 20 21 22 21 22 22 23 24 25 26 25 27 25 24 25 20
14 10 8 6 4 4 5 7 8 9 9 10 11 13 15 15 19 19 21 22 23 21 18 16 17 18 19 20 22 24 24 24 23 24 24 23 24 24 25 27 23 20 20
12 9 6 4 4 6 8 11 13 17 13 11 12 14 14 18 18 19 20 22 19 17 13 15 17 19 20 21 22 23 25 25 26 23 24 25 24 24 25 23 23 21 20
10 7 5 5 6 7 8 9 10 9 14 18 21 17 17 18 18 18 21 18 17 15 14 16 18 20 21 22 23 24 26 26 24 24 24 25 24 21 22 21 21 20 20
7 6 6 6 7 7 7 9 10 11 12 14 17 18 17 18 18 19 17 13 15 17 17 18 19 21 22 23 25 25 25 26 26 27 26 24 24 21 22 22 22 24 23
7 6 6 7 7 7 9 10 10 12 13 14 15 15 17 19 17 20 17 16 15 17 18 20 22 23 24 25 26 26 27 27 26 25 26 25 24 22 21 22 21 19 19
5 5 5 7 7 8 11 9 12 12 12 14 15 16 18 19 18 18 18 17 17 18 20 22 24 26 27 27 27 26 26 28 27 27 26 26 25 23 23 21 20 19 19
5 7 7 7 8 11 10 13 14 13 13 14 16 17 18 17 17 18 18 18 18 19 21 23 27 28 29 30 29 28 28 29 29 27 28 28 26 25 23 20 20 17 15
7 7 6 8 10 10 13 14 13 13 13 15 16 17 19 19 18 19 19 18 20 25 26 25 27 31 32 33 31 29 29 31 31 30 32 33 30 27 23 18 15 13 13
6 6 7 9 10 11 14 13 14 14 14 15 17 18 18 18 20 19 20 23 25 26 26 27 29 32 33 34 32 31 30 29 31 38 35 28 21 21 20 17 13 12 11
7 7 8 10 12 14 15 15 14 14 15 16 18 17 18 19 19 21 23 25 26 27 29 29 31 33 34 33 29 28 26 29 30 28 24 24 20 20 21 15 13 11 14
7 8 10 12 14 14 14 13 14 15 17 20 18 20 19 19 21 23 25 25 27 29 29 30 33 33 33 30 28 26 27 25 26 27 25 21 17 19 14 13 10 9 12

GFSGL_925_spd_012.txt.gz
Wind_Speed
25 30 29 27 29 28 22 20 18 17 15 13 10 8 5 3 1 2 3 4 6 7 8 9 12 13 15 16 17 18 19 21 17 28 28 28 29 29 30 28 29 31 35
29 30 28 27 27 23 21 18 17 16 13 11 9 7 4 2 1 2 4 6 7 9 10 11 13 14 16 16 16 18 19 21 25 27 30 30 30 29 29 31 33 34 32
33 30 27 26 24 22 20 18 16 14 12 10 7 5 3 1 2 4 6 8 9 10 11 13 15 15 16 16 17 19 21 23 26 28 31 31 30 25 31 34 29 30 29
28 27 27 25 23 21 19 17 15 12 10 8 6 4 1 2 3 5 7 9 11 12 13 14 16 15 16 18 20 22 23 25 28 28 29 29 25 30 32 29 27 29 30
26 26 25 24 22 21 19 16 14 11 8 6 4 2 1 3 4 7 8 11 13 14 15 16 16 16 18 19 21 23 26 26 26 26 21 25 27 28 27 28 28 29 33
26 25 24 24 22 19 18 16 13 10 7 4 2 0 3 4 8 7 9 12 14 15 16 17 18 19 18 20 22 23 26 28 28 23 24 25 30 29 28 27 28 27 14
25 24 24 22 21 18 16 14 11 8 5 3 0 2 4 5 7 9 11 13 14 15 16 18 19 19 20 22 22 26 27 25 25 32 29 29 30 29 31 30 30 29 27
24 23 21 21 19 17 14 12 9 6 3 1 2 3 5 6 9 11 12 13 14 15 16 19 20 20 20 22 27 26 21 27 26 25 28 31 31 31 30 33 30 32 33
22 21 20 19 18 15 13 10 7 4 1 1 2 5 6 7 9 11 13 14 14 16 17 19 19 20 20 26 26 26 29 27 25 24 27 29 31 33 28 26 25 22 16
20 20 18 16 15 13 11 8 5 2 0 2 4 5 6 8 10 12 14 14 16 18 19 19 19 19 24 25 27 28 27 26 27 29 28 27 24 23 22 20 22 21 20
21 19 17 15 14 11 9 6 3 1 2 4 5 6 6 9 10 13 13 14 16 20 21 21 21 22 25 27 26 25 23 28 28 26 24 23 22 21 21 21 22 23 24
20 18 16 13 11 9 7 5 3 2 3 5 7 8 8 10 11 13 14 15 17 20 21 21 23 25 27 26 23 20 23 24 21 21 22 23 23 24 24 26 29 29 28
19 17 14 12 9 7 5 4 2 3 4 6 8 11 12 13 13 13 15 17 18 19 20 23 26 24 24 20 18 21 19 17 19 20 22 23 24 27 29 26 27 27 28
18 15 12 10 8 6 5 3 3 4 5 7 10 12 14 14 14 14 19 19 19 20 22 24 22 21 18 19 18 17 17 18 20 21 22 24 26 25 26 25 25 26 25
15 13 10 8 6 5 3 2 2 3 5 8 10 12 14 15 14 19 20 21 21 23 25 21 18 17 17 17 18 18 20 20 20 21 22 24 24 24 26 25 24 25 21
14 10 8 6 5 3 2 2 4 4 6 7 9 10 14 14 16 18 19 19 22 21 19 16 16 16 17 18 20 22 22 22 21 23 23 22 23 24 25 26 23 21 21
12 10 7 5 4 3 3 5 7 7 8 8 9 12 12 15 16 16 17 21 19 15 13 14 15 16 17 19 20 22 24 25 24 22 23 24 24 24 24 24 23 22 21
11 9 6 4 3 2 3 5 7 10 13 14 11 12 12 15 16 16 17 18 14 12 12 14 16 17 18 20 22 23 26 26 24 23 24 24 23 22 23 22 22 21 21
8 6 5 3 1 2 3 6 8 9 12 13 15 14 14 16 18 15 16 13 15 15 15 16 17 18 19 21 23 25 25 26 26 26 25 24 23 22 23 23 23 25 25
7 5 3 2 2 3 5 7 8 10 12 13 13 13 15 18 18 17 15 14 14 15 16 18 18 19 20 23 25 25 25 26 25 24 24 25 24 23 22 23 23 21 21
4 3 2 2 3 4 6 7 10 11 12 13 14 14 16 18 16 16 16 15 15 16 18 19 19 20 23 24 25 25 25 26 26 25 26 26 26 25 25 23 23 21 20
3 2 2 2 4 6 7 9 10 11 12 13 15 16 16 15 15 15 16 16 16 17 17 19 20 22 25 27 26 26 26 27 27 26 27 28 27 27 25 23 22 19 16
3 2 2 4 5 6 8 9 9 11 13 14 14 16 16 16 15 16 16 17 17 18 18 18 20 28 29 29 29 27 27 29 30 30 31 31 31 29 25 21 19 14 16
2 2 3 4 5 8 8 10 11 11 12 13 14 15 15 16 16 16 17 17 17 18 19 19 23 28 31 33 32 29 29 29 29 36 37 31 25 23 21 20 14 14 16
2 3 4 5 7 8 9 10 10 11 12 13 14 14 15 16 15 16 16 17 18 20 23 26 28 29 32 32 28 27 27 27 32 35 32 24 21 20 19 17 16 14 16
4 4 5 6 7 8 9 11 11 12 13 13 14 15 15 15 16 16 16 18 20 24 26 27 30 30 31 28 26 25 26 30 37 25 23 17 18 15 17 14 14 13 15

GFSGL_925_spd_015.txt.gz
Wind_Speed
27 25 28 30 29 30 27 28 25 21 19 17 14 11 8 5 3 2 4 5 7 8 9 10 11 12 14 15 16 17 18 19 14 24 24 24 26 28 27 27 27 32 34
25 27 29 33 30 29 27 26 23 21 17 16 13 10 7 4 1 3 5 7 9 10 11 11 13 14 15 16 16 17 19 21 23 22 25 26 24 28 28 28 27 31 36
25 30 30 31 30 28 26 26 22 20 17 14 12 9 6 3 1 4 6 9 10 12 12 13 14 15 17 16 17 19 20 22 23 25 26 26 29 27 25 28 34 27 27
28 31 31 30 28 27 25 23 20 18 16 13 10 8 5 2 1 4 7 10 12 13 14 15 15 16 17 17 19 21 22 23 24 25 26 29 27 21 27 27 25 26 29
31 30 26 30 27 25 24 22 19 16 14 12 9 6 4 1 2 6 8 11 13 15 15 16 16 16 16 19 20 20 23 23 24 25 26 26 24 26 24 24 26 28 35
30 30 28 28 26 25 23 21 17 14 12 10 7 4 2 0 6 6 8 11 14 16 16 16 17 17 17 18 21 21 23 26 26 27 23 23 28 25 25 25 29 26 12
31 27 26 28 27 24 22 19 15 11 10 8 5 2 0 2 8 7 10 12 14 15 15 16 17 17 19 19 20 22 25 28 25 32 30 24 26 28 30 31 27 27 28
25 26 24 28 25 22 19 16 12 9 8 5 3 1 2 4 10 9 11 13 14 15 15 16 17 18 19 20 22 25 24 28 27 25 25 27 29 32 31 27 30 31 34
25 20 23 24 22 19 17 14 10 8 6 3 1 2 4 5 8 9 12 13 14 16 16 17 18 18 19 22 25 25 26 26 26 26 27 32 33 31 29 26 25 22 17
23 21 22 20 19 17 15 12 9 7 4 2 2 3 5 6 7 9 12 12 15 16 17 18 18 19 20 24 25 26 26 26 26 29 30 29 26 26 24 23 23 20 21
25 23 21 19 18 15 13 10 7 5 3 1 3 5 6 7 9 10 11 12 14 17 18 18 20 21 24 27 27 26 25 26 28 27 26 25 24 24 22 24 27 25 25
24 23 20 17 14 12 10 8 6 3 1 3 5 6 6 7 9 10 11 13 16 18 18 19 21 25 28 26 25 22 23 25 23 22 22 24 24 26 26 27 31 33 32
23 20 17 15 13 10 8 6 3 1 2 4 6 7 9 9 10 11 12 16 17 19 19 22 26 27 24 22 20 22 20 19 19 20 21 24 25 28 32 30 29 29 31
20 16 14 12 10 7 6 4 1 2 3 5 7 9 11 12 11 11 15 18 19 19 21 23 25 22 19 19 19 18 18 19 21 20 23 25 27 28 28 26 27 29 27
17 14 12 9 6 5 3 1 1 1 3 5 7 9 12 13 13 17 19 20 21 21 26 22 19 17 18 18 18 18 19 20 21 22 23 25 26 25 27 27 26 26 23
15 11 8 7 5 3 0 2 5 5 7 7 7 8 11 13 15 18 18 20 21 23 19 16 15 16 17 18 19 21 22 23 23 24 26 24 24 25 27 28 26 23 22
11 10 7 5 3 1 1 3 6 5 8 8 7 9 11 14 15 17 18 19 21 16 13 14 15 16 17 18 19 21 24 25 26 24 24 26 26 26 27 26 25 24 24
10 8 6 4 2 1 2 4 6 8 10 11 10 12 13 14 16 18 15 18 14 13 13 15 16 17 18 19 21 23 25 26 25 25 26 26 26 24 25 25 24 23 23
7 6 4 3 2 2 3 5 7 9 10 12 13 12 12 15 18 15 13 12 14 14 14 15 16 18 19 20 23 24 25 26 27 27 27 26 26 24 25 25 26 29 28
7 5 3 1 2 3 5 7 8 9 11 12 13 13 14 18 18 16 14 14 14 15 16 17 18 19 21 22 24 25 26 26 26 25 26 27 27 26 25 26 26 24 24
4 2 2 1 3 4 6 7 8 9 11 12 13 13 15 16 16 15 16 15 15 16 17 18 20 22 23 24 25 25 26 27 27 27 27 28 28 28 29 27 27 26 25
3 2 2 3 4 5 6 8 9 10 11 12 14 14 14 13 14 15 15 16 16 17 18 20 23 24 26 28 28 27 27 28 29 28 28 30 30 30 29 28 27 24 17
2 1 2 3 4 6 7 8 9 10 11 12 13 14 13 13 14 15 16 17 18 19 21 22 24 28 29 29 30 28 28 31 33 33 33 33 33 33 29 23 21 18 18
1 2 4 4 5 7 7 8 9 10 11 12 12 12 14 14 15 15 17 19 20 22 23 24 26 28 29 31 31 29 28 30 31 38 39 34 27 22 22 21 19 19 19
2 3 4 5 6 7 9 9 10 10 11 11 11 12 13 15 15 16 18 20 22 24 26 26 26 28 29 30 27 25 26 30 33 33 25 20 20 20 20 19 20 19 20
3 4 5 6 7 8 9 10 11 11 11 12 12 13 14 15 16 17 19 20 23 28 27 27 28 28 27 27 22 23 25 28 34 24 18 17 19 17 18 19 20 18 19

GFSGL_925_spd_018.txt.gz
Wind_Speed
30 31 33 33 32 32 31 32 34 32 31 27 24 20 16 13 9 6 4 3 4 5 7 9 10 12 14 14 15 18 19 20 14 24 26 27 28 29 28 31 35 28 33
34 32 30 31 32 31 33 34 33 31 28 25 21 18 15 12 7 5 4 4 4 7 9 10 12 12 13 15 16 17 17 20 24 22 23 24 25 29 31 33 32 27 33
33 31 30 31 31 31 32 33 31 29 26 22 20 17 12 9 5 3 4 5 6 8 9 10 13 15 16 17 17 15 19 22 22 23 25 25 28 28 29 29 28 33 28
33 30 30 28 29 32 34 32 33 29 26 22 19 15 10 6 3 3 3 5 7 9 11 12 13 15 16 15 16 21 19 22 22 21 22 25 25 26 24 27 29 24 31
28 28 28 29 30 33 34 33 29 27 24 20 16 12 8 6 4 5 6 7 8 10 12 13 13 12 13 17 18 18 21 20 22 19 22 26 18 25 23 23 26 31 34
27 28 30 30 30 33 33 32 28 25 20 18 14 11 7 4 2 5 5 9 10 11 14 14 16 17 16 15 17 20 20 23 23 24 21 22 25 23 21 25 30 27 11
29 28 29 30 30 16 31 29 24 23 19 15 11 8 5 1 4 6 6 10 11 11 14 16 16 15 17 18 19 19 22 22 24 29 28 25 25 27 30 28 29 25 25
28 29 28 34 23 24 25 25 22 19 16 12 9 5 3 2 5 7 8 10 11 12 14 16 15 17 18 19 22 23 21 28 25 26 27 29 29 32 31 28 28 29 31
25 26 26 20 22 25 24 23 20 16 12 9 6 2 1 1 4 6 9 12 12 13 14 15 16 18 17 20 22 27 25 23 23 26 26 29 30 31 28 29 25 23 20
20 20 28 27 22 25 23 20 16 13 10 6 3 1 2 3 2 6 8 11 13 14 16 16 16 19 20 21 25 25 22 24 30 26 28 33 26 27 25 24 25 19 24
26 20 24 25 22 20 20 16 12 10 8 4 1 1 3 3 5 6 8 12 13 16 17 18 19 19 21 25 25 24 24 25 24 24 28 25 26 26 26 28 29 26 26
28 26 26 22 20 19 17 13 10 7 5 3 2 3 3 4 6 9 10 11 14 18 19 20 21 22 25 25 22 21 22 23 23 23 22 24 24 28 29 30 35 34 33
26 26 25 22 19 15 13 11 9 6 4 4 3 4 6 9 9 9 9 12 16 18 19 21 24 24 24 20 19 20 19 21 22 20 21 25 26 31 35 32 34 31 32
27 24 21 19 16 13 11 9 7 5 4 5 7 8 10 11 10 11 16 16 17 19 20 23 22 22 17 17 19 18 20 21 21 22 25 28 29 29 30 28 28 30 28
24 21 18 15 13 11 9 6 6 4 6 6 6 9 10 12 13 14 16 18 20 20 23 22 22 18 21 19 18 19 20 21 22 24 25 27 28 27 29 28 27 27 24
22 17 14 13 10 9 7 6 5 5 7 8 7 8 10 11 13 15 17 18 19 20 19 16 17 19 18 19 19 21 22 23 23 25 27 26 26 27 28 29 26 25 24
19 15 13 10 9 8 8 7 7 6 6 7 7 9 11 13 13 16 18 18 17 16 16 16 18 20 20 21 22 22 25 26 27 25 26 27 27 27 28 28 26 25 25
16 12 11 9 8 6 4 5 6 7 8 10 10 11 11 12 15 18 17 15 17 15 14 16 20 21 21 22 24 23 26 27 27 27 27 26 27 25 26 26 26 25 25
12 11 8 6 4 4 4 5 6 7 8 11 12 12 12 14 16 15 14 14 16 16 16 18 21 23 25 26 25 26 26 28 28 28 29 27 28 26 27 27 27 30 30
9 8 5 4 4 4 5 6 7 8 10 11 12 13 15 17 16 16 15 15 16 16 17 21 23 24 26 26 27 27 28 28 28 27 28 29 29 27 27 27 27 26 26
6 5 4 3 3 5 6 6 7 9 10 11 13 14 14 15 16 17 18 16 16 18 19 22 25 26 26 27 27 27 28 29 29 30 30 30 30 28 29 28 28 28 27
4 3 2 2 4 5 6 7 8 9 10 12 15 15 13 14 15 17 18 18 19 20 21 22 25 26 27 28 29 30 30 30 32 32 31 31 31 30 29 28 28 24 20
3 1 2 3 5 5 7 8 9 10 12 13 14 15 14 15 17 17 18 20 20 22 22 23 24 27 28 28 28 28 29 31 32 32 35 35 34 32 27 22 23 23 23
1 2 3 4 6 7 8 9 10 10 11 13 13 14 15 16 18 19 19 20 21 22 23 25 26 26 26 27 27 26 26 29 31 37 34 26 26 25 23 22 23 24 23
2 3 5 6 8 9 10 11 11 12 13 13 13 14 17 19 20 19 19 20 21 24 27 27 27 27 26 26 22 21 23 26 28 30 24 22 23 23 21 24 24 24 23
3 4 6 7 9 10 11 12 13 13 15 16 16 17 18 19 20 19 20 21 23 26 28 29 28 27 25 23 19 20 23 25 28 23 22 22 23 23 23 22 23 20 21

GFSGL_925_spd_021.txt.gz
Wind_Speed
26 31 37 36 35 35 37 34 31 32 36 35 30 26 24 20 16 12 9 7 4 4 4 6 8 8 11 11 9 11 13 15 10 17 20 22 25 31 30 33 32 30 29
27 35 35 34 34 33 32 31 33 36 34 32 28 26 22 18 14 11 9 6 4 4 5 7 9 10 10 11 14 14 13 13 18 19 20 23 25 29 31 33 30 27 29
34 35 30 32 32 29 32 33 35 35 34 30 29 25 21 17 13 10 7 4 3 4 5 7 9 10 13 14 13 13 14 19 20 24 23 24 26 30 30 27 27 28 28
31 31 31 27 28 32 32 33 36 36 35 32 27 24 19 15 12 9 5 4 3 4 6 7 9 10 11 11 12 16 18 19 21 23 21 23 24 27 22 26 25 25 31
29 29 29 27 28 29 32 33 34 34 33 30 26 22 17 13 9 6 3 1 3 6 7 8 8 9 12 14 16 15 17 20 20 18 17 20 20 23 22 24 27 30 32
30 30 31 32 32 32 31 26 28 27 29 25 21 18 15 10 7 3 1 3 5 7 9 10 11 13 15 12 15 17 18 20 19 17 19 20 23 23 24 25 28 27 12
32 32 33 31 31 30 32 28 25 23 18 17 15 13 11 8 5 3 4 6 7 8 10 12 13 14 12 16 15 17 19 19 19 24 24 23 24 26 31 29 24 22 25
30 30 32 34 32 31 29 25 20 22 16 14 11 9 9 8 5 3 4 7 8 8 9 10 13 14 14 14 19 20 19 21 21 22 24 28 28 27 26 26 28 27 28
27 29 28 31 31 29 26 24 20 20 16 13 9 8 8 7 4 4 6 9 11 10 10 12 13 15 17 18 20 23 25 21 25 23 22 23 25 28 25 25 23 21 20
23 24 29 25 24 28 25 23 19 17 14 11 8 6 6 5 3 4 5 9 12 11 13 14 14 15 18 18 21 23 20 25 27 25 23 30 28 27 22 21 25 21 22
27 27 24 21 23 23 22 19 17 14 12 9 8 5 3 4 3 3 6 8 10 12 15 17 17 17 19 22 22 21 21 24 19 22 27 25 25 25 25 27 26 24 25
25 23 24 22 22 21 20 16 14 12 10 8 6 6 5 4 4 6 7 7 10 15 17 18 19 20 22 22 19 19 20 20 24 23 21 22 23 28 30 30 33 30 31
23 25 23 20 19 16 16 15 13 10 9 7 4 4 3 4 5 4 7 11 12 15 16 18 18 19 19 16 17 19 17 21 22 19 20 24 25 29 33 30 33 32 33
26 25 22 21 18 15 13 11 10 8 6 4 3 3 5 6 8 9 12 14 15 16 19 13 16 16 15 18 17 18 19 19 19 20 23 26 27 26 28 27 27 28 28
23 19 17 15 14 13 11 8 7 6 4 3 3 5 7 9 10 11 13 15 17 17 17 17 17 18 19 17 17 18 20 20 20 22 22 24 25 25 27 28 26 27 23
21 18 15 14 12 10 8 7 4 4 3 4 5 5 7 8 10 11 14 16 16 13 13 15 16 17 18 17 17 20 22 22 23 24 24 24 24 26 27 28 26 25 24
20 17 14 12 10 8 7 5 4 4 3 4 5 6 7 9 10 13 15 14 11 13 13 14 15 18 20 20 20 22 24 26 27 23 24 26 27 26 27 27 26 25 25
16 14 13 11 9 7 6 5 5 6 6 8 7 8 8 9 11 13 13 13 16 14 13 14 17 20 20 21 24 25 26 26 24 24 25 26 27 25 26 25 25 25 25
15 13 11 9 7 6 5 5 5 5 6 8 9 10 11 11 11 12 10 13 14 14 15 16 21 22 23 24 25 27 26 25 25 27 29 26 27 25 26 26 26 29 30
13 10 8 6 5 5 5 5 5 6 7 8 9 11 14 12 14 15 14 14 14 15 16 21 23 23 24 24 26 26 27 26 27 28 28 28 28 26 25 26 26 25 26
10 8 6 5 5 5 5 6 6 7 8 9 10 12 11 10 13 13 14 14 16 18 20 22 24 24 25 25 26 26 26 28 28 29 29 30 29 27 28 27 27 26 26
7 6 5 4 5 5 6 6 7 8 8 10 11 12 10 11 13 14 15 15 17 18 19 22 23 23 24 25 26 27 28 29 30 30 31 31 31 30 30 28 25 21 24
5 4 4 4 5 5 7 7 8 9 10 10 11 13 14 14 15 16 16 17 17 18 19 21 23 26 25 25 24 24 25 28 29 29 34 36 33 29 26 26 24 22 22
4 3 4 4 5 6 7 8 8 8 9 11 13 13 14 15 17 17 17 17 17 19 20 23 25 26 26 25 25 22 24 25 27 34 35 30 26 29 26 23 23 22 22
3 3 4 5 6 7 8 8 9 10 10 13 15 14 15 16 17 17 17 16 18 20 23 25 26 27 26 25 21 19 20 21 25 26 32 27 25 25 25 24 23 24 24
3 3 4 5 7 8 9 10 11 11 14 15 14 16 16 16 17 18 17 18 20 21 24 25 26 26 25 23 20 20 21 22 24 26 27 24 24 26 26 23 25 25 23

GFSGL_925_spd_024.txt.gz
Wind_Speed
15 30 34 36 39 38 36 35 36 34 36 39 38 35 33 27 24 20 15 13 11 9 6 6 6 7 8 10 10 10 12 13 9 13 18 25 25 27 29 31 29 28 27
19 30 34 35 36 33 35 35 37 36 35 37 38 36 31 28 24 17 16 14 10 9 6 6 6 8 10 11 11 13 14 14 17 15 19 24 25 28 30 30 28 30 28
22 28 28 31 33 33 32 34 33 35 35 36 37 35 31 26 21 19 16 12 9 6 5 6 6 9 11 12 13 14 15 16 18 21 20 23 26 29 29 28 28 28 27
21 27 29 27 26 29 29 30 33 33 34 34 32 27 22 19 17 13 12 10 7 5 4 6 7 9 10 10 10 13 16 16 16 21 21 21 23 26 24 26 25 25 28
16 17 25 27 28 31 30 28 28 26 27 25 24 24 21 18 13 10 8 6 4 3 5 5 6 7 9 11 14 13 13 17 20 22 18 18 19 22 22 24 24 28 29
20 22 25 29 30 31 31 33 32 30 28 28 24 19 16 14 10 8 5 3 2 2 4 4 6 8 9 11 12 14 15 19 19 16 17 16 22 23 25 23 25 24 10
25 23 24 30 32 32 34 33 31 30 26 21 18 17 13 11 8 4 2 1 1 2 4 5 6 6 8 11 12 13 16 17 18 22 22 23 25 28 30 29 23 21 26
22 20 25 31 33 35 33 32 30 26 25 22 16 13 10 7 6 5 1 2 3 4 4 6 8 10 11 13 16 18 17 19 20 19 24 28 28 25 23 24 27 28 29
22 21 25 35 34 33 30 31 27 25 20 16 14 12 12 10 5 2 1 3 6 5 5 8 10 12 12 15 17 19 21 21 21 22 21 21 22 25 27 25 24 21 22
16 16 22 28 29 29 28 26 21 19 18 16 13 9 7 7 5 2 4 5 7 8 9 11 12 12 15 15 19 19 18 21 23 19 21 28 28 27 22 19 23 21 21
22 23 25 29 29 27 24 22 19 19 16 13 10 8 5 4 4 2 4 7 6 8 14 17 16 14 15 18 18 19 18 20 17 23 27 28 28 26 25 25 25 24 24
25 25 25 24 23 23 22 18 16 16 14 11 10 8 6 4 0 3 4 6 9 13 15 16 15 15 17 18 16 15 18 18 21 22 21 21 22 29 30 29 31 30 29
23 22 21 20 20 18 17 14 14 12 10 8 6 5 2 2 4 5 7 8 10 13 14 15 15 15 15 14 16 15 14 17 19 19 19 23 24 29 31 32 31 32 32
26 24 22 21 18 15 13 11 11 10 8 6 4 1 3 5 6 6 9 12 13 14 16 9 9 12 12 14 15 15 15 16 16 19 22 25 25 25 27 27 27 27 27
24 21 18 17 16 15 12 10 9 7 5 4 3 3 3 5 7 8 10 14 16 15 9 14 16 15 18 18 18 18 19 20 20 22 21 21 23 24 26 26 25 26 23
20 17 15 15 13 11 10 10 7 5 4 4 2 3 6 6 8 9 12 13 11 12 11 12 13 15 17 17 16 20 22 22 23 23 22 22 23 25 27 27 24 23 24
20 17 14 12 10 9 7 6 5 3 3 3 4 4 5 6 8 10 12 12 10 9 9 11 13 16 19 19 20 22 24 25 25 22 23 25 26 25 25 26 25 24 25
14 11 10 9 8 7 5 4 3 2 3 5 4 6 6 7 7 9 10 10 12 11 11 12 15 18 18 20 22 23 25 26 24 24 24 25 26 24 24 24 25 24 25
12 11 9 7 6 5 4 3 2 2 3 4 6 6 7 8 6 8 8 10 12 13 15 15 18 18 19 20 22 23 23 25 21 25 26 26 28 25 25 25 25 28 28
10 9 8 7 6 4 3 2 2 3 3 4 6 9 11 6 10 12 12 11 11 14 15 18 19 20 20 21 22 23 25 25 26 25 27 28 28 27 26 27 26 26 26
10 8 7 5 4 3 2 2 2 3 4 5 7 8 8 9 11 12 13 13 13 15 16 18 21 21 21 22 23 24 25 27 26 27 28 29 30 28 29 28 28 28 27
9 7 4 3 2 2 2 2 3 5 6 7 8 9 8 9 10 11 13 13 14 15 16 18 20 21 21 22 23 25 26 26 27 28 30 32 32 31 30 28 26 25 25
6 4 3 2 2 1 3 3 5 6 7 7 9 10 11 11 12 13 14 15 15 15 16 17 20 23 23 23 23 23 23 25 27 27 32 37 35 31 27 26 27 26 24
4 3 1 1 2 3 4 5 6 6 7 9 10 11 12 13 14 15 15 16 15 16 17 18 21 22 23 24 24 22 21 23 24 31 34 33 29 26 28 27 28 29 24
3 1 1 1 3 4 5 6 7 8 9 10 13 12 14 15 15 15 17 16 16 18 18 20 21 23 24 24 22 22 19 19 24 25 32 31 27 29 28 29 28 27 26
1 0 1 2 3 4 6 7 8 9 11 11 12 13 14 15 15 17 17 17 18 18 20 21 21 23 23 23 23 22 21 21 22 28 29 27 27 28 28 27 27 26 25

GFSGL_925_spd_027.txt.gz
Wind_Speed
20 20 23 27 31 34 34 34 34 34 36 36 37 37 37 36 32 28 24 21 15 10 10 8 7 8 10 11 9 9 10 11 8 10 18 21 22 24 26 28 28 27 29
20 18 20 23 26 29 29 31 33 33 33 34 36 34 33 32 28 25 21 16 15 11 7 7 11 8 10 12 11 11 12 13 14 14 18 21 23 23 26 28 29 30 28
17 14 20 21 24 26 26 27 28 29 29 28 29 29 30 29 25 20 15 14 10 8 9 11 10 9 13 12 12 12 12 13 16 17 17 21 23 25 29 30 27 28 27
8 9 14 16 19 21 22 21 23 25 26 27 28 30 29 25 20 17 14 13 8 7 6 6 8 11 12 11 9 9 11 14 15 18 22 23 22 24 24 24 24 26 28
1 5 8 13 18 21 23 25 25 29 31 32 32 30 28 24 19 15 12 9 7 4 6 6 9 9 7 8 10 11 10 12 17 20 20 20 19 18 20 25 25 26 26
16 17 20 23 26 27 30 33 31 30 31 31 30 27 22 18 14 10 7 6 3 5 6 6 7 7 7 9 9 9 12 17 17 16 18 14 17 21 24 22 24 21 10
21 20 20 24 26 26 28 32 33 33 33 31 28 25 23 19 14 9 6 1 4 6 4 4 4 6 8 9 9 10 13 16 17 19 21 22 23 26 31 29 24 21 24
19 24 23 23 27 29 31 29 32 34 33 31 26 21 18 16 11 4 4 4 3 3 2 3 6 8 9 10 13 15 14 15 18 19 22 26 27 26 25 24 24 28 28
17 20 21 25 24 24 28 27 27 32 30 25 20 17 14 12 11 10 4 2 1 3 3 5 7 10 11 13 15 16 16 19 20 22 20 21 22 25 26 25 26 20 19
17 17 17 19 22 23 26 26 26 26 22 19 16 12 11 12 9 6 1 4 5 5 5 8 11 10 12 12 16 18 17 22 23 20 20 27 27 25 21 19 21 22 17
19 21 21 22 25 25 24 23 23 20 19 16 14 12 9 8 6 2 2 4 5 6 10 13 13 10 12 14 16 18 18 19 20 21 27 26 26 25 24 25 23 22 20
20 24 25 23 20 21 21 19 18 17 17 15 13 11 8 6 4 2 1 4 6 9 11 12 13 14 14 16 15 16 17 17 19 21 21 21 23 30 30 29 28 27 27
20 19 20 19 19 18 19 18 17 14 13 11 9 7 4 1 2 3 3 4 7 10 13 14 14 12 14 15 16 15 14 15 17 18 18 23 26 29 28 30 31 31 31
22 22 21 21 19 17 15 13 13 12 11 9 7 4 1 0 2 2 6 10 14 15 16 10 8 12 12 14 15 14 14 15 15 18 22 25 26 24 26 26 29 29 27
20 18 18 18 17 17 15 12 11 10 6 6 5 3 3 5 7 8 10 12 14 11 10 12 15 15 17 18 18 17 16 18 19 21 22 20 22 23 25 28 26 26 21
18 16 15 15 14 13 13 13 10 7 6 5 5 6 7 5 6 7 9 10 10 11 11 12 13 14 17 18 18 20 21 20 22 23 23 21 22 24 26 26 23 21 23
16 13 11 11 10 9 7 6 5 4 5 5 5 4 3 4 6 7 9 9 8 8 8 10 12 15 19 18 19 20 23 24 23 23 21 25 25 26 23 26 25 22 24
11 10 9 9 7 6 5 4 3 3 2 2 1 4 5 6 6 6 8 9 11 9 9 11 13 17 18 19 21 22 24 25 25 22 24 25 26 25 25 24 23 24 24
10 9 8 7 6 4 3 2 2 1 2 3 5 5 5 7 4 7 7 9 10 11 12 13 15 17 18 20 21 22 23 24 21 23 24 25 26 25 25 25 25 27 27
8 6 5 4 3 2 1 1 1 2 3 4 6 7 8 6 8 9 9 10 11 11 13 15 16 17 19 20 21 22 24 25 25 24 25 26 28 27 26 27 26 26 27
7 5 4 3 1 0 1 1 2 3 5 5 7 7 8 8 10 10 11 12 11 13 14 16 18 19 20 21 21 23 24 25 25 25 27 28 30 28 29 28 29 29 29
6 5 3 3 2 1 2 2 3 4 5 6 7 7 8 9 10 11 13 13 13 13 14 16 18 19 20 21 22 23 24 25 25 27 29 31 33 32 30 29 28 26 26
6 6 5 3 2 2 3 3 4 5 6 7 8 9 10 11 11 13 14 14 15 15 15 17 18 20 21 21 22 23 24 25 25 27 30 34 36 35 32 24 26 27 27
7 6 4 3 2 3 4 5 5 5 7 8 9 11 11 11 13 14 14 15 16 15 17 18 19 21 22 22 23 23 24 24 24 27 32 34 32 31 27 27 27 27 25
7 5 4 3 3 4 5 6 6 7 8 9 12 12 12 14 15 15 15 16 16 18 18 18 19 20 21 23 23 23 23 23 24 26 27 33 31 31 28 28 28 26 28
6 5 4 3 4 5 6 6 7 8 10 12 12 14 14 16 16 17 18 18 18 19 19 20 20 20 22 23 22 22 24 24 23 24 28 31 30 28 29 29 27 26 28

GFSGL_925_spd_030.txt.gz
Wind_Speed
13 18 17 16 18 21 26 29 29 29 29 30 32 34 34 32 32 32 30 28 23 20 17 15 10 9 9 6 7 7 9 9 8 9 13 17 20 22 23 23 24 26 28
16 17 18 15 12 16 21 23 23 23 23 26 27 27 29 31 32 31 29 26 21 17 13 8 9 11 8 7 7 11 10 10 11 11 18 19 21 21 22 24 25 27 28
16 13 16 12 10 10 14 15 16 18 20 22 24 27 29 31 32 30 28 24 20 15 8 9 4 11 6 5 9 11 11 11 12 13 16 19 20 21 24 25 27 29 28
16 16 13 8 7 7 11 14 16 18 19 21 24 26 28 29 30 28 24 18 14 11 9 5 5 8 5 8 10 8 9 11 13 16 19 21 21 22 22 23 22 24 27
12 13 10 5 1 9 14 17 21 23 25 26 27 27 28 30 25 23 19 16 12 9 5 4 5 6 5 5 7 8 10 12 13 17 19 19 19 19 18 23 25 25 26
10 10 9 13 17 19 19 20 22 25 26 26 27 30 29 27 23 22 20 17 13 7 4 5 5 5 5 6 7 8 9 13 16 14 18 16 18 22 23 23 22 18 10
12 12 13 14 19 20 21 22 23 25 26 30 30 31 28 25 20 18 16 13 8 3 3 8 4 2 5 6 8 9 10 12 13 16 17 21 22 25 27 27 23 19 21
14 14 13 16 20 21 23 25 25 26 27 30 28 28 28 21 17 13 9 10 8 5 6 2 1 4 7 7 10 12 13 13 14 18 20 23 23 21 21 20 25 26 24
14 14 12 14 18 21 24 25 25 28 26 25 24 23 22 18 13 13 12 10 8 5 2 3 4 7 9 10 12 13 13 15 17 18 17 17 18 21 23 22 25 20 17
16 15 15 19 23 26 26 27 25 25 24 22 20 17 15 15 11 10 9 4 3 2 2 5 8 8 9 10 12 12 12 19 18 18 18 23 23 21 19 17 18 20 16
15 17 19 20 22 23 24 24 22 21 20 18 18 14 12 10 9 6 2 3 2 3 5 8 8 7 9 11 12 15 16 17 17 18 23 23 23 22 23 23 20 19 18
18 20 20 19 20 20 21 20 19 18 19 19 17 15 11 10 7 7 5 3 2 5 8 9 9 9 9 11 13 13 14 14 17 18 19 21 23 27 27 25 24 24 24
18 18 17 17 16 15 17 17 16 15 16 14 13 11 8 5 3 2 2 3 4 6 8 9 8 7 10 13 12 11 11 12 14 16 18 22 24 25 24 27 27 27 28
19 19 17 17 16 14 14 13 13 11 11 10 8 7 5 5 4 5 6 7 8 7 8 4 7 10 11 11 12 11 10 11 12 16 20 24 24 23 26 25 28 29 28
17 15 14 14 14 15 14 12 11 10 7 6 6 5 5 5 4 5 5 7 8 8 7 9 11 11 14 15 16 14 15 15 16 19 21 22 22 24 27 27 27 26 18
15 14 12 12 12 12 13 14 10 9 7 6 5 4 2 1 3 4 6 8 7 8 6 8 11 13 15 17 17 19 18 17 18 20 21 19 22 25 27 27 23 21 22
14 12 11 10 9 9 8 7 7 6 6 6 5 4 4 4 5 5 7 7 7 8 8 10 12 13 16 16 17 17 20 20 20 20 18 20 22 25 21 26 26 23 23
11 9 9 8 7 7 6 5 4 3 2 3 3 6 5 5 6 6 8 8 10 9 8 9 11 14 15 16 17 18 20 21 21 20 21 21 23 22 25 23 23 23 24
9 8 7 7 6 5 4 4 3 3 3 4 6 5 6 7 5 7 8 9 9 10 9 11 12 13 15 16 18 19 19 21 19 21 21 21 23 23 25 25 25 27 28
7 6 5 5 3 2 3 3 4 4 5 6 7 8 8 8 8 10 9 10 10 10 11 13 14 14 16 17 19 20 21 22 23 23 22 23 25 26 25 26 26 27 27
8 6 4 3 1 2 3 3 4 5 6 7 7 7 8 8 9 10 10 11 12 12 13 14 15 17 17 19 20 21 22 23 23 24 24 26 27 28 27 27 29 29 28
6 4 2 1 1 2 3 4 5 6 6 7 8 9 8 9 11 12 12 13 13 15 15 16 18 19 19 20 20 22 23 25 25 25 27 28 29 31 29 29 31 28 25
4 3 2 1 2 2 4 5 6 6 7 8 9 10 11 12 12 13 15 15 16 17 17 17 19 21 20 21 20 22 24 25 26 25 27 29 32 33 33 30 26 27 28
4 3 2 2 3 4 5 6 7 7 8 10 10 12 13 13 14 16 17 17 18 19 18 19 20 21 22 22 22 22 24 24 25 25 27 32 32 31 30 29 28 29 30
4 4 3 4 4 5 6 7 8 9 10 11 13 14 14 15 16 17 16 17 19 20 21 20 21 21 22 23 23 24 24 23 23 26 28 28 32 33 31 30 29 31 30
5 5 5 5 5 6 7 8 9 10 11 14 15 15 17 18 19 19 20 20 21 22 22 22 22 22 23 24 24 25 23 23 25 24 25 29 30 30 30 30 30 31 29

GFSGL_925_spd_033.txt.gz
Wind_Speed
19 17 15 14 13 11 15 17 20 21 22 24 24 25 27 25 26 30 30 34 36 29 24 22 18 15 13 5 4 5 6 8 5 4 10 11 14 15 16 17 18 19 19
17 17 15 12 10 8 8 11 13 15 16 18 20 21 22 24 28 30 27 28 31 28 24 19 16 14 11 9 5 5 7 9 7 11 8 12 16 15 16 18 19 19 20
16 14 11 11 9 7 7 5 9 11 14 16 17 19 21 23 25 25 27 29 30 27 23 18 15 11 10 9 7 7 7 10 9 11 10 12 13 15 13 15 16 19 21
16 11 10 9 8 8 7 7 5 9 12 13 16 19 21 22 25 28 30 30 27 22 19 17 14 12 10 8 6 6 11 12 11 10 11 11 11 11 12 15 17 18 22
16 11 10 11 6 8 5 3 6 10 13 15 19 21 23 23 25 29 30 27 25 22 15 12 8 7 6 3 5 8 9 11 9 11 12 10 12 13 14 17 19 20 20
15 15 13 11 10 10 9 10 13 13 15 16 18 21 23 25 26 26 25 21 18 17 14 9 6 3 1 7 7 8 8 9 9 9 11 13 15 15 15 17 18 19 12
12 12 12 11 11 12 12 12 15 17 19 21 22 24 27 25 22 22 21 20 16 13 10 6 4 6 5 4 5 4 6 10 10 13 13 14 16 16 18 18 18 17 19
13 15 12 11 13 12 13 17 20 22 24 27 28 27 25 21 22 20 19 16 13 10 8 8 6 3 0 2 4 6 9 11 12 14 14 16 16 16 16 17 19 22 22
15 14 13 12 14 15 18 20 22 25 26 26 27 25 23 19 15 14 14 14 13 10 7 4 1 3 4 4 6 9 10 13 14 15 13 13 14 17 18 17 17 16 16
15 14 14 14 18 20 20 22 24 26 26 25 23 21 19 18 15 15 13 11 10 8 5 0 4 6 6 6 7 6 8 12 14 14 14 18 17 15 13 11 11 13 14
15 18 18 17 19 20 21 22 23 23 23 22 21 18 17 12 8 7 6 7 4 3 1 4 4 3 5 6 6 8 10 12 10 13 14 13 11 11 11 11 11 12 13
18 19 19 18 18 18 19 18 17 18 18 17 16 15 13 12 10 9 6 4 3 1 1 2 4 5 4 6 8 11 10 10 12 11 10 12 12 14 15 15 16 16 16
17 18 18 17 16 15 16 16 15 14 14 12 10 10 7 5 5 5 5 3 2 2 4 4 2 3 7 10 8 8 7 9 7 8 10 13 13 17 17 18 18 19 21
18 18 17 17 16 14 13 12 12 10 10 8 6 5 4 4 4 3 3 3 4 3 5 2 5 7 7 6 6 5 5 6 6 9 11 14 15 14 15 13 15 18 21
16 15 15 15 14 15 14 11 10 9 5 6 5 5 4 4 3 2 3 4 5 5 3 5 6 7 7 7 7 6 7 8 8 9 11 12 13 13 14 15 16 17 15
15 13 12 13 12 12 13 14 10 9 7 6 6 4 2 1 1 2 3 5 4 4 4 4 4 5 6 8 8 9 10 10 11 13 13 13 13 15 16 17 15 16 20
13 12 10 9 8 8 7 5 5 5 6 6 4 3 3 2 3 3 4 4 4 4 3 3 5 6 8 8 9 11 12 14 16 15 16 16 17 17 16 17 18 18 20
11 9 8 8 7 6 4 3 2 1 1 1 2 4 4 5 3 3 4 6 5 5 5 5 7 8 10 11 12 13 15 17 17 17 18 19 18 15 16 18 19 20 21
11 10 9 8 6 5 3 2 2 2 3 3 5 4 4 5 3 4 5 7 7 8 8 8 9 10 12 13 14 16 18 19 17 18 20 20 20 17 19 21 22 24 25
10 9 8 7 6 4 2 1 2 3 3 4 5 6 6 7 8 9 9 8 9 10 11 12 13 13 15 16 17 18 20 20 20 21 22 23 22 21 23 22 22 23 25
11 9 7 6 3 1 0 1 2 3 5 6 7 7 7 9 10 11 12 12 12 13 14 14 15 16 17 18 19 20 21 23 24 25 25 26 26 25 24 23 24 26 27
11 9 7 4 2 1 2 2 4 5 6 8 9 9 8 9 11 12 13 13 14 14 15 16 18 18 19 20 21 22 23 26 27 27 27 27 27 26 26 24 25 27 29
11 9 6 4 2 2 3 5 6 6 7 8 9 10 11 12 12 12 14 15 16 17 17 18 19 21 20 21 21 23 24 27 28 28 29 29 29 28 27 26 28 28 25
10 8 5 3 2 3 4 6 6 7 7 9 10 11 13 13 14 16 16 17 17 18 18 19 19 21 21 22 23 23 24 26 27 28 27 31 34 32 28 28 29 30 30
10 7 5 4 4 5 5 6 7 7 8 9 11 13 14 15 17 18 17 18 18 19 19 19 19 20 21 22 23 24 25 26 25 26 30 31 31 33 33 32 31 31 32
9 7 5 4 5 5 6 6 6 7 9 11 13 14 16 17 18 18 18 18 19 20 21 21 20 20 21 22 22 24 24 24 25 27 27 29 31 30 30 30 31 32 32

GFSGL_925_spd_036.txt.gz
Wind_Speed
13 13 13 12 10 9 9 10 10 11 12 13 14 15 17 20 25 27 24 24 22 23 26 28 25 24 18 15 15 13 13 10 3 4 5 5 11 16 16 15 15 16 17
13 11 10 11 11 9 8 8 8 9 9 10 12 13 14 16 18 23 26 25 26 22 19 19 18 21 18 14 10 7 6 6 4 3 7 10 13 13 13 15 16 16 19
13 11 9 9 9 9 7 6 5 4 5 4 5 6 8 10 13 17 17 18 20 22 21 21 18 18 15 11 10 9 6 4 7 6 3 5 8 10 14 14 17 18 19
13 11 9 10 10 8 7 5 4 3 4 4 4 2 1 3 8 15 19 21 21 21 22 19 17 15 14 11 9 7 6 4 6 4 7 10 11 11 12 15 16 17 21
11 11 12 10 9 9 8 7 5 7 9 9 8 6 7 9 10 16 19 22 25 24 20 18 15 12 10 8 7 7 6 6 7 10 10 8 11 12 14 14 16 18 19
11 13 11 9 10 10 9 9 10 10 11 11 10 7 9 10 11 12 19 25 24 22 20 16 14 10 8 5 2 2 5 7 8 11 10 13 13 13 13 15 16 17 14
11 9 10 10 12 11 12 13 15 15 13 14 14 15 19 19 18 17 19 20 20 17 14 12 11 8 5 6 9 10 11 11 10 12 16 15 14 14 13 15 16 16 18
11 11 11 11 13 12 15 16 16 18 20 21 22 22 22 18 19 18 17 17 16 15 10 8 6 6 5 3 5 6 8 6 9 11 14 15 14 14 14 14 15 19 21
12 11 11 10 13 14 17 17 17 19 20 22 21 21 20 17 18 16 15 14 13 11 7 5 5 3 2 5 7 6 7 8 9 12 14 14 14 15 16 16 16 16 17
13 13 14 15 16 18 17 19 20 22 23 22 21 18 15 16 15 14 11 10 10 6 5 3 1 1 3 4 5 6 8 10 12 13 12 12 13 13 13 13 14 15 15
14 16 18 18 19 18 18 19 20 21 20 19 18 15 11 10 10 9 6 5 4 3 2 1 2 1 3 4 3 5 9 12 14 12 13 12 11 11 10 10 13 15 15
15 16 16 14 14 16 16 15 14 12 12 11 10 9 10 10 8 6 5 5 2 0 1 3 4 4 3 4 7 8 11 11 11 11 11 11 11 11 11 12 13 16 19
11 12 12 11 11 11 10 9 8 8 7 6 6 5 4 3 4 4 3 2 3 3 3 3 3 4 7 8 8 8 8 8 9 10 11 11 11 13 15 13 14 15 19
10 11 10 10 10 9 8 7 6 5 5 4 3 3 3 2 2 1 2 4 4 3 5 3 5 8 8 8 7 6 6 7 8 11 12 13 13 13 13 12 14 15 18
9 9 9 8 8 8 8 6 6 5 4 3 3 2 1 1 1 2 4 5 6 5 4 5 6 5 5 5 5 6 6 7 9 10 12 13 14 14 14 13 15 16 17
9 8 7 7 6 6 7 7 8 7 6 5 4 1 1 2 3 4 3 5 4 5 6 6 6 6 6 6 7 7 7 8 9 10 12 13 15 15 16 15 16 17 18
8 8 7 6 5 5 4 3 3 2 3 2 1 1 2 3 4 4 4 5 6 6 6 7 7 7 7 7 8 8 9 9 11 11 12 13 14 16 16 16 16 17 19
9 9 7 6 5 4 3 2 1 2 3 3 4 3 3 4 4 3 5 7 6 5 6 7 8 8 7 8 8 9 9 10 11 12 14 14 15 15 17 17 18 18 20
10 8 7 6 5 5 3 2 2 2 2 3 4 4 5 5 4 5 7 6 7 7 7 8 8 9 9 10 10 10 11 12 13 16 16 16 16 15 18 19 20 22 24
10 10 9 7 6 5 3 3 2 2 3 4 5 6 6 6 6 7 7 7 7 8 8 9 10 10 11 12 12 13 13 14 14 15 17 18 18 17 19 20 20 21 22
12 11 9 8 6 5 3 2 2 2 4 5 6 6 7 9 8 8 8 8 8 9 10 10 11 12 12 13 14 14 15 16 17 18 19 20 20 20 20 21 22 23 24
13 11 11 8 7 5 4 3 3 3 4 5 6 6 7 7 8 9 9 9 9 10 11 12 13 13 14 16 16 18 18 19 20 20 22 22 22 22 23 23 24 25 26
14 12 11 9 7 5 4 3 3 4 5 5 6 7 7 7 8 9 10 10 11 12 13 14 16 18 18 19 20 21 23 26 27 26 28 26 24 24 24 25 26 27 27
15 13 11 9 7 6 5 4 4 4 5 6 6 7 8 9 10 11 12 12 14 16 16 17 18 20 21 22 23 23 25 27 28 30 29 29 29 28 27 28 28 30 33
15 13 12 9 8 6 4 4 4 4 5 5 7 8 9 10 11 12 13 14 15 17 18 18 20 20 22 23 24 25 25 26 28 28 29 31 31 32 32 32 33 34 34
16 13 11 9 8 6 5 4 4 5 5 7 8 9 10 11 12 13 14 15 16 18 20 20 21 21 22 24 24 24 25 25 25 27 29 29 30 31 31 32 33 34 36

GFSGL_925_spd_039.txt.gz
Wind_Speed
12 12 11 10 10 9 8 8 9 10 11 14 15 14 14 13 17 20 22 22 22 20 22 24 25 23 21 18 15 19 16 15 7 4 7 8 9 11 14 16 18 19 20
13 13 11 10 9 9 9 9 8 8 8 10 8 8 8 10 10 14 16 18 16 17 17 18 18 18 18 17 15 10 9 7 7 8 11 10 12 13 14 15 16 15 19
14 13 11 10 9 9 10 10 9 8 7 6 4 2 2 4 5 5 8 8 11 13 15 16 18 19 19 18 16 14 8 7 7 8 8 8 8 10 10 11 13 15 18
12 11 11 10 10 10 10 10 10 10 9 8 7 5 4 2 1 4 7 9 10 11 13 15 17 19 20 17 14 11 10 9 8 7 5 4 6 9 11 14 13 12 13
10 10 9 10 10 10 11 11 10 11 9 8 8 8 7 6 5 4 8 8 11 13 14 15 14 12 11 12 12 13 11 9 5 3 3 4 7 9 11 11 12 13 14
9 8 8 8 9 11 11 12 12 12 10 10 11 9 11 12 11 6 5 10 14 17 18 17 15 13 14 7 8 8 6 6 6 7 6 6 11 12 10 10 10 10 8
6 6 8 9 11 14 13 13 14 14 15 19 19 19 22 19 15 15 11 14 15 15 15 14 12 9 8 9 7 5 7 6 8 6 7 10 11 10 8 12 14 13 16
7 9 10 13 13 11 11 14 15 17 21 21 22 23 24 20 17 16 14 14 14 13 10 8 6 4 4 2 3 1 1 5 8 8 10 11 11 11 11 13 15 16 18
10 10 12 12 12 13 15 16 17 20 21 21 20 19 20 18 16 14 14 12 11 10 7 7 4 4 2 1 2 3 5 7 6 7 10 13 14 14 14 14 15 14 14
12 12 13 13 16 17 17 19 19 20 20 18 18 15 14 15 14 15 13 9 8 4 4 1 2 3 3 3 4 6 6 6 7 9 11 10 11 13 12 14 15 14 12
12 12 12 13 14 15 16 15 16 17 16 15 14 11 11 11 10 9 7 4 4 3 2 2 3 3 3 4 3 4 6 8 11 11 10 10 10 10 10 11 13 15 15
8 8 9 10 10 11 13 12 11 9 9 8 8 8 8 8 6 6 7 6 5 4 3 4 4 4 3 4 6 7 9 10 9 9 9 10 10 10 11 13 15 16 18
7 7 7 7 7 7 7 7 7 6 5 5 4 3 3 3 3 4 4 5 5 5 4 5 6 6 7 8 6 8 8 7 8 9 9 10 10 12 16 19 16 17 20
7 6 6 5 6 5 6 5 5 4 4 3 2 2 2 2 2 3 4 5 6 6 7 6 8 10 9 8 8 6 6 6 7 9 11 11 13 14 14 14 15 15 18
7 6 6 5 4 5 6 5 4 4 3 3 3 3 4 3 4 4 5 6 8 7 9 8 9 8 8 8 7 7 7 7 8 9 11 12 13 14 15 14 15 16 17
7 6 5 5 3 3 3 5 6 6 4 4 3 2 3 5 5 7 7 7 8 9 8 10 8 8 8 8 7 7 7 9 9 11 12 13 14 14 15 16 16 18 19
7 7 6 5 4 3 2 2 2 2 3 3 4 4 4 6 7 7 6 8 8 9 9 8 8 8 8 8 8 8 9 10 12 14 14 15 15 15 16 17 18 18 21
9 9 7 6 4 3 2 2 3 3 5 4 6 6 5 7 7 6 7 9 9 6 8 8 9 9 9 9 9 10 11 12 13 14 15 15 16 18 17 17 18 20 22
10 9 7 6 5 4 2 2 3 4 5 5 6 6 7 7 8 7 7 7 8 8 8 9 10 11 11 11 12 12 13 15 15 16 17 17 18 19 20 20 21 23 25
10 10 8 7 5 4 3 4 5 5 5 6 7 7 7 8 8 8 8 8 9 10 10 11 12 12 13 14 14 15 16 17 17 17 18 17 19 20 22 23 23 23 24
12 11 9 8 7 6 4 5 6 5 6 7 7 7 7 9 10 9 10 10 11 11 12 13 14 15 15 17 17 18 19 20 21 22 22 22 21 22 23 24 25 26 27
13 12 12 10 8 6 5 6 6 6 6 7 8 8 9 9 10 10 11 11 12 13 14 15 17 18 18 19 20 21 23 25 26 25 25 25 24 24 25 25 26 27 27
14 13 12 10 8 6 6 6 6 7 7 7 8 9 9 10 11 12 12 13 14 15 16 17 19 21 22 22 22 23 25 28 28 27 27 28 26 26 25 26 27 28 27
15 14 13 10 9 8 8 7 7 8 8 7 8 9 10 11 12 13 15 16 17 17 18 19 20 22 23 24 24 25 27 28 29 30 30 30 31 30 29 28 29 31 33
17 15 13 12 11 10 8 8 8 8 8 7 8 9 11 12 14 15 16 16 17 19 20 20 21 23 23 24 25 26 27 27 27 28 30 32 35 36 35 33 32 33 34
17 16 14 13 11 10 9 9 9 10 9 9 10 12 13 14 15 16 17 17 18 19 22 23 22 21 23 24 26 25 25 25 25 26 27 31 31 32 31 33 34 34 34

GFSGL_925_spd_042.txt.gz
Wind_Speed
15 15 14 13 11 9 10 13 11 10 10 10 12 15 16 16 13 11 11 12 12 12 17 20 24 25 23 20 19 19 18 17 5 7 15 18 17 18 19 20 23 21 21
15 16 15 12 11 12 11 11 9 8 7 7 7 6 7 8 10 10 10 10 10 12 12 14 16 16 16 15 15 16 15 15 10 8 13 18 22 22 18 19 19 16 15
13 12 13 13 13 12 9 8 9 10 9 8 7 6 5 4 4 5 6 5 6 6 8 11 12 13 13 12 12 12 13 12 13 13 9 14 16 16 13 15 14 14 16
11 11 11 12 10 12 9 9 8 7 9 11 12 11 10 9 5 2 1 1 1 3 3 6 7 8 12 12 13 14 14 14 11 11 7 6 6 8 9 12 14 10 10
9 10 10 9 8 8 9 9 9 11 10 10 10 12 13 12 11 7 6 5 5 6 6 5 5 7 9 10 12 12 11 9 7 8 7 5 7 7 10 7 10 7 8
9 7 7 9 8 8 9 9 11 15 15 15 16 17 18 16 11 9 6 9 10 12 14 14 12 12 10 7 6 7 6 8 9 5 5 3 7 9 11 11 3 5 4
8 9 10 9 8 9 10 12 16 18 18 20 21 21 20 16 14 14 12 14 15 14 13 12 9 7 7 7 6 4 5 1 1 3 5 6 6 4 5 8 11 12 14
9 10 10 9 9 9 12 16 17 19 21 20 18 18 19 16 15 13 12 14 15 13 10 9 6 5 4 3 2 2 2 1 6 7 7 7 7 7 7 8 9 11 14
9 9 9 10 12 13 16 16 18 19 18 17 16 16 17 16 14 13 12 12 11 10 10 9 8 6 5 3 4 5 4 4 4 5 6 9 11 11 11 12 13 14 13
10 12 13 15 16 16 16 16 16 15 15 15 16 15 14 14 12 11 11 11 10 9 6 6 4 1 3 2 3 6 3 2 4 8 11 11 12 11 11 11 12 13 12
12 14 14 13 14 13 12 11 12 13 15 15 13 13 12 12 10 9 8 6 6 5 4 4 2 4 4 4 4 5 5 8 10 11 11 11 10 10 10 9 11 13 14
12 12 12 11 11 11 9 8 8 9 8 8 7 8 7 5 7 7 7 8 7 5 4 4 3 4 4 6 7 7 9 9 10 8 8 9 10 10 11 12 13 15 17
10 9 8 7 6 4 5 5 5 4 4 4 4 4 4 4 6 6 6 7 7 7 5 7 5 5 6 8 7 8 9 8 6 7 9 9 9 10 13 17 16 16 17
10 9 8 7 6 5 5 4 4 4 2 2 2 2 2 3 2 4 4 5 5 5 7 7 8 9 7 8 8 7 6 6 7 9 11 11 13 15 14 14 16 17 18
10 9 8 8 6 6 4 4 2 3 2 1 1 2 3 3 5 5 7 8 9 9 11 10 9 9 8 9 7 7 7 7 8 10 11 13 12 13 14 15 17 18 17
12 10 9 9 7 5 4 4 3 2 2 2 2 3 3 4 5 7 7 7 9 9 10 10 10 8 9 9 9 10 9 9 9 10 12 14 16 17 19 19 17 16 18
14 12 11 9 7 7 5 3 4 4 4 6 7 7 7 7 8 8 7 8 10 10 10 9 10 10 10 11 11 10 11 11 12 13 15 16 18 19 18 20 19 18 19
13 12 12 10 8 6 5 4 4 4 5 6 8 11 9 8 9 8 8 9 11 7 8 10 12 12 12 13 13 12 12 14 14 15 15 17 20 20 19 19 19 19 20
16 15 11 10 8 7 6 5 4 5 6 8 9 8 7 8 9 9 8 9 10 12 12 13 13 14 15 15 16 15 15 16 17 18 19 20 22 20 21 22 23 24 24
15 13 13 11 10 9 7 6 5 5 7 8 8 8 10 10 10 9 9 10 12 14 14 15 16 17 17 18 19 19 20 22 24 24 25 25 26 25 24 24 24 24 23
17 15 14 12 11 9 8 7 6 6 8 8 9 9 8 10 12 11 12 13 14 15 16 17 18 19 20 20 21 22 22 24 26 27 28 29 28 27 26 26 26 25 25
18 16 16 14 11 10 9 8 8 7 8 9 9 10 8 10 12 12 13 14 15 16 16 19 21 22 22 22 23 24 26 28 29 28 28 29 28 26 25 25 25 25 25
18 17 16 14 12 10 9 9 9 8 9 9 9 10 10 10 11 13 14 15 17 19 20 20 22 24 23 23 22 23 26 29 30 30 31 29 27 26 26 25 25 25 25
19 18 17 15 13 12 11 10 10 9 9 9 9 10 10 12 13 14 16 17 18 19 19 20 21 23 24 24 24 25 26 28 29 30 29 30 31 29 30 29 29 30 31
21 19 17 16 14 13 12 11 11 11 10 10 10 11 11 13 15 16 16 17 19 19 19 20 22 24 24 22 23 25 27 27 27 28 30 33 35 36 37 35 35 34 33
21 19 17 16 14 13 13 12 12 12 11 11 12 13 13 14 16 17 18 18 18 19 21 23 23 22 23 24 24 24 24 24 26 27 29 32 32 32 32 33 35 34 35

GFSGL_925_spd_045.txt.gz
Wind_Speed
10 11 11 10 10 9 8 9 9 9 9 7 8 8 9 8 9 9 9 9 12 11 11 13 17 17 18 19 19 20 22 22 11 9 18 20 25 26 27 22 18 20 18
10 9 10 8 8 8 7 7 6 5 7 8 6 6 8 8 7 7 8 9 9 10 10 9 12 13 15 14 14 12 14 17 14 6 15 17 20 23 22 21 19 16 20
7 7 9 10 9 9 7 5 5 5 7 8 9 10 9 7 6 6 6 6 7 7 6 5 4 5 8 7 10 10 12 13 12 9 7 13 15 19 17 18 17 19 21
7 8 10 10 10 9 7 8 8 8 9 9 10 11 10 10 8 5 5 4 4 3 3 3 3 3 4 5 6 8 8 7 6 6 5 6 7 9 14 13 11 11 12
5 7 8 7 6 7 9 8 8 8 9 9 11 12 12 11 11 8 7 8 9 9 8 7 8 6 5 2 2 4 4 5 4 5 4 4 7 6 7 4 7 5 9
6 7 5 6 7 7 7 8 10 11 13 15 16 15 17 16 13 11 9 11 11 11 11 11 11 11 10 7 5 2 1 2 2 2 2 2 2 2 5 8 8 4 2
7 8 7 6 7 9 11 12 13 12 13 16 17 18 18 16 14 14 12 14 14 12 11 9 9 8 7 8 7 5 4 2 2 2 2 1 2 1 1 4 5 8 9
7 7 6 6 8 10 12 12 13 13 14 16 17 17 18 15 13 12 12 12 11 10 8 7 7 6 5 5 6 6 3 2 3 5 6 6 4 4 6 8 9 10 13
7 8 8 9 10 12 13 13 13 14 15 15 14 13 15 14 12 13 12 11 10 10 10 9 8 7 6 4 4 4 3 4 3 4 3 5 7 9 9 9 10 10 10
9 12 12 11 13 14 13 12 13 13 14 13 14 15 14 13 11 8 8 8 7 6 6 5 5 6 5 5 5 5 3 1 4 7 10 10 9 10 10 10 11 11 9
13 14 13 13 13 13 12 11 12 14 12 11 10 9 9 8 10 9 7 6 5 4 4 4 3 5 5 4 5 6 5 7 10 11 10 7 7 6 5 6 8 9 11
12 13 11 11 10 11 10 10 9 7 7 7 5 5 3 4 6 5 6 6 6 4 3 5 6 5 6 6 7 7 6 7 9 7 6 6 5 5 5 7 9 12 15
13 13 11 10 8 6 5 5 5 4 4 3 1 1 2 2 3 3 5 5 5 4 3 6 4 6 7 8 6 6 6 6 4 5 6 7 8 10 12 13 12 13 14
13 11 10 9 9 7 6 6 6 5 4 3 1 0 2 2 2 5 6 6 7 8 8 10 8 8 7 7 8 7 7 6 7 8 8 9 11 12 12 10 13 15 17
15 13 12 10 10 9 6 5 4 2 1 2 1 0 2 2 4 5 7 8 8 9 9 11 9 7 6 8 8 7 7 7 7 9 9 9 9 10 13 13 15 17 15
18 16 14 13 11 9 8 6 3 2 1 1 1 2 3 4 5 6 7 7 8 8 10 10 9 8 9 9 10 10 10 9 9 10 11 12 14 15 17 15 15 15 17
20 17 15 14 13 12 11 8 6 4 3 3 3 4 6 7 7 7 8 7 8 10 10 9 9 11 12 11 11 11 12 11 11 13 13 14 15 16 16 19 17 17 18
20 18 17 16 15 13 11 9 7 5 4 3 4 6 7 7 8 8 8 8 11 7 8 10 11 11 13 13 13 14 14 14 13 14 16 16 17 18 18 18 19 20 21
22 20 19 17 15 13 11 9 7 6 5 5 5 6 7 6 8 8 8 10 12 12 12 12 12 13 14 15 16 17 18 19 18 18 20 23 25 23 21 21 22 24 24
22 20 18 17 15 14 12 10 8 7 6 6 6 7 7 8 9 10 9 10 11 13 13 14 15 15 16 17 18 19 20 21 22 23 24 25 25 24 24 24 23 23 23
25 21 20 18 17 15 13 12 9 8 7 7 8 7 6 10 12 12 10 10 12 13 15 15 16 18 18 19 20 21 21 23 25 26 26 26 26 26 25 24 25 24 25
25 22 21 21 18 16 14 12 10 9 7 7 8 8 7 9 11 11 12 12 13 14 15 17 20 20 20 21 20 21 22 24 26 26 26 27 27 26 25 24 24 25 25
23 22 22 20 18 15 14 12 11 9 9 8 9 9 9 10 11 12 13 13 14 15 16 17 19 20 19 19 19 20 22 25 26 26 28 29 27 26 26 26 26 26 25
24 22 21 21 18 17 15 13 12 10 10 9 10 10 11 11 12 13 14 15 15 16 17 16 16 18 20 20 20 20 21 22 24 26 26 28 29 29 29 28 28 30 31
25 22 20 20 19 17 15 14 13 12 11 11 12 12 12 12 14 14 14 15 16 18 14 15 18 19 19 19 20 21 22 21 21 23 28 31 34 36 37 34 34 34 34
24 24 21 21 18 17 16 15 14 12 12 12 12 13 14 14 15 15 15 16 17 17 17 18 19 19 20 20 20 20 20 21 23 25 27 30 31 32 31 31 33 34 35

GFSGL_925_spd_048.txt.gz
Wind_Speed
4 5 5 5 4 3 5 6 6 7 8 7 7 6 6 5 5 3 3 3 4 4 7 6 7 11 13 13 14 16 19 17 8 7 11 14 16 21 22 25 24 25 24
4 4 5 3 2 3 5 6 5 7 8 8 8 7 7 6 6 5 6 6 8 7 6 6 6 6 6 8 9 10 10 11 9 6 9 11 14 19 23 20 20 22 21
3 3 4 5 5 5 4 3 4 6 7 8 9 9 9 8 6 5 3 4 4 4 5 5 5 5 6 8 8 7 8 8 10 5 5 6 13 15 16 17 16 17 15
3 4 5 6 6 6 5 6 7 8 9 10 10 10 10 10 9 8 7 7 7 6 6 6 6 6 5 4 3 2 2 1 1 3 3 3 4 5 13 12 13 13 14
2 4 4 3 3 5 6 8 9 9 10 11 12 13 13 15 13 9 8 10 10 11 12 12 13 13 11 7 5 5 4 4 3 3 3 1 2 1 3 2 4 4 7
3 4 3 3 4 5 7 8 10 11 12 13 15 18 16 16 13 12 11 13 13 12 13 12 10 11 13 12 10 8 7 5 5 3 3 3 3 2 1 3 5 4 2
5 5 4 5 7 8 9 11 12 14 13 15 16 16 15 15 13 13 11 12 11 11 10 10 10 9 7 6 5 3 5 5 5 3 3 2 2 1 0 1 2 5 7
5 4 4 6 8 10 12 13 13 13 13 14 14 14 14 13 11 11 10 9 9 10 11 11 11 10 9 8 7 6 5 4 4 2 2 3 3 3 5 7 7 8 10
5 2 4 7 10 12 13 12 11 13 13 12 12 11 11 11 10 11 9 9 9 9 9 10 10 9 7 5 6 6 5 4 3 2 0 1 3 5 6 9 8 8 8
8 6 8 9 11 12 12 12 12 11 11 12 13 12 10 10 9 7 6 5 5 6 6 6 6 7 6 6 8 7 6 5 7 8 9 11 12 11 10 11 10 10 8
12 10 10 10 12 12 11 11 10 9 9 8 9 8 7 7 6 6 6 6 5 5 5 5 5 6 7 7 7 8 7 8 10 11 11 9 7 6 6 6 8 9 10
14 12 11 12 10 10 11 12 10 6 5 5 4 3 2 2 2 3 4 4 6 5 5 6 8 6 7 7 8 7 7 8 11 9 7 6 5 4 4 6 7 10 12
15 13 11 9 9 8 7 7 7 6 5 4 3 3 2 1 1 1 2 3 4 5 5 7 8 8 8 7 7 6 6 7 6 5 6 7 7 8 10 12 11 11 13
18 15 13 12 9 9 8 8 7 6 6 6 5 4 4 4 3 4 4 6 6 7 7 9 8 6 5 5 7 5 5 6 6 7 7 9 10 10 9 9 13 13 17
18 17 15 13 12 11 10 8 7 6 6 6 6 5 5 5 5 4 6 8 8 8 9 10 8 5 5 8 7 6 6 6 6 7 9 9 9 10 11 13 14 15 17
21 20 18 17 15 13 11 8 8 5 4 3 4 4 4 5 5 6 6 7 7 8 10 9 7 6 8 8 8 9 9 8 9 9 10 12 13 15 16 15 14 19 19
24 21 20 19 18 17 15 12 10 8 7 7 7 7 7 7 6 7 7 7 6 8 7 7 7 8 9 9 10 10 12 11 10 11 13 14 15 16 15 18 21 18 18
26 23 23 22 20 19 17 15 12 10 10 10 9 10 9 8 8 8 8 8 9 8 8 9 10 10 11 12 13 13 14 14 14 14 16 16 16 17 18 21 21 21 21
28 26 24 23 20 19 16 15 13 11 11 10 9 8 9 8 8 9 8 9 11 12 11 12 11 12 13 14 15 15 16 17 17 16 18 20 22 23 24 25 23 22 22
29 26 24 22 21 19 18 17 15 14 12 11 11 10 8 7 8 9 9 10 10 12 13 13 14 14 15 16 17 18 19 20 21 21 22 22 23 22 24 26 25 23 22
30 26 24 22 22 22 20 19 17 14 13 13 11 9 9 9 12 11 11 10 11 13 13 14 16 17 17 18 19 20 21 23 23 23 24 25 24 25 25 26 26 23 23
29 28 27 25 22 22 21 18 16 15 14 13 11 10 9 10 12 11 11 12 12 13 14 16 19 19 19 19 19 21 22 24 24 24 25 25 26 27 27 25 23 23 24
26 25 26 23 19 20 18 17 16 16 15 13 12 12 11 12 12 12 12 12 13 15 15 17 19 20 18 18 19 21 23 25 24 23 26 28 28 28 26 25 24 25 25
25 25 25 23 21 19 19 19 18 17 15 14 13 13 13 12 12 12 13 14 15 16 16 17 15 16 19 20 19 20 21 22 23 25 26 27 29 29 29 28 28 30 30
23 26 25 24 22 18 21 20 20 18 16 15 15 15 14 14 14 14 14 15 16 17 17 16 16 18 19 19 20 20 20 21 22 22 26 31 35 36 36 34 33 32 32
24 24 23 23 23 22 22 23 21 18 17 16 15 15 15 16 15 15 15 16 17 18 18 18 18 19 20 21 20 20 21 21 22 24 27 31 31 31 31 31 33 33 34

GFSGL_925_spd_051.txt.gz
Wind_Speed
2 2 1 1 2 1 2 3 4 4 5 5 5 5 5 6 5 4 5 4 4 4 5 6 4 4 5 5 5 5 5 6 4 5 9 12 12 10 13 17 20 23 20
1 1 1 1 1 0 1 2 3 3 5 5 5 6 7 7 7 6 6 8 8 9 9 6 6 7 6 6 5 5 5 4 3 4 5 7 7 8 11 12 16 16 19
2 3 2 2 2 1 2 2 2 4 5 6 6 7 8 8 8 8 8 8 6 6 6 6 7 7 7 7 6 4 4 4 5 4 4 5 4 6 8 10 11 13 15
3 4 3 3 3 3 4 5 5 7 7 8 9 9 10 10 10 10 10 10 10 10 11 12 12 12 9 7 6 6 6 5 4 2 2 3 3 3 5 7 9 9 10
4 4 3 2 2 2 4 6 8 9 10 10 11 14 14 15 13 12 13 14 15 15 15 15 15 14 12 10 8 8 6 6 5 5 3 2 2 3 2 1 2 3 6
6 5 3 2 3 3 4 6 8 9 10 11 15 14 17 16 14 15 15 16 15 14 12 10 9 8 9 11 10 11 11 8 6 3 3 2 2 3 2 2 2 2 2
6 5 3 3 5 6 8 9 10 11 12 12 13 15 16 15 14 15 13 14 15 13 11 10 9 9 8 8 7 6 5 5 5 4 3 3 2 2 2 2 2 3 4
6 5 4 4 6 8 10 11 12 11 11 12 13 12 13 13 12 12 11 11 11 11 11 11 9 9 10 8 8 7 6 5 7 3 2 3 3 3 4 5 6 7 10
7 6 5 6 9 10 10 11 11 12 11 10 10 9 11 11 9 9 9 9 8 9 8 8 9 8 8 6 8 8 6 4 3 3 2 1 2 3 6 8 7 8 6
9 8 9 10 10 10 10 11 12 10 10 9 11 10 9 9 7 6 7 6 6 6 5 4 4 7 6 6 10 9 9 6 7 8 8 9 10 10 8 8 8 8 7
10 11 12 12 12 11 11 10 10 9 11 11 10 7 5 4 5 5 6 7 6 6 6 6 7 7 7 7 7 9 9 9 9 11 10 8 6 4 4 3 4 5 7
15 15 15 15 13 12 11 10 9 8 7 6 4 3 1 0 1 2 3 4 5 6 6 6 8 7 8 8 8 8 8 8 11 9 7 6 5 4 5 6 7 9 11
17 16 16 15 14 13 12 10 9 8 6 4 4 3 3 3 3 3 3 3 5 7 7 7 9 8 8 9 7 7 8 9 8 7 7 8 8 8 10 11 11 11 13
18 17 16 15 13 12 11 10 10 10 7 6 7 7 6 6 5 5 5 5 6 6 7 7 9 8 6 5 7 8 7 7 7 8 7 9 10 10 9 9 12 13 15
20 19 17 15 14 13 13 12 12 9 7 8 9 8 7 6 5 5 6 8 9 7 9 9 9 7 6 8 7 7 7 7 7 8 9 9 8 9 11 12 13 14 15
22 21 19 17 16 15 14 12 11 8 8 7 7 7 6 6 5 6 7 7 7 7 9 10 9 7 8 9 9 10 9 8 8 9 10 11 13 14 16 16 14 15 21
27 24 21 20 20 19 16 14 12 10 9 9 9 9 8 7 7 7 7 7 7 7 9 8 8 9 11 11 11 12 13 12 11 12 13 13 13 15 15 16 16 19 20
29 27 24 24 22 20 19 17 15 13 13 14 13 12 11 10 9 8 8 9 11 11 11 11 11 11 12 13 13 14 15 15 15 15 16 16 16 19 20 20 21 21 22
32 30 27 24 23 21 20 18 17 16 15 13 11 10 10 10 9 8 8 10 12 13 13 13 12 13 14 14 15 15 17 18 18 18 19 20 21 21 24 26 27 21 21
31 31 28 25 23 22 21 21 20 18 17 15 14 13 10 10 11 10 10 11 12 14 14 14 14 15 16 17 17 18 20 21 21 21 23 23 22 22 24 26 26 24 22
30 29 27 23 24 24 23 23 22 19 19 17 16 13 11 12 12 12 12 12 13 14 14 15 16 17 18 19 20 21 22 23 23 24 24 25 24 25 24 25 26 25 24
28 29 27 27 24 23 23 22 22 20 19 18 16 14 12 14 16 15 14 13 14 14 14 16 18 19 20 21 21 21 23 25 25 24 25 25 25 26 26 26 25 24 24
25 26 26 27 26 21 20 21 20 20 20 19 17 16 14 16 16 16 15 14 14 15 15 17 19 20 19 18 18 20 23 26 25 24 25 27 28 28 27 26 26 25 24
23 24 24 23 20 22 23 21 20 19 21 20 18 17 17 16 16 16 15 14 16 17 17 18 19 20 20 19 20 20 22 23 23 24 25 26 28 28 29 28 28 29 29
21 23 23 24 24 22 25 20 21 21 21 20 19 18 17 17 17 16 15 16 17 18 18 19 19 20 20 20 21 22 22 22 23 23 24 28 32 34 35 34 33 32 32
19 19 21 22 23 25 25 25 24 21 21 21 20 18 17 17 17 17 17 17 19 19 20 20 20 19 20 22 23 23 23 23 22 23 26 30 30 29 28 30 33 34 34

GFSGL_925_spd_054.txt.gz
Wind_Speed
2 1 2 2 2 2 2 1 1 3 3 3 3 3 4 4 5 5 6 6 6 6 7 5 2 1 1 2 3 2 3 2 3 4 5 9 10 11 11 10 11 12 11
2 2 2 2 3 2 2 1 1 1 1 1 2 3 4 5 5 6 8 9 8 8 7 3 3 3 3 3 2 3 2 2 3 3 5 8 8 8 6 5 7 9 9
3 3 3 3 2 2 1 1 1 2 3 3 3 4 5 6 6 8 8 9 11 11 10 10 10 7 8 6 6 5 5 4 3 2 3 5 4 6 5 3 5 7 10
4 5 3 3 3 3 3 3 4 5 5 5 5 6 7 7 8 8 9 10 12 13 15 16 16 15 12 11 12 10 8 7 6 4 3 4 4 5 4 4 4 5 7
7 6 5 4 3 2 2 4 6 7 7 8 10 11 12 10 9 10 12 14 15 15 15 15 16 16 15 15 13 11 8 7 6 5 4 4 5 5 5 5 3 3 4
8 8 7 5 5 4 5 6 6 8 8 9 12 12 14 13 12 12 14 14 13 12 12 12 10 8 8 9 9 12 11 9 7 4 5 4 4 4 4 5 5 4 3
10 8 7 6 6 7 8 9 9 11 11 11 12 13 13 12 11 12 12 14 14 13 13 13 11 11 9 9 9 8 5 5 5 4 4 4 4 5 4 5 5 5 5
10 9 8 8 9 10 10 11 12 12 12 11 11 11 12 11 11 11 11 11 12 12 12 11 10 10 9 9 9 7 5 7 8 5 4 4 3 4 5 6 7 7 10
11 10 10 10 12 13 12 12 12 12 11 10 8 9 10 10 7 7 7 7 8 8 8 8 8 8 7 7 9 7 6 4 3 2 3 4 4 5 6 9 8 8 7
12 11 10 11 13 14 13 13 12 11 10 8 9 9 9 8 4 5 5 5 6 6 5 4 3 5 6 6 9 8 8 6 6 7 8 8 9 8 7 7 7 7 6
12 11 11 12 13 12 13 14 12 11 12 12 9 7 5 4 4 2 4 5 6 5 5 5 6 5 5 6 6 9 7 7 6 9 8 5 4 3 2 2 3 4 5
12 13 13 13 13 12 14 14 13 12 11 10 7 5 3 2 2 1 2 3 4 4 5 5 7 7 6 6 5 5 5 6 7 6 5 4 4 4 4 6 7 8 10
15 15 14 14 13 14 15 13 13 10 9 8 7 6 4 5 5 4 3 4 4 6 6 5 6 8 7 6 4 4 6 6 6 5 5 5 6 8 9 9 9 9 12
16 16 17 16 15 15 14 12 12 12 11 9 9 8 7 7 7 5 4 5 6 6 6 5 6 8 6 5 6 7 6 6 6 6 6 7 9 8 8 8 12 14 15
18 17 18 18 16 15 15 14 14 12 11 10 9 9 8 8 5 4 4 5 8 8 8 8 8 7 6 6 6 6 7 6 6 7 8 8 9 9 11 12 13 15 14
22 21 21 21 19 17 16 15 13 12 11 11 9 8 8 7 5 4 6 7 7 7 9 10 10 9 8 9 9 9 9 8 8 9 11 11 13 14 15 15 14 15 17
27 26 24 22 22 20 19 17 15 12 11 10 10 9 9 8 7 7 7 7 8 8 11 11 10 10 10 10 10 11 13 11 10 12 13 14 16 18 17 18 18 17 22
29 28 27 28 24 23 22 20 18 15 15 15 14 13 13 11 10 10 8 9 12 11 14 14 14 12 12 12 12 13 14 14 14 14 15 17 17 18 19 20 20 22 24
29 29 30 28 27 25 24 22 21 19 18 16 13 13 12 11 11 10 10 14 15 14 13 14 14 13 14 14 14 14 15 16 17 18 19 19 20 20 23 23 24 20 20
29 30 29 28 27 25 25 24 23 22 21 19 18 16 13 11 13 13 13 14 15 15 14 14 14 14 15 15 15 16 18 18 19 19 21 21 21 21 22 23 24 24 24
27 27 26 25 27 27 26 26 25 24 23 22 20 16 14 15 15 14 14 15 16 16 15 15 15 15 16 16 17 19 20 20 20 21 22 23 22 23 22 22 24 25 25
25 25 25 28 27 27 26 24 22 23 23 21 20 16 14 15 17 16 16 16 16 16 15 16 17 16 16 18 18 20 20 21 21 21 21 22 23 23 23 24 24 23 23
22 23 23 25 26 25 24 28 28 23 21 21 20 17 16 17 18 18 18 17 16 16 16 17 18 19 18 18 18 18 20 22 22 21 22 24 25 25 25 25 25 24 23
19 21 21 22 24 24 24 24 27 25 21 21 18 17 18 18 17 17 17 16 17 17 17 18 19 20 20 20 18 18 20 20 21 22 22 24 26 26 27 27 26 26 28
15 17 19 20 22 22 23 22 24 23 20 18 20 18 18 17 17 18 17 17 18 19 19 19 19 20 20 21 21 21 21 21 23 23 23 25 28 31 33 33 32 31 30
14 15 17 18 20 20 20 20 22 23 23 23 19 17 19 18 18 18 17 18 18 19 20 21 20 20 21 22 21 21 22 22 21 20 22 27 28 27 27 29 30 33 34

GFSGL_925_spd_057.txt.gz
Wind_Speed
5 5 5 5 5 5 5 5 4 3 2 2 2 1 2 2 2 3 4 5 5 4 3 2 2 2 2 2 1 1 0 2 3 2 3 5 8 9 8 7 6 7 7
5 5 6 6 6 7 7 6 4 3 2 1 0 1 2 3 5 6 7 8 8 7 6 5 3 1 1 0 1 1 0 1 2 2 2 5 5 7 6 4 4 4 4
6 7 7 7 7 7 6 6 4 3 2 2 2 2 3 4 6 8 8 9 9 9 9 8 6 4 5 4 4 4 4 3 1 0 1 4 3 6 4 4 4 4 5
7 8 8 8 7 6 5 5 5 6 5 4 3 3 4 5 7 8 10 11 13 13 13 12 11 10 9 8 8 7 5 4 3 3 2 2 3 4 6 7 7 7 7
9 8 7 7 7 6 4 5 6 7 6 7 7 8 7 7 8 12 14 14 14 14 13 13 14 14 12 10 8 7 5 4 3 3 2 2 3 4 5 5 4 5 4
10 10 9 9 8 7 7 7 7 7 8 10 10 11 11 11 11 11 14 14 13 12 13 10 8 6 6 6 5 8 8 5 4 2 2 2 2 3 4 5 4 4 2
12 12 11 10 9 9 9 10 10 11 12 13 13 12 12 12 12 12 14 14 13 12 12 10 8 7 5 5 5 3 4 5 4 3 3 2 2 2 3 3 4 3 3
14 13 11 10 9 10 11 12 13 13 13 13 13 13 13 12 11 12 11 11 11 11 10 8 7 7 6 5 4 4 4 6 6 5 5 3 2 3 2 4 4 6 7
14 13 12 11 11 12 13 14 14 14 14 13 13 13 14 13 9 9 9 8 8 7 5 5 5 6 3 3 4 4 2 2 2 0 2 3 4 5 5 7 5 5 5
16 14 13 12 13 14 15 15 15 15 14 12 12 12 11 11 7 6 6 6 6 4 3 3 2 2 1 2 3 3 2 1 1 3 4 4 5 4 5 5 4 2 2
15 13 13 14 15 15 16 15 16 15 14 14 13 11 10 8 8 5 4 3 4 3 1 1 1 0 1 1 3 3 3 2 3 5 4 2 2 1 1 1 2 2 3
15 15 15 15 15 16 17 16 16 15 15 13 12 9 8 7 6 6 4 0 1 0 3 3 1 2 3 3 4 2 2 4 4 3 3 2 2 2 4 5 6 7 8
16 17 17 17 17 17 17 18 16 15 14 12 10 9 7 7 7 7 5 4 4 4 4 3 3 4 4 4 2 2 5 5 4 3 3 4 4 6 7 7 8 9 11
18 18 18 19 17 17 17 15 15 15 13 11 10 10 9 8 9 8 8 7 6 5 5 6 5 6 4 3 4 6 6 5 5 5 5 6 7 7 6 5 7 9 10
19 19 19 19 17 17 17 18 17 14 12 12 12 11 11 10 9 8 8 7 5 4 6 7 7 7 5 5 5 5 5 6 6 7 8 7 7 6 7 7 10 10 11
21 21 22 22 22 19 17 16 15 14 13 13 12 11 11 10 7 6 7 8 7 6 9 9 9 8 7 7 7 7 8 7 8 9 10 11 11 11 10 10 10 10 12
25 25 24 22 22 22 20 19 18 15 15 15 15 14 12 10 9 9 9 9 8 8 12 12 12 10 9 9 9 10 11 9 10 11 12 13 14 15 13 12 13 13 15
25 26 26 27 26 25 24 22 21 19 19 18 17 15 14 13 12 11 10 10 12 11 14 16 16 14 12 11 11 12 12 12 13 13 14 15 15 16 15 14 13 14 15
27 27 27 26 26 26 25 24 23 22 21 20 16 17 17 16 15 15 13 17 17 16 16 16 16 15 14 13 13 14 14 14 15 16 16 16 16 17 19 19 19 17 17
26 27 27 27 27 27 26 25 24 23 23 23 22 21 16 15 18 19 19 19 19 19 17 17 15 14 14 14 14 15 16 16 17 18 18 18 18 18 19 20 18 16 16
25 24 22 23 26 27 27 28 26 24 24 24 25 22 19 20 20 20 19 19 19 18 18 17 16 14 14 14 15 16 18 19 19 18 19 19 18 19 18 19 19 18 18
22 23 23 25 25 26 28 28 27 24 24 25 22 20 18 19 20 20 19 19 18 18 17 17 16 15 14 15 16 18 20 20 19 18 18 19 19 19 19 18 18 18 17
18 19 20 21 23 21 20 22 24 26 24 28 28 21 18 20 22 22 21 19 18 18 17 16 17 16 15 16 17 18 20 21 20 19 20 21 21 20 20 19 19 18 18
14 16 17 18 18 19 20 22 24 25 26 25 26 25 23 21 22 20 20 18 17 17 16 17 17 17 17 17 18 19 20 20 20 21 22 23 24 24 22 22 22 24 25
9 11 13 15 16 17 18 19 21 22 22 23 23 24 25 23 18 20 19 17 16 17 17 17 17 17 18 19 20 20 20 19 21 22 22 22 25 27 29 31 30 27 27
7 10 11 11 13 15 16 17 19 20 20 21 22 22 23 22 19 18 18 16 17 17 17 17 17 17 18 19 20 20 20 20 19 19 21 25 27 27 26 26 28 29 30

GFSGL_925_spd_060.txt.gz
Wind_Speed
6 4 4 4 4 5 5 5 5 6 5 5 5 5 4 3 3 0 4 6 5 3 3 3 2 2 2 2 3 3 2 3 3 3 4 6 6 8 9 8 6 3 2
6 5 4 4 4 5 5 5 5 4 4 5 5 4 3 3 1 2 3 4 4 5 4 4 3 2 2 2 2 2 1 2 3 4 2 3 4 7 6 5 4 3 3
7 6 5 5 5 6 6 5 4 4 3 3 2 2 3 3 2 3 4 5 5 5 5 5 4 4 4 4 4 3 2 2 1 1 1 2 3 6 4 4 4 4 5
7 7 7 7 6 6 5 4 4 4 3 2 2 1 2 3 3 4 5 7 7 7 7 8 7 7 6 6 5 4 3 2 2 2 2 0 1 3 3 4 3 5 5
8 7 7 7 7 6 4 4 4 4 4 3 3 2 3 3 5 7 7 9 9 9 9 10 11 11 9 6 5 4 3 2 1 1 2 2 1 1 2 4 5 5 3
10 9 8 9 8 8 8 7 6 6 6 6 5 4 4 5 7 9 9 9 9 8 8 8 7 5 5 4 5 5 4 1 1 2 2 2 2 2 2 3 5 5 3
11 10 10 10 9 8 9 10 9 9 9 8 7 6 6 7 8 10 11 10 10 10 9 7 5 4 2 2 2 1 4 4 3 0 1 1 2 2 2 3 3 4 5
11 11 11 11 10 9 10 11 11 11 10 11 9 8 7 7 9 10 10 11 11 10 8 6 4 4 3 3 2 2 1 3 3 3 2 0 1 2 3 3 5 7 8
14 14 13 12 12 11 12 13 14 14 12 11 11 10 11 10 9 9 8 8 8 7 5 3 3 3 1 2 2 1 1 2 2 3 4 5 6 7 6 6 6 5 5
16 14 12 12 12 14 15 16 15 14 12 10 12 12 10 9 7 6 6 5 4 4 4 3 3 2 2 2 1 2 3 3 3 3 4 6 5 4 5 3 3 4 3
14 13 13 13 14 16 16 16 15 15 12 11 11 11 10 8 7 7 5 4 3 5 5 5 4 4 3 2 3 2 4 3 4 4 4 3 2 1 1 1 2 3 4
15 14 13 14 15 16 17 17 16 15 13 10 10 8 8 8 9 8 7 5 6 5 5 5 4 3 4 4 5 4 5 5 5 5 4 4 4 4 4 5 6 6 7
14 14 14 16 16 17 17 17 16 14 12 12 11 11 10 11 11 12 9 9 8 6 5 6 5 4 4 5 6 5 6 5 5 6 6 5 5 5 7 7 8 8 9
15 14 15 17 17 17 18 17 16 15 15 13 13 12 11 11 12 13 13 11 10 8 7 6 6 5 5 5 6 7 6 6 7 7 7 6 6 6 6 5 6 7 9
15 15 17 19 17 17 17 19 16 15 16 15 15 13 13 12 15 14 14 12 9 8 6 6 6 6 6 6 7 7 7 7 8 8 8 8 7 7 7 7 8 9 11
19 16 17 17 18 16 16 15 18 16 18 18 16 15 15 15 11 12 13 12 9 8 8 9 9 7 7 8 8 8 8 9 9 9 9 9 9 9 9 9 10 11 13
20 22 19 19 19 17 18 16 15 17 19 18 19 18 16 13 14 13 11 11 12 11 13 12 10 9 9 9 9 10 9 9 10 10 10 10 10 10 10 11 12 13 14
26 22 23 23 19 19 19 18 15 14 14 16 20 18 18 16 15 14 12 11 13 15 15 13 12 11 11 11 11 11 10 9 10 10 11 11 12 11 12 13 13 14 14
28 26 25 23 21 19 17 18 19 17 18 16 16 17 19 17 17 16 15 18 17 16 16 15 13 13 12 12 12 11 12 11 11 11 12 12 13 12 14 14 14 16 16
26 28 27 27 26 25 24 21 18 17 16 17 18 22 19 18 20 21 21 22 20 21 17 16 15 15 15 14 14 13 12 13 13 14 13 13 13 13 15 15 15 16 16
20 19 22 22 24 26 26 27 25 24 23 22 24 23 24 24 24 24 24 25 26 25 21 19 17 17 16 16 16 16 16 15 14 15 14 14 13 14 14 15 16 16 17
20 20 21 22 22 22 24 25 24 25 24 22 23 25 22 19 20 25 24 21 24 23 21 19 19 18 18 18 18 18 18 18 16 15 14 15 14 14 14 15 16 17 18
18 19 19 20 21 20 18 20 21 21 22 24 24 23 27 28 22 24 24 21 23 20 19 19 20 20 19 19 19 20 21 21 18 16 16 15 15 15 15 16 17 17 18
11 14 15 16 16 17 17 18 20 22 23 22 24 25 25 27 23 22 25 21 18 19 19 19 20 20 19 19 20 21 22 21 21 21 20 21 19 17 17 19 20 20 21
6 8 11 12 11 11 12 14 14 14 17 19 17 18 21 24 24 22 24 21 20 19 18 18 19 20 20 21 21 21 21 21 22 22 22 22 23 23 23 23 23 23 23
3 5 7 7 8 10 11 10 11 12 12 13 14 16 19 20 21 22 21 19 16 18 16 20 20 20 21 21 21 20 21 21 22 20 21 24 28 29 26 25 25 26 26

GFSGL_925_spd_066.txt.gz
Wind_Speed
17 16 15 11 13 12 10 11 10 9 9 7 7 7 7 7 5 3 5 7 7 8 7 7 5 3 4 4 2 3 4 4 2 2 2 2 2 3 6 5 4 3 2
16 15 14 11 9 9 9 9 8 6 8 8 7 6 6 6 5 3 3 2 5 4 3 4 4 4 5 5 1 2 3 2 3 4 4 1 4 4 5 3 4 4 4
14 14 11 9 9 8 8 8 8 8 7 6 5 5 7 7 6 6 4 4 5 6 6 6 5 5 5 5 6 5 3 2 3 3 3 1 3 6 3 4 3 9 8
15 13 13 11 9 10 9 8 7 7 7 5 6 6 6 6 6 6 7 7 6 6 5 6 7 6 4 3 3 4 4 4 5 5 3 2 1 4 3 5 5 4 4
15 14 12 12 10 9 7 7 7 7 6 8 8 6 6 5 5 5 6 7 6 6 4 4 4 6 7 7 7 6 4 4 5 4 3 3 1 2 2 3 3 4 1
16 14 12 10 8 8 7 8 8 7 8 8 6 5 4 4 5 6 7 8 9 9 9 9 7 5 6 7 7 6 5 5 4 4 4 5 4 3 3 1 3 3 1
17 14 14 11 10 9 7 7 7 8 8 8 6 6 5 4 5 7 8 10 11 11 11 9 6 5 3 4 5 6 7 6 4 2 2 4 4 1 2 1 1 2 3
19 17 17 15 15 13 11 11 11 10 9 9 7 6 6 5 6 8 9 9 10 9 9 7 4 4 4 4 3 3 5 3 3 2 3 3 2 2 2 1 3 5 6
22 20 19 18 17 15 13 14 12 10 10 10 8 9 7 6 7 8 9 10 10 8 7 6 3 2 2 3 2 2 4 0 2 0 2 3 4 5 6 6 4 4 2
21 19 18 18 16 14 13 13 12 12 12 10 10 10 9 10 10 7 7 6 7 5 5 4 6 4 2 1 3 1 2 2 2 2 3 3 3 2 3 4 5 4 2
17 17 18 17 14 14 14 14 13 13 13 12 11 11 12 11 10 8 9 7 5 5 4 4 4 3 3 3 2 2 2 2 3 3 3 2 3 3 2 3 4 6 6
17 18 17 15 14 15 16 15 15 15 16 14 12 12 12 11 9 10 9 8 6 6 6 5 5 5 5 5 5 4 3 4 5 4 4 4 5 4 6 8 7 6 8
16 17 16 14 15 15 17 17 17 17 17 15 13 13 13 13 12 11 11 9 7 8 6 5 6 6 6 6 7 7 6 7 5 5 6 6 7 9 9 10 11 8 8
17 17 15 16 16 15 16 17 18 19 17 15 15 15 14 14 15 13 14 12 11 10 8 7 8 7 7 6 7 7 9 9 7 8 8 7 8 10 9 7 7 7 10
17 17 17 17 16 17 17 18 20 19 20 19 19 18 18 16 16 14 14 14 14 14 11 10 9 10 11 10 10 9 8 8 10 11 11 10 11 11 10 8 9 10 13
18 19 20 20 18 17 18 16 14 15 15 15 12 16 16 15 12 12 12 12 12 12 14 15 13 12 13 12 11 11 11 10 12 12 12 13 15 13 12 12 12 14 16
21 19 19 19 19 20 19 18 15 14 15 15 19 19 17 17 16 15 13 15 15 15 18 17 16 15 14 14 14 14 15 15 14 15 16 17 16 15 14 14 16 17 19
22 21 22 21 20 21 21 20 17 15 17 21 22 21 22 20 18 16 14 13 16 19 21 20 20 18 16 17 16 17 16 16 16 17 18 19 18 18 18 19 18 19 19
22 22 23 23 23 22 21 20 19 19 18 17 16 18 23 20 17 16 15 20 22 22 24 24 23 21 20 19 18 18 17 18 18 19 19 18 17 18 20 20 20 16 16
19 23 22 23 23 22 22 21 20 20 19 20 21 20 16 15 20 22 24 25 26 26 25 24 23 22 20 19 19 19 18 18 19 19 20 20 21 21 21 21 19 19 19
20 20 21 22 23 24 23 23 22 22 21 22 24 25 23 25 25 26 28 30 31 30 28 26 25 22 18 18 19 18 19 20 19 20 20 20 20 20 20 20 18 17 18
19 21 21 23 23 22 23 23 22 23 23 22 21 22 19 22 25 27 29 30 31 31 31 29 27 26 23 18 21 19 21 20 20 20 21 21 22 22 21 20 20 19 19
16 18 22 21 23 22 20 22 23 23 23 23 23 22 22 26 28 28 27 27 28 29 27 27 25 24 20 20 17 19 20 18 18 20 19 20 22 22 21 21 21 20 20
10 12 17 18 20 20 20 20 21 21 21 21 21 21 22 23 24 26 28 29 28 25 26 27 26 26 22 18 19 19 16 19 19 18 20 22 23 21 20 21 23 24 24
6 7 10 14 15 15 17 17 17 17 17 17 17 17 17 18 19 20 20 22 23 24 27 24 24 24 21 21 17 18 17 16 17 21 21 22 23 24 24 22 24 24 25
4 4 6 6 7 9 10 11 11 12 13 13 14 13 13 15 15 16 17 18 19 21 22 21 21 21 20 20 20 19 16 19 21 19 20 21 23 25 24 25 25 25 25

GFSGL_925_spd_072.txt.gz
Wind_Speed
14 14 15 16 18 17 16 14 14 16 15 14 14 13 11 9 10 11 11 11 12 13 13 13 13 11 11 11 7 6 7 8 3 3 6 11 10 6 3 3 7 6 2
14 15 16 16 14 14 14 14 14 14 12 11 12 12 10 9 9 10 11 11 12 11 12 12 12 10 11 11 9 7 6 5 2 4 9 9 7 5 3 5 4 2 2
15 16 17 16 14 14 14 14 13 11 10 11 11 12 10 10 10 9 9 10 10 10 10 10 12 10 11 10 9 9 7 8 5 6 7 8 5 4 3 5 5 4 4
16 17 17 15 14 13 13 13 12 10 11 12 11 11 10 10 10 9 9 9 9 9 10 10 12 11 12 10 7 6 7 7 6 6 5 5 4 4 2 4 6 5 4
16 16 16 15 14 14 14 14 13 11 11 11 11 11 9 9 9 10 9 9 9 9 9 9 7 5 6 7 6 6 8 7 6 8 5 3 5 5 6 7 7 5 5
20 19 17 16 16 16 15 14 13 12 12 12 12 10 10 9 10 10 10 11 12 12 9 8 6 6 5 4 5 5 7 8 9 9 8 6 7 7 7 7 5 4 3
24 22 21 19 19 18 16 15 14 13 12 12 11 11 10 10 9 8 8 10 12 11 10 10 9 8 6 6 6 6 2 5 9 10 10 8 8 8 8 7 6 5 3
27 26 23 22 21 19 17 16 14 13 14 13 12 11 11 10 7 8 9 10 11 11 11 11 9 8 8 7 5 6 4 3 3 3 5 6 5 6 6 5 5 4 3
31 30 27 25 23 21 19 18 16 14 14 14 12 12 12 10 10 9 10 11 12 12 12 12 9 8 6 6 7 6 6 4 3 2 3 3 3 3 5 5 5 4 3
33 33 28 25 25 24 22 19 18 15 15 13 13 13 13 12 10 9 11 13 14 15 14 12 10 9 8 7 7 6 7 6 6 4 4 4 3 4 6 6 7 7 4
28 27 23 23 24 24 21 20 18 14 14 14 15 14 14 13 12 11 11 12 14 14 14 13 11 9 9 7 6 6 6 6 7 5 5 4 4 5 4 3 4 5 6
18 19 21 21 23 22 21 19 15 15 16 18 17 16 16 15 14 14 14 12 12 14 15 12 11 11 10 9 7 5 6 6 7 6 5 5 6 6 5 4 3 4 4
13 16 18 19 21 21 21 18 16 18 19 19 19 19 19 18 17 17 16 15 13 14 12 12 11 11 10 9 9 8 9 10 7 7 7 6 5 5 5 7 6 7 8
13 15 16 19 20 19 19 17 19 21 21 19 18 18 20 20 20 21 18 17 16 14 11 11 11 12 12 11 10 10 12 12 11 10 9 7 7 8 7 6 7 7 8
15 15 17 20 21 21 21 21 22 24 25 24 24 23 20 22 23 23 23 22 21 19 14 13 14 14 14 14 13 12 12 12 13 11 10 9 8 8 8 8 9 8 8
17 17 19 21 22 23 21 21 21 22 22 22 21 22 23 21 17 19 21 21 20 18 18 19 20 18 18 17 17 16 14 14 14 13 14 13 12 11 9 9 10 12 12
21 20 20 22 23 22 22 21 16 21 20 20 21 21 19 19 18 17 18 18 18 18 22 23 24 22 21 20 18 17 17 15 13 14 14 15 13 12 11 12 12 12 13
24 24 23 24 24 23 23 22 21 17 16 21 21 21 20 18 17 18 18 16 18 21 25 22 26 25 22 21 19 18 16 16 16 15 17 16 15 14 13 14 14 15 15
21 22 22 24 24 24 23 22 22 20 19 17 19 18 21 20 17 17 18 22 23 23 25 27 27 25 24 22 21 19 18 18 17 17 18 17 16 16 16 16 14 12 12
18 20 20 23 23 22 22 21 20 20 19 20 20 22 22 19 22 23 24 26 28 27 27 28 28 28 27 24 22 21 20 19 20 19 19 18 16 17 18 17 14 14 16
18 17 17 21 22 22 21 21 20 19 19 20 23 23 22 24 25 26 27 29 31 30 29 27 28 29 27 25 25 24 24 24 22 20 20 18 17 18 17 16 17 17 17
16 17 17 19 22 22 22 21 21 21 21 20 21 23 21 22 26 26 26 28 29 30 30 30 30 29 28 27 26 24 26 25 22 21 20 19 18 16 16 18 17 17 17
16 17 17 17 19 22 20 20 20 21 21 22 21 21 21 25 27 27 27 28 28 26 25 24 25 26 26 26 25 26 25 26 24 19 20 19 18 18 20 19 18 18 17
16 17 17 17 17 19 19 19 21 22 21 21 21 21 21 21 23 23 23 22 21 20 19 20 22 23 23 23 22 22 21 19 20 18 18 17 18 18 18 19 18 18 19
14 16 17 16 14 15 17 18 19 20 20 20 20 18 17 17 16 16 16 15 15 15 16 16 16 17 18 18 18 19 20 20 21 19 18 19 19 19 20 20 20 19 19
14 16 16 15 12 9 12 15 17 16 17 16 15 14 13 12 11 10 10 10 11 12 13 13 12 12 12 13 14 15 17 18 18 18 18 19 19 19 20 21 20 20 21

GFSGL_925_spd_075.txt.gz
Wind_Speed
11 11 12 11 11 12 15 16 14 12 13 14 13 12 11 12 12 13 14 14 14 14 13 13 13 13 12 11 9 10 8 8 5 4 6 10 13 11 8 5 4 5 8
8 10 11 11 11 11 11 11 11 13 14 13 12 10 10 11 12 13 13 14 14 14 13 13 13 11 11 11 10 10 9 7 3 4 6 12 8 9 6 4 3 7 5
9 10 12 13 13 12 11 11 12 13 11 10 9 9 10 11 11 11 12 12 13 13 11 11 9 9 9 9 8 8 7 6 4 5 7 12 7 9 7 5 5 5 5
11 12 14 14 13 12 12 12 12 12 11 11 10 10 10 10 10 10 10 11 11 10 9 8 10 11 11 10 9 9 7 7 9 6 7 7 7 8 6 5 5 5 6
12 14 15 13 12 12 12 13 12 12 11 11 10 10 9 9 8 8 10 11 10 11 9 9 10 9 9 8 8 10 10 11 8 9 6 6 7 6 7 6 8 7 6
16 18 15 15 14 14 14 14 13 11 10 10 9 9 9 9 9 9 11 11 13 13 12 10 9 7 7 7 9 9 8 7 8 8 7 5 6 5 7 8 7 5 3
22 20 19 18 17 17 16 16 15 13 10 10 10 10 10 10 10 10 10 10 11 13 12 10 8 7 6 6 5 6 6 8 9 10 10 9 8 8 9 8 8 6 3
17 23 21 20 20 18 18 17 15 13 12 11 11 11 11 10 9 9 9 10 10 11 11 10 9 8 7 7 5 5 3 2 2 5 7 7 5 7 7 6 7 6 4
18 23 27 24 22 21 20 19 17 14 13 11 11 11 11 10 9 9 11 9 10 11 11 10 9 9 8 7 7 6 5 3 3 4 5 5 4 5 4 5 6 6 3
19 21 26 27 25 25 24 21 19 17 13 10 11 11 11 12 10 10 12 12 12 12 11 11 10 7 6 5 6 7 7 6 5 4 5 5 4 4 4 5 6 7 4
17 15 18 22 24 24 23 22 20 17 14 11 12 11 12 13 12 11 12 11 13 14 13 13 11 9 9 7 6 7 7 5 7 6 5 4 4 4 4 3 4 5 5
14 12 15 18 21 22 22 21 19 17 13 13 13 14 14 15 14 13 12 11 10 12 13 11 10 9 10 8 8 5 4 6 7 6 4 4 5 6 5 5 4 3 3
14 10 11 14 16 18 22 22 19 17 14 16 17 17 18 18 17 16 15 14 12 13 11 11 10 11 10 10 9 9 8 10 7 8 8 7 7 6 8 8 6 5 5
15 11 10 12 15 17 19 20 21 20 17 18 18 18 20 20 20 19 18 17 16 15 12 10 10 11 12 12 11 10 12 12 12 10 10 8 8 9 9 8 7 6 7
17 13 12 12 14 17 20 22 23 22 20 22 22 23 20 20 24 21 23 23 22 19 15 11 12 14 15 14 13 13 13 13 14 13 11 11 10 10 10 11 9 8 7
21 18 16 15 16 18 20 21 21 20 19 19 19 21 22 21 18 17 19 22 21 18 17 18 18 19 18 18 17 16 16 15 16 15 15 14 13 13 12 12 11 11 12
20 21 21 18 18 20 21 20 16 19 18 18 19 21 20 18 18 16 15 19 20 18 22 20 23 23 23 22 20 19 19 18 15 15 15 16 16 15 13 14 14 13 13
21 21 22 23 22 22 23 22 21 16 14 19 22 20 21 20 18 17 16 16 19 22 23 21 25 26 26 24 22 21 20 17 17 17 17 18 17 18 18 18 17 16 15
20 18 18 21 23 23 22 22 22 20 19 17 18 17 21 21 20 19 18 22 22 24 26 26 28 27 25 23 22 21 20 19 19 19 19 19 19 19 21 19 17 15 14
19 17 17 18 20 20 21 21 19 19 19 18 19 21 19 19 20 22 22 25 25 25 28 29 29 28 26 24 23 22 22 21 22 21 20 20 20 20 20 19 18 17 17
20 19 17 16 19 20 20 20 20 19 19 19 22 22 21 24 24 24 27 28 28 28 26 29 28 27 25 25 24 23 24 24 24 23 21 20 20 20 19 18 18 18 17
19 19 17 15 15 18 20 21 21 21 20 20 21 22 20 23 26 26 28 30 32 32 29 28 28 26 26 27 25 26 26 26 26 23 24 23 20 19 17 19 19 19 19
19 17 17 17 16 17 18 19 20 21 21 22 22 21 21 24 27 28 30 30 30 29 28 28 29 30 29 27 25 25 26 27 25 24 23 23 20 19 18 19 19 20 19
17 17 17 16 15 15 17 18 20 22 21 22 22 22 22 23 27 28 28 27 26 25 25 25 25 25 24 23 22 21 21 20 22 19 18 18 17 17 17 20 20 19 18
16 16 15 16 15 14 15 17 19 20 21 22 22 22 21 21 21 22 23 22 21 20 20 19 20 20 20 20 20 19 18 18 18 17 18 17 18 18 19 19 18 17 17
15 19 19 19 16 15 14 15 17 19 20 21 21 20 19 18 18 17 17 16 16 16 15 15 15 16 15 16 16 15 14 14 16 16 16 16 17 17 17 17 17 18 18

GFSGL_925_spd_078.txt.gz
Wind_Speed
10 9 9 9 9 9 9 9 10 13 15 14 13 13 13 9 8 8 6 6 7 8 9 10 11 11 11 10 10 10 10 11 6 5 8 10 13 13 11 10 7 5 5
10 8 8 8 8 7 7 8 9 11 11 13 15 13 10 9 7 6 6 5 6 7 9 10 11 10 9 9 9 11 10 9 5 3 6 9 11 11 9 8 6 5 6
11 9 8 8 8 8 9 9 10 12 13 13 13 12 11 8 7 5 5 5 7 8 9 9 9 8 7 8 8 8 9 8 7 6 7 8 10 12 11 9 8 5 5
10 8 8 8 9 8 8 8 10 11 11 11 10 9 7 6 5 4 4 5 6 7 7 7 6 8 10 11 11 10 10 9 8 6 7 8 10 9 11 9 7 7 8
14 12 10 9 10 10 10 10 11 11 11 11 10 9 7 6 4 3 3 6 7 7 9 8 8 9 10 9 9 9 9 9 9 9 8 7 7 7 10 7 8 8 8
18 16 14 14 14 14 14 14 14 13 12 11 10 9 7 6 5 5 5 5 5 8 10 10 8 7 7 7 7 10 10 9 10 10 10 7 9 8 8 8 8 6 3
20 18 19 18 19 18 16 16 16 15 13 12 10 9 8 7 6 6 5 6 7 6 8 10 9 7 6 5 6 5 5 7 8 9 8 9 7 9 8 9 9 6 3
23 20 18 22 22 19 19 19 18 17 15 14 12 10 9 8 7 7 5 6 7 7 8 9 9 8 6 6 5 4 3 1 3 8 9 10 7 7 7 7 7 6 4
24 21 18 19 23 23 23 22 20 18 17 16 13 12 11 9 8 6 9 7 6 7 8 10 10 9 7 8 7 6 4 2 1 2 4 4 4 5 4 5 6 6 3
25 25 20 17 23 26 26 24 22 20 17 15 13 12 11 10 9 9 11 9 8 8 9 10 10 8 8 8 7 7 7 6 6 4 5 5 5 4 4 5 6 7 4
25 23 20 15 19 26 26 23 23 20 17 16 12 11 12 12 11 12 12 12 11 10 13 12 11 10 9 8 8 6 6 6 8 7 5 5 5 6 4 4 5 7 7
26 22 19 15 15 19 22 22 22 21 20 17 13 13 13 13 13 14 13 14 10 11 13 12 12 11 11 11 9 5 6 7 9 8 7 7 7 6 5 5 5 5 5
27 23 19 15 13 14 18 22 22 23 21 18 16 16 16 16 17 15 14 15 12 12 11 10 11 11 11 12 11 9 7 9 8 9 8 7 6 5 7 8 7 5 6
22 24 20 15 12 12 16 20 23 23 20 19 18 17 18 19 19 19 18 16 16 14 12 10 11 12 13 14 13 11 11 12 12 10 8 6 6 7 8 9 9 7 8
20 20 19 16 14 14 16 20 24 25 25 23 21 19 19 20 23 21 21 22 22 20 16 13 14 14 15 16 15 14 14 13 14 13 11 9 8 8 9 10 9 8 8
21 18 17 17 16 17 17 19 19 21 19 19 17 17 19 20 17 14 15 18 21 20 19 20 19 18 19 20 18 15 15 14 15 14 14 12 11 11 10 11 12 12 13
20 20 19 18 17 18 18 18 15 21 18 18 18 18 17 16 16 15 14 16 19 20 23 22 23 22 22 22 20 18 17 17 15 16 16 15 14 13 13 13 14 14 15
22 21 20 19 18 17 20 20 20 16 15 20 20 20 20 20 17 15 16 15 19 23 22 20 21 23 25 23 21 20 19 17 17 17 18 17 16 16 16 18 17 17 17
20 20 20 20 19 18 19 20 20 20 19 18 17 16 21 19 19 19 17 22 21 21 22 24 26 26 24 22 21 19 19 19 18 18 18 18 17 18 19 19 19 17 16
19 18 20 20 19 19 18 18 17 18 17 17 18 21 18 17 20 22 23 24 24 24 26 26 28 28 25 22 20 19 19 19 19 19 20 20 19 19 19 20 20 20 21
17 19 20 20 17 17 18 17 18 17 17 17 20 22 21 20 21 23 26 28 28 28 27 28 27 27 25 23 22 20 20 21 21 21 22 22 20 20 20 20 20 19 19
19 18 18 18 18 18 16 18 18 18 19 19 19 21 18 20 23 25 26 28 29 29 29 28 28 27 25 24 23 21 23 25 24 24 23 24 23 22 20 20 20 19 20
19 18 18 18 18 19 18 17 17 18 19 20 19 19 19 22 24 26 27 27 26 27 27 27 26 25 24 23 23 24 25 26 26 22 23 25 25 24 23 23 21 20 19
20 19 18 18 17 16 16 16 16 18 20 19 19 21 22 22 24 27 27 26 26 25 26 27 27 27 26 24 24 23 22 21 20 20 20 22 25 23 22 21 20 19 18
21 21 19 14 15 16 17 17 16 16 17 19 20 21 22 22 22 24 25 24 24 23 23 23 23 22 20 20 20 19 17 16 16 15 15 18 18 19 19 17 16 17 16
17 15 18 18 17 16 16 16 16 15 15 18 20 20 21 20 20 20 20 20 20 19 19 18 18 17 16 16 16 16 16 15 15 15 15 16 16 15 15 15 15 15 15

GFSGL_925_spd_081.txt.gz
Wind_Speed
12 9 6 4 3 3 4 5 6 9 12 15 18 20 19 18 15 14 13 10 9 9 8 8 8 8 8 9 10 11 11 12 10 7 9 12 12 13 12 11 10 9 7
12 9 8 7 4 3 4 5 7 8 11 14 17 18 18 18 16 13 11 10 9 8 7 7 7 8 7 8 9 11 11 12 9 6 6 7 10 12 12 10 9 8 5
13 11 7 5 5 5 4 6 7 9 13 16 18 19 19 17 15 12 10 8 7 6 6 6 7 6 7 6 7 8 9 10 10 8 6 7 9 11 12 11 10 7 4
18 14 11 6 5 5 6 8 10 13 15 18 18 18 17 14 12 11 10 8 5 5 4 3 4 5 5 7 9 10 10 10 10 9 8 8 9 9 12 12 9 8 6
21 19 16 12 7 6 7 8 10 11 13 14 15 15 14 13 12 10 7 5 2 1 4 5 5 5 7 8 9 9 9 10 10 9 7 6 7 7 10 9 9 7 6
23 22 20 15 13 11 10 10 11 13 14 15 14 13 12 11 9 9 8 6 5 4 4 7 8 7 6 7 8 8 9 10 11 10 11 8 11 9 9 9 7 5 3
22 23 22 17 16 16 14 14 13 14 14 15 14 13 13 13 12 11 9 9 8 7 6 5 9 9 8 7 6 5 6 8 9 10 10 10 8 10 9 10 9 6 4
21 21 20 19 16 17 17 19 18 18 18 17 16 15 14 12 12 11 10 9 8 8 8 8 10 10 9 8 7 6 6 5 6 9 10 10 10 9 10 9 9 8 7
19 22 22 20 18 16 21 21 20 19 19 19 18 16 15 14 14 13 12 11 9 8 9 11 12 12 10 9 9 8 7 5 3 2 3 7 8 8 8 9 10 9 5
22 26 23 21 18 17 22 24 23 22 22 18 17 17 15 14 15 15 16 13 11 10 10 11 12 12 11 11 10 10 9 9 8 7 6 6 6 6 7 7 8 9 4
25 26 24 21 18 16 17 23 24 24 21 20 20 18 17 17 16 16 17 16 15 13 14 14 14 13 11 11 11 9 9 8 9 8 7 6 6 7 5 5 7 8 7
24 24 24 21 18 15 15 18 23 24 23 22 20 18 17 17 17 18 18 18 15 15 15 15 15 14 13 13 12 8 8 8 11 10 8 7 7 7 6 5 5 5 5
25 22 23 22 17 13 12 16 20 24 24 21 20 18 20 18 19 18 18 18 17 15 13 14 15 16 14 14 14 10 10 10 11 10 9 8 6 6 8 8 7 5 4
19 19 22 24 20 14 12 14 18 22 21 19 19 19 21 19 21 21 21 20 20 15 14 14 14 15 16 16 15 14 14 13 12 11 9 7 8 9 10 10 9 7 5
19 21 18 18 21 19 15 16 19 24 28 25 26 26 23 22 24 22 25 26 24 24 17 16 15 16 17 18 18 18 16 14 15 14 11 10 10 10 10 11 10 9 6
17 17 19 20 19 20 19 18 18 21 23 24 23 21 22 19 17 18 22 24 25 24 22 21 18 18 19 20 20 19 18 17 17 16 14 13 13 13 11 12 12 11 8
18 19 18 20 19 20 19 18 15 20 20 19 21 21 20 18 18 19 19 19 20 22 22 21 20 23 22 23 22 22 20 19 17 17 17 16 15 14 13 14 13 12 10
21 19 19 19 18 20 20 20 19 14 14 19 24 24 23 21 19 20 18 17 20 24 23 21 21 23 25 24 24 22 21 19 18 19 19 19 18 18 18 16 15 15 12
21 19 19 19 18 19 20 20 20 19 16 17 18 19 24 22 22 20 20 24 22 23 24 22 26 25 26 25 25 23 22 22 21 21 21 20 20 20 20 19 17 16 14
18 19 20 18 19 19 18 17 17 17 16 17 18 19 21 21 22 24 26 26 26 25 26 26 28 27 25 23 21 20 21 20 21 21 22 21 21 22 23 20 18 17 16
20 20 18 18 19 19 18 17 17 17 16 17 21 20 19 23 22 24 25 27 29 27 27 28 28 28 26 24 23 21 21 21 21 22 21 21 22 23 22 21 18 17 16
20 21 17 16 18 19 19 18 18 17 18 18 19 20 16 21 22 24 25 29 31 30 28 27 28 28 26 25 24 23 23 23 23 22 22 22 22 23 23 22 19 18 16
21 19 18 17 18 19 20 18 17 16 17 19 20 18 16 20 22 23 24 26 27 27 27 26 26 26 25 24 24 22 24 26 24 24 25 25 25 24 24 22 20 18 17
19 17 18 18 19 19 16 15 16 18 17 18 19 19 19 20 21 22 22 23 24 24 24 24 26 26 24 23 22 24 26 26 23 21 20 22 24 24 24 23 21 21 18
21 20 20 18 17 14 17 17 17 17 17 17 18 19 20 19 19 20 20 21 21 22 23 23 24 24 24 22 22 21 20 19 18 17 17 18 19 20 22 22 20 18 17
19 16 15 17 17 17 17 17 17 17 16 16 17 19 20 20 19 18 18 18 18 19 20 20 20 19 18 18 18 17 16 15 16 15 15 16 17 17 18 19 18 17 16

GFSGL_925_spd_084.txt.gz
Wind_Speed
10 7 5 3 2 3 5 7 9 12 14 17 19 23 22 20 20 19 18 18 18 16 15 12 11 10 7 8 8 9 10 11 11 8 10 10 10 10 10 11 10 10 9
12 10 8 5 4 2 4 6 7 6 10 13 17 20 20 20 20 21 22 21 18 16 14 13 11 10 10 9 9 10 11 10 11 9 9 9 9 9 10 10 10 9 8
14 13 11 10 8 5 3 4 6 8 9 12 15 18 21 23 22 21 20 19 17 14 14 13 11 10 10 9 9 10 9 11 11 7 5 7 9 8 9 10 10 9 8
15 14 12 11 10 8 6 4 4 6 8 11 13 16 18 20 21 19 17 16 14 13 12 11 10 10 10 10 10 10 9 9 9 8 8 7 8 7 9 11 11 11 9
14 13 13 13 11 10 8 6 6 7 9 11 14 15 17 17 17 19 18 14 12 11 9 9 10 10 11 9 9 11 10 10 8 8 6 5 6 6 8 9 11 10 10
15 15 14 13 11 10 10 10 10 10 11 11 13 14 15 17 18 18 16 14 12 11 10 8 8 11 12 13 13 12 10 9 8 8 7 7 8 8 10 10 9 6 4
13 13 12 13 12 10 11 12 14 14 14 15 13 13 16 15 19 18 16 12 13 12 12 12 11 13 13 10 9 9 9 9 10 9 9 9 8 11 10 10 11 8 5
14 14 13 13 13 11 11 15 15 15 17 19 18 17 15 15 19 19 18 14 16 15 15 13 14 14 14 13 10 8 5 5 7 8 8 7 9 7 9 8 7 6 4
15 15 15 15 15 13 12 14 16 16 17 20 20 20 19 17 21 20 18 16 13 13 12 13 12 14 14 13 11 9 6 5 5 5 7 9 11 11 9 7 7 7 5
16 19 19 19 17 16 14 12 15 17 22 19 21 22 21 19 21 21 20 16 14 10 9 11 15 14 14 13 12 11 10 9 8 6 4 4 5 6 8 6 6 7 4
15 17 18 17 18 18 17 13 13 15 17 19 20 20 20 20 17 20 20 16 13 13 10 11 12 15 16 16 14 11 10 9 9 7 6 5 5 6 4 6 6 7 5
15 16 17 17 17 17 16 15 14 13 15 16 16 16 20 17 18 20 20 20 19 15 12 11 12 18 17 15 15 10 11 10 9 9 8 7 7 7 6 6 6 6 6
16 16 16 19 18 16 15 14 14 13 15 16 17 16 16 19 17 20 20 21 22 20 13 13 14 16 16 14 15 12 12 10 10 10 10 8 7 7 9 7 6 5 4
16 16 17 16 17 17 17 16 14 16 17 17 18 19 19 22 24 23 23 24 25 23 19 15 14 16 15 14 15 16 13 12 11 10 9 8 8 9 8 8 6 6 4
15 16 16 15 16 18 17 19 19 21 21 20 23 23 20 20 31 30 28 29 26 29 21 16 15 15 16 16 16 16 15 14 12 10 10 10 9 9 8 8 7 7 5
16 16 17 18 17 17 18 21 19 20 23 23 24 26 28 30 26 26 26 28 29 24 21 20 18 18 18 18 18 18 17 16 14 13 12 12 11 11 10 10 9 8 7
16 18 19 19 19 19 18 18 20 22 20 20 22 26 27 26 26 22 22 26 26 24 22 22 21 21 20 19 19 19 19 18 19 18 17 16 16 13 13 10 10 9 9
17 18 18 19 19 18 18 19 19 18 18 16 20 23 26 26 22 21 22 22 23 27 24 23 23 23 22 20 20 20 18 17 21 20 19 19 18 17 14 13 12 11 10
16 16 16 17 19 18 19 21 20 20 19 18 18 20 24 27 26 22 23 24 23 24 26 24 24 23 24 22 21 23 22 22 23 22 21 21 21 20 16 15 14 14 11
18 18 18 19 19 15 17 19 20 18 19 17 17 19 18 20 22 24 25 26 24 24 24 26 25 27 26 25 23 24 24 22 23 23 23 22 22 22 21 18 15 13 14
17 18 18 20 19 15 18 18 19 20 18 19 19 22 22 22 21 23 24 27 26 26 27 28 26 28 27 26 25 24 24 24 24 24 24 23 23 22 21 21 18 15 12
17 17 18 19 18 14 19 19 19 20 19 18 19 21 20 22 24 23 24 26 28 31 31 30 29 29 29 28 27 26 26 25 25 24 24 23 22 22 21 19 16 15 13
17 18 19 19 17 19 20 19 19 18 17 17 20 19 20 21 23 24 24 26 27 30 31 30 28 27 27 27 27 26 27 27 27 24 24 23 22 23 22 19 19 16 16
18 19 19 19 19 19 19 19 17 16 20 19 19 19 20 22 23 24 24 24 26 28 27 28 27 26 25 25 26 25 23 23 22 22 21 21 23 24 24 20 19 20 17
21 19 18 20 18 16 16 16 20 20 19 18 18 18 18 21 21 22 22 23 23 23 24 24 24 24 24 23 24 24 25 24 25 24 24 23 22 22 23 20 19 17 17
14 17 16 14 15 16 18 19 18 17 18 18 18 18 18 20 20 20 20 19 19 21 21 22 22 22 21 22 22 22 21 21 21 21 20 21 21 20 19 18 19 16 16

GFSGL_925_spd_087.txt.gz
Wind_Speed
13 11 9 6 2 2 4 7 10 12 15 17 20 24 29 30 30 27 25 26 24 23 20 18 17 14 13 13 13 13 14 14 9 7 7 8 7 7 9 8 9 9 9
12 11 9 7 6 4 3 6 8 9 11 11 13 17 23 26 26 25 23 27 26 24 21 19 16 13 13 12 13 12 13 13 12 10 8 9 9 8 10 8 8 8 8
12 11 9 7 5 4 5 5 6 8 10 11 12 15 19 21 21 22 24 24 22 21 20 18 17 15 15 14 14 11 12 12 11 8 5 8 9 8 8 8 9 9 9
12 10 9 9 8 7 6 5 6 6 7 9 10 13 16 19 21 20 20 20 20 17 16 16 15 17 15 13 14 13 13 12 11 9 9 7 8 8 9 9 9 11 11
11 10 11 12 11 10 8 7 6 7 7 7 9 12 15 17 20 20 19 18 16 15 15 15 15 14 15 16 16 12 12 12 10 9 8 7 7 8 8 7 10 11 12
9 9 10 11 12 12 11 10 10 9 9 10 11 11 13 15 18 18 18 18 16 15 15 13 13 14 15 16 15 13 11 10 10 10 9 9 10 10 11 10 10 6 3
13 12 11 11 11 11 12 11 12 12 11 12 12 14 14 15 17 19 16 14 14 14 14 15 14 11 12 12 13 11 10 13 12 8 10 12 11 15 11 11 12 8 4
11 13 14 14 15 15 14 12 12 13 14 14 15 15 15 16 16 20 19 14 15 17 17 16 14 13 14 12 10 10 9 8 8 11 11 8 11 9 11 9 9 9 6
12 14 15 15 17 18 18 17 16 14 14 15 16 15 17 18 18 21 21 21 17 15 16 16 13 11 12 14 12 10 8 8 9 10 12 11 10 9 9 8 10 9 5
16 15 15 14 13 15 17 19 18 17 17 16 16 19 20 19 19 23 22 19 16 16 13 14 14 13 14 16 15 14 13 13 11 7 6 6 7 10 11 10 9 11 5
16 18 19 17 17 16 16 16 17 18 18 18 18 22 23 22 20 24 25 20 19 17 13 13 14 17 16 19 17 15 13 12 12 10 8 7 8 5 8 10 10 11 10
14 16 16 17 16 16 16 16 15 15 16 17 17 17 22 20 22 22 27 25 18 20 21 17 17 18 20 19 18 14 13 14 14 12 11 11 10 11 9 8 9 10 10
15 16 16 17 17 15 16 16 14 13 12 14 16 17 17 23 21 26 27 29 24 22 19 15 15 16 19 18 17 16 15 16 16 14 14 12 13 12 11 10 9 8 7
16 17 16 16 16 17 16 15 16 12 13 14 15 17 17 18 22 25 25 28 28 26 22 19 17 16 18 20 19 18 18 18 16 15 14 13 14 15 14 12 10 10 7
17 17 17 16 16 18 16 16 17 18 17 16 17 20 18 19 29 33 31 29 30 30 27 22 18 19 21 21 20 22 20 17 16 15 14 16 15 15 14 13 11 11 7
18 17 16 17 17 17 18 18 16 19 22 23 23 25 24 25 23 25 30 32 30 27 24 22 21 21 20 21 20 20 23 20 20 18 17 18 18 17 17 15 14 13 11
18 18 17 17 17 18 17 18 20 24 22 22 22 22 22 28 27 26 26 28 28 26 23 22 22 23 22 21 22 23 22 22 20 21 22 22 20 18 16 16 15 14 12
17 16 17 17 17 18 19 18 19 19 21 24 22 21 21 23 25 26 26 23 23 28 25 23 22 23 24 25 26 24 22 23 24 24 23 23 22 21 19 17 17 16 14
15 15 15 16 17 19 20 20 18 21 20 21 23 22 18 20 19 24 23 24 21 23 25 24 25 26 26 27 26 25 25 25 27 27 25 24 23 23 20 19 18 16 14
15 15 16 16 17 19 18 17 16 19 20 19 19 20 20 18 18 18 23 23 24 24 25 24 26 26 27 28 27 25 26 24 25 27 26 25 24 24 22 21 21 20 19
15 15 16 17 17 19 18 17 14 18 20 20 21 20 22 20 19 19 19 24 26 25 25 24 25 28 29 29 28 28 26 27 28 28 27 26 25 24 24 22 21 21 19
15 16 15 16 18 18 19 16 18 19 21 21 20 21 21 22 19 21 23 23 26 26 27 28 28 29 31 31 30 29 28 28 28 28 27 27 26 24 23 22 21 21 21
15 15 16 18 18 19 19 18 19 19 20 20 18 18 20 20 20 22 24 25 23 26 29 30 29 28 29 28 28 29 31 30 31 30 29 27 26 25 24 22 21 21 21
15 15 18 19 17 18 20 19 20 21 21 17 19 20 20 19 20 22 23 23 25 27 29 30 29 28 28 27 27 27 27 27 27 27 27 27 26 23 24 23 23 24 22
17 19 20 19 15 18 19 18 17 18 20 21 20 20 20 21 20 22 22 19 21 24 25 25 26 26 27 25 25 26 27 25 24 24 25 24 23 25 24 25 24 24 23
19 21 12 12 15 17 18 19 19 19 20 20 21 21 21 20 21 21 21 17 17 18 19 21 24 23 23 23 22 23 23 23 23 23 25 25 25 24 24 24 23 22 21

GFSGL_925_spd_090.txt.gz
Wind_Speed
12 10 8 7 4 2 0 4 9 11 11 14 20 23 23 29 31 31 31 29 29 31 27 29 27 24 23 20 17 17 17 16 8 7 6 9 8 7 7 6 7 9 9
14 12 11 10 9 8 5 5 7 9 10 15 16 16 19 24 29 32 33 30 30 28 29 29 27 24 21 18 16 16 17 17 14 9 10 11 9 8 7 6 7 9 9
13 11 11 10 9 9 8 8 7 9 10 11 12 17 18 21 24 27 29 30 27 29 28 28 28 25 21 18 16 17 17 15 15 14 9 10 11 10 9 9 10 11 9
12 11 10 12 12 13 11 11 11 11 10 9 12 13 16 19 21 23 23 24 24 24 24 23 23 22 21 19 20 19 17 15 14 15 13 11 11 10 11 11 11 10 10
13 12 12 14 14 14 14 12 12 13 12 11 12 14 15 17 19 21 21 21 23 22 21 20 19 18 16 16 17 17 15 14 14 14 11 9 10 10 11 9 10 9 9
14 16 17 17 16 15 14 15 12 13 15 14 14 15 15 17 18 19 20 21 22 21 21 19 18 17 16 17 15 16 15 17 16 16 17 13 16 13 12 11 9 6 2
11 11 13 15 16 16 16 16 16 15 16 17 17 16 18 16 17 19 20 20 20 20 19 18 18 16 16 15 15 15 14 13 16 19 17 17 15 16 14 11 12 9 6
11 12 13 14 16 16 17 17 17 17 16 18 18 18 19 19 19 18 20 18 19 19 18 19 18 16 14 14 15 15 15 16 16 15 14 13 14 12 13 12 11 12 8
6 10 12 14 16 16 17 17 17 17 17 17 20 19 20 21 21 19 22 21 21 20 19 19 18 17 15 16 16 16 14 13 11 11 12 12 12 13 11 11 13 15 6
10 13 12 11 11 12 14 17 18 18 20 19 20 20 20 21 22 22 23 26 24 22 21 21 19 19 17 21 21 18 18 17 13 11 11 13 13 12 11 14 15 16 6
19 18 17 16 15 14 15 15 16 19 19 20 20 20 21 21 23 24 25 28 29 26 24 22 23 22 18 20 21 22 18 14 14 11 11 11 10 12 13 13 14 16 18
18 20 20 19 17 17 16 17 16 15 16 16 17 19 19 24 25 27 27 31 30 28 27 24 22 23 23 23 22 18 15 15 17 16 15 14 14 12 11 12 12 13 15
16 18 19 20 20 18 18 18 17 15 15 14 14 15 15 20 21 23 26 29 27 27 26 24 22 21 22 22 23 20 18 19 21 20 19 18 16 16 13 12 11 10 12
17 18 19 19 20 18 16 18 15 15 16 16 17 17 17 18 20 21 24 27 33 27 25 21 20 22 22 23 23 22 24 23 24 22 19 17 17 18 16 15 13 14 12
19 19 19 19 19 18 20 18 18 14 11 17 19 21 20 19 20 21 22 26 28 30 27 22 23 24 23 25 26 27 27 22 23 22 21 21 20 18 18 16 16 17 11
21 19 18 18 18 18 19 23 19 16 16 18 20 22 24 23 24 23 21 23 29 29 25 24 23 22 22 23 25 25 29 27 25 23 22 24 23 20 21 19 18 20 18
23 20 19 17 14 17 18 19 19 26 17 18 19 22 22 24 23 21 23 23 26 25 26 23 23 25 24 25 24 24 26 27 27 28 25 26 24 21 22 23 23 20 18
21 19 19 18 16 15 16 17 19 18 21 24 19 21 22 22 23 21 18 20 20 26 24 22 23 24 23 24 25 24 23 27 29 29 28 27 25 26 25 25 24 22 21
21 20 20 18 16 16 17 20 22 19 20 20 23 20 19 20 23 20 18 19 17 19 22 24 24 27 26 26 26 27 26 28 29 29 28 28 28 28 25 25 23 22 21
23 21 20 17 14 17 16 17 19 19 18 17 20 21 21 20 18 18 17 17 18 20 22 24 26 27 29 30 29 29 26 26 28 30 28 28 29 29 26 26 25 23 21
22 22 19 16 16 16 18 20 20 19 14 19 20 22 24 22 19 18 20 17 18 20 22 24 23 28 30 30 29 29 27 26 27 30 29 29 29 28 27 26 25 25 23
18 19 15 14 18 18 19 19 19 18 17 20 22 21 21 19 18 19 20 19 21 22 25 25 25 29 32 32 31 31 30 29 29 29 30 29 29 28 26 25 25 25 24
22 21 17 17 19 21 20 21 21 21 21 21 22 20 18 17 19 19 20 22 21 22 22 25 29 30 31 31 31 32 32 33 33 32 31 29 29 28 27 26 25 23 23
19 15 17 19 20 19 18 17 19 21 21 20 19 20 19 19 20 20 20 22 22 23 21 26 28 29 31 30 30 30 29 28 28 30 31 30 29 27 26 25 26 25 23
21 21 20 20 22 17 13 18 19 19 20 20 21 21 21 21 21 22 23 23 23 22 20 23 27 28 29 28 28 27 25 24 25 26 28 27 27 27 27 27 25 25 24
23 23 21 15 17 18 18 18 17 17 18 19 20 22 23 22 23 23 21 22 21 19 17 18 21 24 24 24 24 23 21 22 24 23 25 26 26 26 26 26 27 25 25

GFSGL_925_spd_093.txt.gz
Wind_Speed
15 12 10 10 8 5 3 3 4 7 8 11 11 19 27 30 31 30 30 28 24 25 29 28 27 28 26 23 23 24 23 20 7 5 9 14 14 12 9 7 8 8 8
14 13 15 14 12 11 9 8 8 8 8 8 8 9 11 14 19 22 25 28 30 31 30 29 30 28 27 27 26 26 24 21 16 10 12 14 13 13 11 9 8 9 10
17 16 16 16 16 16 14 14 14 14 13 12 11 9 10 13 16 21 24 27 29 33 32 33 33 30 30 28 27 26 23 21 19 13 11 13 12 14 12 12 11 11 11
17 16 18 17 17 17 16 14 13 14 15 16 13 13 12 13 15 17 20 24 28 29 30 30 30 31 32 30 27 26 24 22 20 18 14 13 13 12 14 13 11 13 14
17 16 17 16 16 16 16 17 16 14 13 15 16 15 14 13 14 15 17 20 21 22 22 22 23 26 26 25 25 25 24 24 23 21 15 12 12 10 14 12 15 14 13
15 15 15 17 18 18 18 19 17 16 15 13 14 16 16 16 15 16 17 19 20 20 20 19 19 22 22 23 24 24 26 27 26 23 18 13 18 17 15 15 14 9 4
11 11 15 16 17 18 19 20 20 21 19 18 16 14 17 17 16 16 16 18 20 21 22 23 22 22 22 22 21 22 23 24 23 25 22 21 18 20 18 16 16 12 9
12 14 17 18 19 19 19 18 18 19 21 21 22 19 18 20 18 18 17 19 19 21 21 23 25 24 23 23 23 22 21 22 22 22 21 19 18 15 17 18 17 14 9
12 15 17 17 19 19 21 20 19 18 20 21 22 22 21 21 20 20 19 19 20 21 20 21 24 24 24 25 25 24 22 21 19 18 16 16 15 14 15 16 16 18 6
13 16 17 17 17 18 20 21 23 22 21 21 23 23 22 22 22 20 23 23 24 23 22 23 24 24 23 23 26 25 25 24 20 17 15 14 15 15 16 18 17 20 11
16 16 17 17 18 19 18 20 20 22 21 20 20 20 22 20 20 22 22 25 26 27 27 28 28 26 24 25 25 25 28 22 20 16 15 15 16 17 18 19 17 19 19
24 24 22 20 18 16 18 18 19 17 19 19 18 19 18 19 21 21 20 26 28 27 28 30 30 26 27 25 25 23 21 20 22 20 18 18 19 19 19 18 16 17 16
19 21 25 25 22 19 18 15 14 16 16 18 17 17 17 18 21 20 20 21 26 29 29 30 28 24 27 25 26 25 22 23 25 24 24 25 23 19 18 17 16 14 13
22 23 24 23 24 21 18 15 16 15 17 13 14 17 18 20 20 22 22 22 21 25 30 28 23 22 26 27 26 26 26 29 29 28 26 23 21 21 21 19 17 15 14
26 26 26 25 22 22 19 16 14 16 13 15 17 16 18 19 20 23 24 23 20 21 23 24 22 22 24 25 28 28 31 30 29 28 25 25 25 26 25 21 18 19 12
24 23 25 23 19 18 15 21 21 14 14 15 17 18 19 22 25 24 25 24 24 21 19 18 20 22 22 23 25 25 30 31 31 30 28 29 28 28 27 24 21 23 20
25 26 26 22 17 16 16 14 17 19 16 14 13 15 17 21 22 23 23 23 21 19 20 18 19 23 24 24 24 26 25 28 28 29 29 29 29 28 24 26 25 23 22
26 25 24 19 17 16 14 16 16 18 18 22 17 15 18 20 20 21 22 22 18 17 20 18 20 21 24 26 28 27 26 27 30 29 28 29 29 28 25 24 26 22 23
24 23 24 22 19 19 16 15 17 19 19 21 22 19 15 18 20 20 19 17 15 16 19 19 21 23 26 28 28 28 29 29 29 29 28 31 31 30 26 25 26 22 22
23 23 23 21 20 16 13 13 15 17 19 18 19 17 21 20 17 16 17 19 17 17 19 19 21 25 28 28 30 29 28 27 28 30 29 28 30 32 27 27 27 24 21
22 22 22 21 19 14 12 16 18 19 18 18 19 20 23 22 17 17 16 17 19 19 19 20 21 24 27 29 31 30 30 28 29 29 29 29 29 30 29 30 28 26 22
23 23 21 20 18 17 17 19 20 18 17 17 20 23 22 21 20 18 16 18 20 21 22 21 22 25 27 29 30 30 30 29 30 31 30 30 29 29 28 28 27 26 24
23 21 21 18 14 16 18 19 19 19 19 20 21 21 21 20 18 19 19 19 22 22 23 21 22 23 27 29 30 32 32 32 34 35 32 31 29 28 29 28 27 24 24
23 22 21 20 19 18 18 20 20 16 17 18 18 17 19 22 20 20 21 23 23 24 22 23 23 25 28 30 30 32 32 31 30 32 33 33 31 27 28 27 27 26 26
23 23 22 21 19 18 13 12 14 16 18 17 18 18 18 19 20 22 23 23 22 25 23 22 22 24 27 30 30 30 29 28 27 28 31 30 31 30 29 29 27 26 25
23 20 19 17 15 15 14 14 17 17 17 18 18 20 21 23 23 23 23 22 22 21 22 22 21 20 23 26 27 25 25 25 26 25 27 29 29 28 28 27 27 27 26

GFSGL_925_spd_096.txt.gz
Wind_Speed
16 18 17 15 15 11 11 10 9 6 6 8 9 10 14 21 27 25 24 26 28 27 27 26 27 21 23 26 25 25 22 19 6 5 11 16 19 18 16 13 9 9 10
16 17 15 13 12 14 13 12 10 10 8 7 8 9 11 14 21 29 29 29 31 30 30 28 29 27 28 31 31 27 24 26 15 9 14 16 17 18 15 13 9 9 10
14 13 14 16 16 15 15 14 13 12 10 9 9 9 9 9 12 16 20 25 29 32 32 32 32 32 31 31 34 31 27 26 23 15 11 16 13 20 17 14 13 13 12
12 13 14 16 17 17 17 16 16 15 14 12 11 11 10 11 13 15 18 19 24 27 30 31 32 33 33 33 35 33 30 27 25 19 16 15 16 16 20 18 14 16 15
18 18 19 18 17 17 17 18 18 18 18 17 15 13 12 12 12 13 15 17 20 23 25 29 31 30 31 33 32 33 31 29 25 23 13 11 14 13 20 16 18 17 15
16 17 18 19 19 20 20 18 18 19 18 18 18 18 16 15 15 15 15 17 19 19 22 24 25 26 27 26 28 29 32 32 28 22 16 12 16 21 21 22 17 8 4
16 15 20 22 22 22 21 22 21 19 18 17 18 20 20 19 18 18 17 17 18 19 21 22 22 23 23 23 23 23 23 26 27 30 24 26 21 26 22 20 18 16 11
16 15 17 19 19 20 22 23 23 22 22 21 21 20 21 20 19 20 19 18 20 21 20 21 22 24 24 24 24 25 26 26 29 28 26 27 25 20 20 22 22 20 12
14 14 15 17 21 23 24 24 23 24 25 25 22 21 22 23 21 19 20 20 21 22 22 22 23 25 24 23 23 23 23 24 24 22 20 20 19 18 21 22 21 20 6
16 17 17 18 19 21 21 23 23 24 25 22 20 19 19 21 21 20 18 20 21 22 24 22 23 25 26 27 27 27 26 26 23 22 19 18 17 18 19 23 24 21 9
23 23 23 20 19 20 20 18 20 19 21 22 23 22 19 17 20 19 18 18 20 22 24 25 25 24 25 26 28 30 31 29 24 22 21 20 20 21 21 21 21 21 19
29 29 30 29 28 26 24 24 24 20 19 21 23 25 21 17 16 18 18 18 17 19 23 25 26 27 26 26 28 28 26 23 26 25 24 24 24 24 23 20 20 18 17
23 25 29 34 35 32 27 23 22 18 19 21 21 20 22 22 20 19 19 19 19 18 16 27 28 25 24 28 30 28 24 25 30 29 28 27 27 24 22 20 18 17 16
23 26 28 29 31 30 28 24 22 21 20 20 18 16 20 20 18 19 21 21 22 20 22 18 27 27 22 24 28 29 29 30 31 27 26 25 23 23 24 22 19 18 16
26 29 29 27 27 30 30 24 18 17 18 22 21 20 18 18 19 21 24 23 23 24 24 18 17 20 20 21 24 27 30 30 27 27 27 26 27 25 25 23 20 21 12
24 22 23 25 24 26 27 26 20 18 17 14 18 20 21 20 23 24 24 23 23 23 24 15 15 18 19 22 21 21 25 29 27 29 27 27 28 28 26 25 22 21 20
23 23 23 24 23 22 22 22 18 23 14 16 16 18 19 21 21 23 22 21 22 22 18 15 14 17 19 21 21 24 23 27 27 27 26 26 24 27 23 24 24 22 21
23 22 22 23 23 22 21 24 18 15 17 21 19 18 18 21 21 22 22 22 18 15 17 17 16 17 20 20 23 23 24 24 28 27 26 27 25 25 22 22 23 21 20
22 21 21 23 23 23 21 20 21 16 15 21 24 23 19 15 18 21 21 19 15 15 16 17 17 17 21 24 26 27 27 26 26 27 27 29 29 26 21 23 24 20 19
19 20 22 22 21 20 20 21 19 13 15 17 18 18 20 20 17 17 19 19 17 16 17 18 17 18 20 23 25 27 25 26 29 30 28 29 30 30 24 23 23 21 19
19 19 22 21 21 22 19 16 16 17 16 17 18 19 19 22 18 17 18 18 18 16 17 20 19 18 19 22 25 26 27 26 28 28 27 28 30 29 26 26 25 23 20
20 20 21 20 21 19 18 17 18 17 18 18 19 21 20 21 22 22 21 18 20 21 22 22 21 19 16 22 25 28 27 27 27 29 28 28 30 29 28 27 24 23 22
25 22 21 22 22 22 20 20 19 18 19 19 19 20 19 19 19 21 21 23 21 21 22 24 23 22 18 20 24 26 28 28 29 30 29 28 28 29 28 26 24 23 23
20 19 20 21 21 21 19 19 16 15 14 15 18 18 19 20 21 22 22 22 23 25 24 23 23 24 21 20 23 25 27 27 28 29 30 30 29 29 29 26 26 25 24
22 18 19 20 20 19 17 17 16 15 16 16 17 17 18 19 21 23 24 25 24 24 23 23 23 25 21 20 22 23 24 25 26 26 28 31 31 32 31 28 25 24 24
19 19 21 20 19 19 18 18 16 16 14 17 18 20 21 21 22 23 23 23 23 23 23 21 23 22 20 18 19 20 20 22 24 24 26 30 30 29 30 29 27 25 25

GFSGL_925_spd_099.txt.gz
Wind_Speed
19 17 15 16 16 19 18 16 15 13 14 13 10 11 12 11 15 18 23 23 26 27 28 25 27 26 25 28 28 31 23 17 4 4 13 17 24 24 20 17 15 14 12
17 16 18 18 17 17 16 15 15 13 11 11 10 9 10 12 12 20 23 27 28 27 30 28 28 28 28 25 24 23 21 22 13 7 14 19 21 25 20 18 17 14 12
13 15 16 17 20 19 17 18 16 16 16 14 12 12 12 12 13 15 16 15 24 30 29 28 30 29 29 27 29 29 29 29 29 17 13 19 16 25 22 20 18 15 12
12 14 18 18 18 18 18 18 19 19 18 17 15 15 14 14 14 14 15 17 20 22 19 25 29 29 31 29 31 33 31 29 28 22 17 16 20 26 27 25 19 19 16
14 17 17 16 17 19 19 20 20 20 19 19 18 16 16 16 16 16 15 16 19 22 23 22 23 26 32 32 31 27 29 27 22 19 14 11 15 18 24 20 19 19 16
13 14 17 20 21 20 20 19 20 21 21 22 22 21 19 16 14 16 18 19 18 19 23 25 24 24 26 28 30 31 33 30 25 22 16 13 17 20 23 23 19 9 3
13 13 13 15 17 21 24 24 22 20 20 21 21 21 23 23 20 19 17 20 21 21 21 22 25 25 24 26 27 28 31 32 34 35 26 22 20 25 25 23 25 18 12
17 19 20 21 23 24 24 24 23 21 23 22 21 18 18 22 23 21 21 21 21 21 21 22 23 24 24 24 23 24 26 25 27 27 32 29 24 22 18 26 27 21 13
14 16 18 20 21 21 22 23 24 21 23 21 20 19 19 20 20 19 20 22 22 24 23 22 22 23 24 23 23 23 25 23 24 25 22 22 17 20 22 26 24 21 6
17 19 20 19 20 22 24 24 24 22 24 25 25 22 20 19 17 18 18 20 20 20 22 23 22 22 22 22 24 25 24 26 24 24 22 18 18 19 22 26 28 23 13
25 26 27 27 25 24 25 26 27 26 25 23 22 25 27 21 20 18 17 18 18 19 19 22 23 20 20 22 23 26 28 25 23 22 23 24 23 25 25 25 26 31 25
21 23 26 28 29 28 28 29 26 24 22 23 25 28 27 24 22 20 19 20 19 19 18 20 23 24 20 18 21 27 26 25 22 22 23 24 26 25 27 24 22 22 22
24 23 23 26 28 30 32 34 31 28 23 22 20 20 22 25 23 20 19 21 21 22 21 21 22 23 26 21 18 25 25 25 23 25 25 26 29 28 24 22 20 20 18
19 21 25 28 26 26 29 28 26 25 24 16 13 14 18 20 22 20 20 19 22 22 24 25 25 23 23 25 20 22 27 30 29 27 23 23 25 24 26 26 23 23 21
23 23 23 22 23 25 25 24 25 26 20 18 19 18 16 16 19 21 21 22 23 24 27 25 23 20 18 20 22 22 27 29 24 23 24 25 26 27 28 26 24 25 14
20 18 20 21 21 22 22 25 28 21 18 18 19 18 20 20 21 21 21 22 23 23 24 20 19 17 15 17 18 20 24 27 27 26 23 25 24 26 24 28 24 27 20
20 20 20 21 20 21 22 21 21 24 23 17 17 16 17 20 20 21 21 22 21 22 18 17 15 18 17 17 18 20 18 24 27 28 24 24 23 20 21 22 21 23 20
23 21 20 21 22 22 22 22 21 19 18 21 19 17 20 21 20 19 19 22 17 16 16 16 17 17 19 17 18 18 19 21 26 27 27 27 28 26 23 22 20 18 18
22 20 19 20 20 22 23 22 21 20 20 20 20 25 17 17 16 17 19 18 17 15 16 16 17 19 21 19 21 23 22 23 25 26 25 28 28 29 24 24 24 21 21
18 18 19 21 21 22 21 21 20 18 17 13 16 18 21 17 18 20 19 19 18 16 17 15 17 19 20 18 19 21 23 23 22 24 23 26 28 29 26 26 26 22 20
20 22 21 22 22 22 22 22 21 20 17 17 18 20 20 21 15 17 20 20 19 19 16 19 19 21 20 19 19 20 21 22 24 24 25 25 27 25 26 28 27 24 21
21 23 21 20 20 19 21 22 20 20 20 19 20 20 19 19 21 21 20 21 23 20 22 20 21 22 21 20 20 21 21 19 22 25 23 26 28 26 26 26 26 24 23
23 20 19 18 19 22 22 21 20 20 19 18 17 16 16 18 19 19 20 22 24 24 21 22 22 23 23 22 20 21 23 21 22 25 27 27 26 26 27 26 26 24 24
19 17 16 17 19 21 21 21 18 21 20 17 17 17 18 19 20 21 23 24 24 23 24 22 21 22 23 24 23 21 22 22 20 21 24 25 26 27 27 26 27 25 24
19 14 16 18 18 20 20 20 20 20 19 19 17 18 19 20 21 21 21 24 24 23 23 22 22 21 22 23 22 20 21 19 19 19 24 27 26 28 28 27 27 25 23
17 15 18 17 18 19 19 19 19 20 20 19 20 20 20 20 20 22 22 22 22 23 24 24 23 22 22 22 21 19 18 17 17 18 20 26 26 27 27 27 29 26 24

GFSGL_925_spd_102.txt.gz
Wind_Speed
17 17 20 19 18 19 22 23 21 19 19 18 17 19 17 15 12 13 14 15 20 23 28 27 27 28 26 27 28 29 28 24 12 4 16 20 28 33 30 24 22 20 20
19 23 21 20 20 21 21 21 21 20 18 18 17 17 17 17 16 15 13 13 18 21 24 25 27 27 31 28 27 28 27 26 19 8 14 18 23 28 27 25 25 23 22
18 17 17 20 23 22 21 20 21 20 20 19 19 18 19 19 18 17 18 18 17 16 14 21 26 29 30 27 27 26 27 25 25 14 11 18 16 30 30 28 28 26 23
12 16 18 19 19 19 19 20 20 20 21 21 21 20 20 20 18 19 20 20 20 20 20 19 20 18 26 26 26 28 26 25 27 21 18 18 23 28 29 27 25 26 25
13 14 16 16 17 19 20 20 19 21 21 22 22 22 22 21 20 20 21 23 23 23 21 21 21 20 21 20 22 26 26 24 22 21 12 10 16 19 30 28 22 28 25
14 16 16 17 17 18 19 21 20 20 19 20 21 21 21 21 21 20 18 22 23 24 24 24 24 23 22 22 23 24 24 26 21 20 19 19 24 23 25 27 21 13 6
14 16 17 18 21 22 22 23 24 24 23 24 23 22 22 23 22 21 20 19 22 22 23 25 26 24 25 24 24 24 24 26 30 33 25 24 23 33 37 30 28 24 13
15 17 19 20 20 19 20 21 23 23 23 23 22 20 20 23 24 23 22 22 22 23 24 24 25 26 25 24 25 25 25 26 28 31 31 30 32 37 44 36 34 29 18
11 13 14 14 15 16 18 19 19 20 21 21 21 22 22 22 23 21 21 23 23 24 23 24 26 26 25 24 23 25 27 26 25 25 26 30 29 27 33 33 29 23 7
11 12 13 14 15 18 19 22 24 25 23 21 20 19 20 24 24 21 20 20 20 20 21 23 23 25 25 24 23 23 21 25 24 22 21 22 23 26 28 33 35 25 9
11 14 16 17 20 23 25 27 27 26 27 26 24 22 21 20 19 17 17 18 20 21 20 20 22 23 24 26 27 25 26 24 23 24 24 24 24 27 26 30 30 34 26
15 18 21 24 26 27 27 27 28 27 24 24 23 22 22 23 22 17 17 17 18 18 20 22 24 25 26 25 27 28 26 25 21 23 22 24 27 28 28 29 24 29 24
17 18 20 22 24 24 26 27 27 27 24 20 16 17 19 22 19 17 17 17 16 18 20 21 25 28 27 26 24 25 27 25 23 23 22 24 28 29 29 24 23 22 20
18 20 21 21 20 21 22 22 20 20 20 18 16 16 19 21 17 23 20 17 20 21 23 24 24 25 25 24 25 23 23 27 28 24 24 23 26 22 25 29 25 24 21
19 18 19 19 19 21 21 20 21 22 20 21 20 19 16 16 21 19 23 19 19 20 25 23 23 21 22 19 21 19 21 23 23 23 23 24 23 25 27 29 25 26 15
17 16 19 17 19 19 18 21 20 19 21 21 21 22 20 18 19 20 22 22 20 22 21 17 18 18 15 17 19 20 19 20 25 24 21 23 24 25 22 25 28 24 19
17 18 18 17 17 18 18 18 22 25 21 22 21 19 20 20 19 22 23 21 18 19 16 18 16 17 16 17 19 20 18 18 22 24 24 24 22 22 23 22 21 22 19
22 19 17 20 19 20 21 21 23 21 22 23 21 21 18 20 21 20 19 19 15 15 17 18 17 16 17 17 18 20 20 19 19 21 21 23 25 25 22 23 22 18 18
21 18 17 18 20 23 23 23 20 20 21 22 23 21 21 18 19 19 17 15 16 16 17 19 19 18 20 20 18 21 21 19 19 21 21 22 22 24 23 24 26 26 22
20 17 17 20 21 22 21 21 21 21 22 22 20 18 22 22 19 20 20 16 17 17 18 19 20 18 20 20 20 19 20 18 16 20 20 21 24 25 22 23 25 25 23
20 18 18 21 21 21 20 22 23 23 21 21 22 22 22 23 17 13 16 18 19 18 19 22 20 22 21 20 20 18 17 18 18 19 21 21 22 21 22 24 24 24 24
16 21 20 19 21 20 21 22 22 23 23 21 22 20 21 20 18 19 19 19 21 22 23 23 24 22 21 23 21 20 19 18 18 17 19 21 23 21 22 23 23 24 25
21 21 18 18 18 21 23 20 23 23 21 22 22 19 18 18 19 20 21 21 22 23 24 22 23 22 22 22 21 20 19 19 19 19 19 22 23 23 25 22 24 23 24
16 18 16 17 19 23 20 21 21 23 23 22 22 22 18 17 20 22 22 22 21 21 21 20 22 22 22 21 20 21 22 19 18 17 18 21 22 22 24 23 25 25 24
23 21 17 16 20 21 21 21 21 22 22 21 21 20 21 21 20 20 20 20 21 22 23 24 24 24 23 20 19 20 19 17 17 16 14 20 21 22 23 23 24 25 25
22 17 17 19 20 20 21 21 21 21 22 22 21 21 21 21 21 22 22 22 24 25 25 26 24 23 23 21 21 20 18 15 15 12 13 19 21 23 24 23 26 24 27

GFSGL_925_spd_105.txt.gz
Wind_Speed
23 22 21 19 20 19 18 19 18 20 18 20 17 16 17 18 17 18 16 15 14 16 21 18 26 26 25 23 24 25 24 24 13 22 21 28 28 29 34 39 38 35 28
17 18 19 21 19 20 20 20 17 19 19 19 20 21 19 19 17 19 18 18 19 19 19 16 21 21 26 30 29 28 26 25 27 25 22 22 26 30 35 39 35 32 29
15 18 17 17 18 19 18 18 18 18 19 19 20 20 21 21 20 19 18 19 17 16 20 19 20 20 17 22 26 24 24 27 31 27 15 19 19 24 28 32 32 29 27
13 13 10 10 14 15 16 17 18 17 18 19 19 19 19 19 18 20 19 18 18 18 18 18 19 17 17 21 21 24 27 25 24 22 17 16 19 24 26 28 26 31 31
7 8 10 12 13 13 14 16 17 17 16 17 19 19 19 18 16 20 20 19 19 19 17 16 18 19 19 18 19 22 17 19 20 20 11 9 15 14 26 26 23 24 28
10 12 12 13 14 14 15 15 16 17 18 19 18 18 19 19 20 20 19 19 18 18 20 21 19 23 21 21 21 20 20 21 15 18 18 17 21 24 25 25 20 13 4
6 7 10 13 14 16 17 19 20 21 21 21 21 21 21 22 21 20 19 18 20 19 20 21 23 21 25 25 25 25 24 24 23 21 19 23 22 32 36 30 31 31 23
10 14 16 17 17 17 18 18 18 19 19 20 19 18 19 20 20 20 20 20 20 21 21 23 22 23 23 24 25 27 27 28 27 25 27 26 34 34 40 44 43 31 22
11 12 14 14 15 17 18 19 20 21 23 23 22 21 19 19 19 20 20 19 20 21 20 20 20 21 22 24 25 25 24 26 30 28 27 26 33 34 36 32 27 26 8
11 12 14 15 16 19 20 23 23 22 23 23 23 22 20 19 19 18 18 17 17 17 19 20 19 19 21 23 25 23 22 23 26 31 30 26 26 33 37 39 39 30 13
10 12 13 14 16 18 20 19 22 23 22 24 23 25 22 20 23 24 22 18 18 19 19 19 19 23 25 27 28 28 24 27 29 28 29 30 28 29 35 38 41 38 28
11 15 17 18 17 17 19 21 22 20 18 19 18 20 19 18 19 17 16 17 18 19 19 20 23 26 30 31 29 29 30 30 26 27 25 25 26 29 34 37 37 40 41
13 15 16 17 19 17 20 23 22 20 16 17 16 17 18 21 25 25 19 20 17 19 19 23 27 28 29 29 27 29 28 28 24 22 21 22 28 29 32 32 35 31 29
11 14 16 19 18 21 22 17 16 16 18 19 20 19 20 19 19 25 24 22 19 19 21 23 22 26 28 28 28 26 20 23 23 21 22 25 25 24 24 29 21 30 24
12 14 18 17 19 21 18 17 17 18 17 20 20 21 21 20 19 20 21 20 22 22 24 19 20 19 23 23 21 21 22 23 21 20 22 23 22 24 23 27 23 20 15
12 12 14 14 16 16 16 20 19 18 21 23 23 23 23 23 24 23 22 24 25 26 21 14 17 19 20 20 21 21 22 22 22 20 20 20 20 20 19 24 25 21 16
12 14 14 13 13 13 16 17 19 26 22 20 21 23 23 24 22 22 23 24 23 21 12 17 18 19 19 19 18 21 22 24 27 22 20 21 21 20 20 20 19 18 15
14 14 12 13 15 15 17 17 18 18 19 23 22 23 24 22 22 22 23 24 17 14 14 17 19 19 19 18 17 20 22 23 23 20 19 19 20 19 16 18 21 21 19
15 13 12 13 14 15 16 17 18 19 20 23 25 23 22 23 23 22 21 18 16 15 15 18 20 20 20 18 19 21 24 21 21 21 16 17 19 18 16 17 18 21 22
15 13 13 14 14 16 16 17 19 20 21 22 22 23 24 24 20 16 15 13 14 18 18 18 20 20 21 20 23 20 22 21 19 19 17 16 18 19 16 17 19 20 19
15 13 14 13 13 16 16 18 18 19 22 22 23 22 27 27 19 20 19 18 18 19 18 19 20 20 20 23 23 19 20 21 20 19 18 16 16 16 17 19 18 18 18
14 17 16 15 18 14 17 19 18 20 22 22 24 24 26 24 20 20 20 20 20 21 21 21 22 21 23 22 22 21 20 20 18 19 19 17 16 16 17 19 19 19 20
17 20 14 17 15 17 18 18 18 19 21 22 24 24 23 23 23 17 21 22 21 21 20 19 20 21 22 23 23 22 21 20 20 21 20 18 16 16 19 17 19 20 22
16 19 19 18 16 17 17 18 18 21 23 23 23 23 23 23 24 23 22 22 23 23 22 22 22 24 25 23 23 22 21 20 20 19 19 16 15 16 18 18 19 21 22
20 21 16 14 16 16 17 17 18 20 22 22 23 23 23 23 24 23 23 23 24 25 25 24 24 25 24 24 23 24 22 21 18 18 18 13 13 16 18 19 21 21 22
21 17 18 18 17 16 16 17 18 20 22 24 24 24 24 24 25 25 25 26 26 26 26 27 26 24 23 23 20 19 19 18 16 14 14 10 15 17 18 18 21 21 25

GFSGL_925_spd_108.txt.gz
Wind_Speed
18 16 17 19 17 13 11 13 12 11 13 15 15 16 17 16 17 17 17 18 18 20 20 21 19 19 19 29 29 30 30 27 11 20 22 21 26 29 32 30 37 42 43
13 13 16 16 15 12 12 13 11 12 15 15 15 15 14 14 14 16 16 15 17 17 20 21 22 23 20 19 21 29 27 24 16 11 19 27 29 31 33 35 38 42 39
10 9 9 11 12 14 14 13 13 13 14 14 13 13 13 14 14 14 15 16 15 14 15 16 17 19 19 20 22 21 19 28 29 31 28 23 25 28 26 26 30 34 37
8 9 10 11 10 9 10 11 13 13 13 14 14 14 15 15 13 16 17 16 17 16 15 15 15 15 17 19 20 19 19 21 16 20 18 18 20 21 22 21 20 28 31
7 7 8 7 6 7 9 11 12 12 12 13 14 14 14 14 13 16 17 17 16 17 16 15 15 16 18 17 18 19 19 18 17 16 9 9 10 9 19 17 19 22 26
5 5 6 6 7 8 9 10 11 11 11 12 13 13 14 13 14 15 16 18 18 18 18 17 17 17 16 20 19 20 19 18 20 15 14 12 18 20 20 21 18 11 3
3 4 6 7 8 9 10 11 12 13 13 14 14 15 15 16 17 19 19 18 18 18 18 19 19 18 19 18 20 20 20 20 19 22 21 19 19 21 24 23 26 27 24
3 5 6 8 10 11 12 13 14 15 15 16 16 15 15 15 15 16 18 17 17 18 18 19 19 20 19 20 22 23 21 21 21 21 22 23 25 24 31 33 37 41 23
5 7 8 10 12 13 14 15 15 15 15 15 15 15 14 15 14 14 14 15 15 15 16 18 19 19 19 23 24 23 23 23 23 24 26 28 29 30 29 30 23 18 5
5 7 9 10 12 14 14 14 13 14 15 15 16 14 14 15 13 14 16 16 17 17 17 16 16 17 20 23 25 25 26 27 27 28 29 29 26 26 30 34 30 25 17
7 9 10 11 12 12 12 12 13 14 15 15 16 16 14 13 13 14 16 17 17 20 20 20 19 20 24 24 26 26 26 28 31 31 29 28 27 26 28 30 36 37 26
7 9 10 9 9 10 11 13 12 12 14 15 16 18 16 17 16 16 18 19 19 20 20 20 21 24 28 27 28 28 30 30 27 28 27 27 25 24 27 30 36 40 37
8 9 9 9 9 9 11 13 13 12 12 14 15 16 18 19 19 19 19 18 18 18 20 21 25 26 24 26 26 28 28 24 25 23 21 27 26 27 29 28 34 33 36
9 9 9 10 11 10 11 10 11 11 12 13 16 18 20 21 22 21 21 20 18 19 19 22 24 23 23 23 26 23 21 21 22 24 23 28 28 27 26 27 26 26 22
8 9 10 10 11 13 11 11 11 12 13 19 20 21 21 21 22 25 27 26 24 24 26 25 23 20 19 21 21 21 21 22 21 23 23 26 25 22 23 25 22 19 15
9 9 10 11 10 10 13 17 13 14 17 19 18 19 21 23 24 25 26 23 24 23 24 21 17 17 19 19 20 21 20 21 23 22 25 26 23 20 20 20 21 18 18
8 10 11 10 10 12 13 16 20 24 18 18 19 20 22 24 25 24 24 25 25 25 21 18 17 18 19 20 20 19 19 21 25 24 23 25 24 20 17 17 16 15 11
8 11 10 9 11 13 14 17 17 18 20 26 25 24 24 23 24 25 24 24 21 18 17 17 17 19 20 21 21 20 19 21 23 24 22 25 22 19 13 13 15 14 13
10 10 9 11 13 15 16 17 18 19 20 22 23 22 21 22 24 25 24 19 17 16 16 16 19 21 21 21 21 20 19 21 23 24 21 23 23 16 12 13 12 13 14
9 10 10 12 15 15 15 17 18 20 20 21 21 21 22 23 23 22 20 21 21 20 20 19 19 20 21 22 22 20 21 20 21 21 21 23 23 18 14 13 12 13 14
9 9 11 15 14 15 17 16 19 20 21 22 22 22 24 24 23 21 21 20 19 20 20 20 21 22 22 22 21 21 20 19 20 20 21 21 22 16 15 13 13 15 14
10 10 13 13 15 17 15 18 19 21 22 22 23 23 23 20 20 20 21 19 21 23 22 21 22 23 23 22 23 23 20 20 19 19 19 21 22 19 16 14 11 14 15
9 12 12 16 16 16 16 17 19 20 21 22 22 22 22 21 21 20 21 22 22 22 22 22 23 24 23 23 23 23 22 21 21 21 21 22 21 19 15 11 11 14 15
10 11 15 14 13 14 16 17 19 19 20 21 22 22 22 22 22 23 23 23 22 23 23 23 24 24 25 26 24 24 24 23 23 23 22 23 22 20 14 11 11 14 15
10 12 12 12 13 14 15 16 18 19 19 20 21 21 22 23 23 23 23 23 24 24 25 24 25 24 25 26 25 25 25 23 22 22 22 22 21 16 14 13 13 12 15
10 10 10 11 12 13 14 16 17 18 19 21 22 22 23 24 24 25 25 25 25 26 27 27 27 27 26 25 23 21 21 21 20 20 20 21 18 12 13 13 16 16 19

GFSGL_925_spd_111.txt.gz
Wind_Speed
14 15 16 16 16 15 15 15 16 15 14 15 14 14 16 17 14 16 18 18 18 18 18 19 19 19 21 21 22 23 19 23 9 20 23 26 30 28 28 26 27 28 29
14 12 12 11 11 12 13 13 11 10 11 11 12 12 12 13 14 15 17 17 17 17 16 17 18 19 18 19 23 22 21 26 21 15 22 21 25 29 30 30 33 34 34
8 8 9 10 10 11 11 11 12 12 12 12 12 12 12 12 13 13 12 12 13 14 15 15 16 16 15 18 20 20 22 21 21 17 16 14 22 27 28 32 36 36 39
7 8 8 9 10 11 11 11 12 12 12 13 13 13 13 13 11 12 14 15 16 15 14 14 14 14 17 18 17 17 18 20 19 17 16 14 13 19 21 19 24 32 34
6 7 8 9 10 10 11 11 11 12 12 13 13 13 13 13 10 14 15 16 16 17 16 14 15 17 18 14 17 18 18 18 18 16 13 10 6 6 10 16 20 20 24
6 7 8 9 10 10 11 12 13 13 14 15 15 16 17 14 14 15 16 18 18 17 17 17 17 17 15 17 16 15 16 18 18 16 16 13 14 14 17 17 14 7 2
5 6 8 9 10 10 11 12 13 14 15 15 15 16 17 16 16 17 16 16 17 17 17 17 18 16 18 18 18 18 19 16 16 19 19 18 18 17 20 19 19 16 14
5 6 6 8 9 11 12 13 14 15 15 15 15 15 16 16 15 16 15 16 18 18 17 16 16 17 17 16 20 20 20 20 19 21 22 24 24 26 28 27 22 28 22
6 7 8 9 12 13 14 15 14 14 14 14 14 15 15 16 14 13 12 15 15 16 16 14 14 15 16 19 22 22 23 22 22 23 25 26 27 27 27 28 22 17 7
7 8 10 11 12 12 13 13 13 14 15 14 15 14 14 15 13 11 12 14 16 16 15 16 14 13 13 16 19 20 21 23 28 30 30 28 27 26 25 26 24 20 17
4 6 8 10 12 12 13 14 15 15 15 16 16 15 14 13 14 14 15 16 17 18 18 17 16 15 18 21 22 21 23 26 26 25 28 31 27 23 22 24 26 27 23
5 7 9 10 11 13 14 15 15 14 15 15 15 16 15 16 16 18 19 19 19 19 19 18 18 20 23 24 23 22 24 27 24 23 21 22 25 22 22 26 28 32 31
5 6 7 9 11 12 13 14 14 12 12 13 14 16 18 19 21 21 21 20 22 22 21 22 23 24 26 27 24 23 26 22 20 21 22 23 22 27 27 29 31 35 37
5 7 8 9 11 12 11 12 12 12 12 12 14 16 18 20 22 21 21 25 25 24 24 22 23 26 25 23 20 19 20 20 21 21 22 22 25 25 25 26 26 26 25
5 8 9 10 12 12 12 11 12 12 13 16 18 19 20 20 21 26 28 28 28 28 28 23 20 20 18 16 16 17 19 21 20 20 21 25 24 24 27 26 25 25 21
7 8 9 11 12 12 13 14 12 13 15 17 19 19 22 23 26 27 28 29 30 29 27 24 22 20 17 16 16 19 20 21 20 20 21 23 24 23 25 25 24 22 20
8 10 11 12 12 12 12 13 17 17 16 17 18 20 22 25 25 25 26 27 28 27 22 21 20 17 15 16 17 19 22 22 23 20 21 23 25 23 25 23 21 19 19
10 11 12 11 11 13 13 14 16 18 19 19 19 22 22 23 23 25 26 27 24 20 17 16 16 16 14 17 19 20 21 23 19 22 24 22 24 23 24 22 19 17 16
9 10 10 11 13 14 15 14 15 17 18 20 23 22 21 24 25 26 25 21 21 19 19 19 19 19 19 19 20 20 21 22 23 23 23 23 23 22 23 23 19 18 16
9 10 11 12 13 14 14 14 15 17 18 17 19 19 22 23 22 22 23 22 21 21 21 19 19 20 21 21 21 21 21 22 22 21 22 22 23 20 22 24 17 13 12
9 9 10 13 13 14 14 15 16 17 17 18 19 20 24 24 21 21 22 22 22 21 19 20 22 23 21 20 20 21 22 24 23 21 22 22 21 21 23 24 18 13 12
8 10 10 12 14 14 16 16 15 16 17 18 20 21 23 22 21 22 22 22 23 24 23 23 24 24 23 23 23 23 24 24 23 21 21 21 20 21 23 23 17 12 11
9 10 12 13 15 15 15 15 15 16 17 18 20 20 21 21 22 23 23 25 25 25 25 24 25 25 24 24 24 25 25 25 25 25 24 22 20 21 22 23 14 9 7
10 11 12 14 14 14 14 14 15 17 17 18 19 20 22 23 23 25 26 26 27 27 26 25 26 27 29 28 27 27 27 27 26 26 28 25 22 22 22 21 14 11 9
9 12 13 13 13 13 14 13 14 16 17 18 20 22 23 24 25 25 27 27 28 29 30 29 29 30 30 30 30 29 29 26 25 24 23 25 24 24 23 19 12 9 11
10 11 12 12 12 12 13 13 14 15 17 19 22 23 24 25 26 26 28 29 30 30 31 32 31 30 30 29 27 25 23 21 21 20 20 22 23 22 19 12 9 10 14

GFSGL_925_spd_114.txt.gz
Wind_Speed
14 15 14 15 16 15 16 14 13 15 18 19 17 16 15 14 14 14 14 12 12 13 14 16 16 15 17 14 18 18 15 16 8 10 19 23 21 24 28 32 33 31 32
8 11 13 12 13 15 16 17 19 19 17 17 16 16 15 13 14 12 14 13 14 16 15 15 15 18 13 18 19 17 15 13 15 13 21 22 24 28 34 34 34 34 31
5 6 9 12 13 13 13 14 14 15 16 16 15 14 15 16 15 13 15 16 17 15 15 15 15 16 17 22 17 18 16 17 14 14 16 20 22 23 18 21 24 34 36
5 7 8 10 10 10 11 12 13 13 13 14 15 14 15 15 12 14 17 16 15 15 14 14 14 15 18 19 14 17 15 16 15 14 14 16 17 20 19 17 17 23 28
5 7 10 11 13 15 15 15 15 15 16 16 17 16 16 14 11 15 16 14 16 15 15 13 14 17 14 14 17 18 18 16 15 14 13 14 14 17 16 18 16 21 23
4 5 7 10 12 13 14 16 16 17 17 17 17 17 17 16 14 14 15 18 18 18 18 18 17 15 14 14 13 14 16 18 16 14 13 14 15 17 19 21 20 10 3
1 3 5 7 9 10 12 14 15 16 17 17 17 17 18 18 15 15 15 17 19 18 20 20 20 16 13 13 14 16 16 16 14 16 16 16 20 20 22 22 21 19 18
2 3 4 5 7 9 10 10 12 14 15 16 18 18 19 19 16 15 15 16 18 20 21 22 21 19 15 15 17 20 19 17 17 18 19 22 22 23 24 23 24 26 26
5 4 5 7 9 10 10 12 13 15 16 17 17 19 18 18 17 15 14 14 18 20 20 18 17 17 12 13 16 20 22 25 25 19 19 21 23 24 24 26 21 18 14
3 6 7 8 10 11 11 13 13 14 16 17 19 18 18 18 14 13 13 14 15 17 17 18 18 17 15 14 17 20 19 24 24 25 29 32 25 24 22 22 24 20 16
7 7 8 8 8 9 11 13 16 17 18 18 17 15 15 14 15 15 16 18 19 19 18 18 19 17 17 18 20 22 21 21 20 25 26 26 27 25 23 22 21 21 22
5 6 7 7 8 9 11 13 14 16 17 17 16 17 16 16 16 18 19 18 18 18 19 21 22 22 23 22 21 21 23 20 20 20 20 22 23 25 25 27 29 33 30
5 5 7 8 10 10 12 13 15 14 15 16 16 17 19 19 20 19 19 19 21 24 22 23 25 24 23 23 25 22 21 18 19 19 19 20 20 24 27 26 28 31 29
4 5 7 9 9 12 11 13 14 14 14 16 15 16 18 21 22 21 22 23 23 23 23 25 24 24 23 24 25 26 19 19 20 22 21 24 23 21 23 23 22 24 28
6 6 7 8 9 13 13 14 15 15 14 17 17 17 19 20 21 24 27 27 27 26 29 25 21 21 22 23 24 21 20 22 23 25 24 23 23 24 24 24 23 21 23
6 5 5 8 11 13 14 16 15 14 15 16 18 19 21 22 25 26 27 27 28 28 26 22 21 19 18 19 19 20 19 19 22 25 24 25 23 24 25 28 23 23 23
6 7 9 9 12 13 14 15 16 16 15 16 18 18 20 25 25 25 24 26 27 26 21 21 20 17 17 17 18 18 21 22 21 23 24 21 24 23 23 24 24 24 25
8 8 10 11 12 13 14 16 18 15 16 18 17 20 22 22 23 24 24 25 20 19 19 19 18 17 18 18 21 21 20 22 22 23 25 24 21 22 23 23 22 22 25
8 9 10 11 13 14 15 15 15 16 16 19 21 19 20 21 22 22 21 18 19 18 18 18 20 20 20 21 21 22 22 22 23 22 23 23 23 22 23 24 21 28 30
9 9 10 11 13 14 14 15 14 14 17 18 17 20 22 23 18 19 20 19 19 20 20 21 19 19 21 22 23 23 21 21 22 23 23 24 22 23 24 21 23 24 25
10 10 9 10 12 14 16 16 17 17 16 16 18 20 23 23 20 22 22 22 22 22 22 22 23 23 23 23 24 24 24 24 24 25 23 24 24 23 22 23 24 24 25
10 11 11 12 12 13 16 17 16 15 15 15 19 21 21 21 21 22 23 24 24 24 25 24 25 26 26 26 25 25 24 24 24 23 23 24 24 25 24 22 24 23 22
12 11 11 12 13 13 15 16 16 14 16 17 18 19 20 21 22 23 25 26 27 27 28 27 28 29 29 28 27 28 27 26 26 27 25 25 21 24 24 23 23 23 19
12 11 12 13 13 14 13 15 15 16 16 16 18 19 21 22 24 26 27 29 30 32 32 30 31 32 32 31 30 29 29 30 28 27 26 27 26 24 23 24 23 23 18
11 12 12 13 14 13 13 14 14 15 17 16 18 20 23 24 26 28 30 32 33 33 34 34 33 33 32 31 29 29 29 27 27 27 28 28 28 28 26 25 25 19 15
12 13 14 14 14 12 12 13 13 15 17 17 19 23 24 25 28 29 32 32 32 33 36 35 34 33 31 29 27 24 22 22 22 22 22 24 24 25 24 23 21 15 11

GFSGL_925_spd_117.txt.gz
Wind_Speed
10 12 13 14 15 17 19 20 20 19 18 17 17 16 17 17 16 16 14 15 15 15 15 11 10 11 10 12 15 14 14 13 5 14 18 24 24 28 28 22 29 39 41
5 6 9 11 13 15 16 17 17 16 16 17 17 18 18 18 15 16 17 16 15 14 13 13 13 9 9 13 12 10 10 13 13 13 17 18 23 23 26 24 18 28 34
0 1 3 6 8 9 11 12 13 13 14 14 15 15 16 15 12 14 15 14 14 13 12 14 12 12 15 16 13 13 10 13 13 14 15 19 21 21 25 21 20 20 17
3 2 2 4 7 8 9 10 10 11 11 13 12 11 12 12 9 16 17 16 15 12 13 12 13 14 13 12 12 12 10 11 12 14 14 15 18 21 19 20 22 21 26
6 4 3 6 8 10 12 13 13 13 14 14 14 14 14 12 12 13 13 13 14 13 11 12 13 14 9 10 10 10 14 16 14 12 12 12 13 16 17 19 20 25 27
6 5 4 5 7 8 10 12 12 12 12 12 12 12 12 12 10 9 10 12 14 15 16 15 14 12 8 7 5 8 11 13 14 12 10 10 12 16 18 20 19 18 5
7 5 4 4 8 9 10 11 11 12 13 14 14 14 16 16 13 13 12 13 14 16 17 19 20 18 15 9 6 10 13 10 11 13 14 15 17 20 20 19 18 18 20
7 6 4 6 7 8 9 9 11 12 13 14 15 16 16 16 14 15 14 15 16 17 17 18 19 19 17 11 11 14 16 18 16 14 15 18 19 23 23 22 23 24 23
8 7 6 6 7 8 8 8 9 10 13 14 15 16 17 16 16 12 13 14 16 17 17 16 17 20 18 16 14 14 18 22 21 17 15 16 19 19 19 20 20 17 13
9 7 6 7 8 8 8 9 11 12 14 14 14 14 13 14 14 13 14 16 17 18 21 18 16 17 17 16 17 17 18 22 23 20 17 24 21 22 18 16 19 14 15
9 7 7 7 6 6 7 9 10 12 13 13 13 12 14 13 14 14 15 17 18 17 11 14 16 17 19 20 21 21 19 20 22 16 18 21 22 23 22 21 19 20 18
8 8 7 6 5 6 8 9 10 11 12 13 14 14 14 15 15 16 17 15 16 18 19 20 23 21 23 22 21 18 21 22 19 13 16 20 23 24 23 23 26 27 26
8 7 6 5 6 6 8 10 11 11 11 13 14 16 19 19 20 19 17 16 17 21 20 22 25 24 23 22 22 21 22 21 20 16 17 19 23 24 24 23 27 27 26
8 6 5 6 6 6 8 8 10 11 12 14 15 15 18 18 19 20 19 18 19 21 22 24 22 24 24 24 24 24 22 20 16 15 18 21 23 23 23 22 23 26 23
7 6 6 6 6 9 8 9 10 11 12 16 16 17 17 16 17 21 22 22 23 22 27 22 21 19 20 21 22 22 22 19 16 16 19 21 18 20 19 20 23 22 21
9 7 5 6 8 9 11 12 11 10 11 14 16 18 19 18 21 23 21 23 24 25 23 17 17 15 18 19 18 17 15 16 19 21 19 18 20 20 21 21 20 21 21
10 7 7 7 9 10 10 12 17 17 13 13 16 17 17 20 21 21 22 23 23 22 19 19 18 18 18 17 18 18 18 19 21 20 21 23 22 21 20 20 19 20 21
10 8 8 8 9 9 11 13 13 15 16 17 18 17 18 19 20 21 21 22 21 19 17 18 19 19 20 21 20 20 20 22 22 23 24 25 20 20 20 20 20 21 21
11 10 8 8 9 9 10 12 13 15 16 17 19 17 17 19 19 19 18 18 17 18 19 19 20 21 21 20 22 24 25 24 23 21 20 23 24 23 22 21 22 26 27
12 10 8 9 10 11 10 12 15 17 18 16 15 16 19 20 17 17 19 18 18 19 21 22 23 24 24 25 26 25 23 22 22 23 23 23 23 22 22 21 22 22 23
13 10 9 9 10 11 11 13 15 17 17 14 15 16 19 19 18 21 21 20 20 21 23 24 26 26 27 27 26 25 25 24 23 24 24 23 23 20 21 23 24 25 24
14 12 11 10 10 11 13 13 13 16 16 15 16 18 18 18 19 21 22 22 23 25 27 28 29 28 28 29 29 27 26 26 25 24 25 25 23 23 23 21 20 25 25
15 14 11 10 10 11 12 14 14 14 16 15 15 16 17 18 20 22 23 25 26 28 30 30 30 31 32 31 31 30 28 28 27 26 25 24 23 23 23 23 23 23 23
16 15 13 11 11 11 12 13 14 12 13 14 14 15 17 20 23 24 27 28 29 31 32 32 32 34 35 33 32 31 30 29 29 28 27 26 25 25 24 23 23 26 27
18 15 13 12 12 13 13 14 14 12 13 14 13 14 19 22 25 26 28 29 31 33 35 35 35 35 35 34 32 30 28 27 25 27 28 28 29 30 29 26 26 26 26
18 16 13 13 14 13 13 13 14 12 14 13 15 17 19 22 26 26 28 30 32 34 35 35 35 34 34 31 28 25 22 22 22 22 23 26 27 26 24 24 25 25 23

GFSGL_925_spd_120.txt.gz
Wind_Speed
3 3 5 8 9 10 12 12 13 12 14 14 14 15 17 15 14 13 10 12 12 11 12 12 13 10 8 8 6 4 6 3 3 7 14 21 23 27 27 27 26 23 22
4 4 4 6 8 10 12 12 13 15 15 17 17 15 14 13 13 14 14 14 13 12 12 13 12 9 10 9 6 4 5 6 5 9 12 14 22 23 23 26 24 22 20
5 4 3 5 7 9 10 11 11 12 14 14 14 15 16 14 15 15 16 15 14 13 11 10 10 10 9 8 7 9 7 6 9 8 11 13 17 17 24 18 24 23 23
8 6 5 4 6 7 8 11 12 12 12 12 12 11 12 9 10 13 14 15 14 13 12 10 11 12 10 9 8 7 8 12 13 12 13 13 13 15 18 20 25 25 29
11 9 7 5 5 6 8 10 11 11 11 11 10 10 10 10 10 10 10 10 12 13 13 12 11 9 6 7 4 6 10 11 12 9 10 11 12 16 16 20 20 24 28
14 12 9 6 6 7 8 10 10 10 10 10 11 11 12 11 9 10 10 12 12 13 12 13 13 11 10 10 5 5 8 10 12 11 10 12 14 15 16 17 17 19 5
15 12 9 7 6 7 8 8 8 8 9 10 11 11 11 11 9 10 8 8 11 12 12 13 13 13 13 13 8 7 8 8 9 11 14 16 17 20 22 19 18 17 17
15 12 10 8 7 7 7 7 8 8 9 10 11 11 12 12 12 12 11 12 12 13 14 15 15 15 15 13 14 13 11 12 15 14 14 17 17 19 20 20 21 22 20
15 12 11 8 7 6 7 7 7 7 9 9 10 10 9 10 10 11 12 14 15 16 16 16 14 16 17 15 15 15 16 18 17 16 15 15 14 16 15 18 19 15 12
16 13 10 8 7 6 6 6 7 7 9 9 7 7 7 9 9 11 12 15 17 18 16 12 14 15 18 18 18 20 22 25 22 19 19 19 18 19 16 14 15 13 14
13 12 9 8 7 6 6 6 7 7 9 8 8 7 8 9 13 12 14 14 15 17 15 18 19 18 19 19 20 21 18 21 18 18 18 20 20 20 20 19 17 16 18
14 11 9 8 7 7 7 6 7 7 9 10 10 10 10 12 13 14 14 13 14 15 17 19 21 20 21 21 21 20 22 23 23 19 18 17 19 20 22 21 22 21 21
13 11 9 8 8 8 8 7 7 7 8 10 11 12 13 13 16 15 13 14 15 18 20 21 22 22 21 21 21 22 22 23 24 21 20 20 19 21 22 23 24 22 24
12 10 9 9 8 8 8 7 7 7 8 9 11 11 12 15 16 16 16 16 16 18 22 22 21 22 22 21 22 22 20 19 18 20 17 15 16 20 22 23 23 23 23
12 11 10 10 9 9 8 7 7 8 10 12 12 12 13 13 14 16 19 18 18 19 23 18 16 17 19 18 18 19 19 18 15 15 16 17 18 17 18 21 20 23 17
13 12 12 11 9 8 8 7 6 7 8 10 11 12 14 14 14 17 18 18 19 19 18 15 17 15 16 16 16 16 18 18 19 20 20 21 21 21 21 19 19 21 19
14 13 12 10 9 9 8 8 8 8 8 9 10 11 12 13 15 16 18 18 17 19 15 15 15 16 16 17 17 18 19 19 22 22 24 26 26 26 20 19 20 19 17
14 13 12 11 9 9 8 9 8 10 12 16 13 13 13 13 14 15 16 17 20 16 14 15 17 18 19 19 19 19 20 20 21 23 25 25 23 20 20 20 19 18 18
15 14 13 11 9 9 8 9 9 10 12 16 18 16 11 14 13 14 13 15 15 16 17 17 18 20 21 22 23 24 25 24 22 22 21 24 25 24 21 19 19 22 23
16 14 11 10 10 10 10 10 11 12 13 16 16 15 16 16 13 13 15 15 15 17 19 20 21 22 23 25 26 26 25 24 23 23 25 26 25 23 21 20 19 18 20
17 15 12 11 11 10 10 11 12 13 14 15 16 15 14 15 16 17 16 16 17 19 22 23 25 26 27 27 27 26 26 26 25 24 24 24 24 21 21 21 21 21 20
17 16 14 14 12 11 11 11 12 12 16 15 17 16 14 14 16 17 19 20 22 24 25 25 28 28 29 29 30 28 27 27 26 26 25 25 24 24 22 22 22 21 21
18 17 16 14 12 11 10 11 13 13 14 15 14 17 16 15 17 18 20 22 24 27 28 29 30 31 32 32 32 32 31 31 31 28 26 24 22 21 21 21 21 21 21
20 19 18 16 13 12 12 12 13 13 12 13 14 15 16 17 19 19 21 23 25 28 30 30 31 33 34 35 34 34 33 33 31 30 28 26 25 24 23 22 23 23 23
21 21 20 18 15 14 13 14 14 13 12 13 14 14 17 18 18 20 21 23 26 29 31 32 32 34 37 37 37 34 31 29 28 29 28 27 28 28 28 26 25 25 25
24 23 21 17 15 14 14 14 15 12 12 13 13 14 15 17 18 20 21 23 26 29 31 32 33 34 35 33 31 29 26 23 22 22 23 26 27 26 26 27 28 25 24

GFSGL_925_spd_126.txt.gz
Wind_Speed
11 10 8 6 5 6 7 8 10 11 13 14 14 13 13 12 15 16 15 14 13 12 12 13 14 14 14 13 13 10 7 9 4 7 16 21 20 23 21 20 18 16 18
14 12 10 8 6 6 6 7 8 10 11 11 11 11 10 10 12 14 15 15 15 15 15 13 15 15 13 13 11 8 9 9 6 5 13 18 18 17 21 20 20 19 20
16 14 12 11 9 7 6 6 7 8 8 8 8 9 9 7 8 9 11 11 10 10 10 11 13 13 13 12 10 10 11 10 9 7 8 13 17 18 22 22 23 22 23
20 18 16 14 11 8 6 6 7 8 8 7 7 8 8 7 7 9 8 9 9 9 9 9 9 8 8 9 7 8 7 8 8 8 9 13 13 19 18 21 24 26 28
23 21 20 15 12 10 7 6 6 6 6 7 7 7 7 6 6 9 9 8 8 8 8 9 7 7 6 7 8 7 6 7 8 8 9 6 13 18 17 18 18 22 21
27 25 20 16 14 12 9 7 7 6 5 5 6 7 8 7 6 8 9 9 9 9 10 9 9 9 10 11 11 9 8 9 9 5 5 7 11 14 12 14 16 12 4
29 27 21 18 17 14 10 9 8 7 6 5 5 6 7 6 7 7 6 7 8 10 11 12 12 10 9 10 10 11 10 11 12 13 14 16 14 16 15 15 14 13 12
29 29 24 21 18 15 12 10 9 8 7 7 7 7 6 5 5 6 6 9 10 11 12 12 11 12 13 14 16 16 15 14 12 14 17 19 19 17 15 13 13 14 17
28 29 27 22 19 17 14 11 9 8 8 7 7 7 8 7 7 7 8 11 12 13 12 11 12 16 16 15 16 18 18 18 16 16 15 15 16 16 14 14 15 10 5
28 30 26 21 20 18 13 11 9 9 9 8 8 8 8 9 8 9 9 10 12 13 12 12 15 16 17 16 17 17 18 21 21 19 16 18 17 16 15 14 12 7 6
24 23 22 20 19 15 12 11 9 9 9 9 10 9 9 9 9 9 10 11 12 14 15 17 17 17 18 18 18 18 20 21 20 20 17 19 22 22 23 20 14 11 10
19 22 20 19 17 15 13 11 11 9 9 10 10 11 10 9 10 10 12 11 11 13 16 19 19 19 19 19 18 18 21 21 20 23 23 22 21 20 19 15 12 14 15
21 21 19 18 16 15 14 13 11 11 9 10 10 10 12 10 11 12 12 12 12 15 17 18 20 19 18 19 22 19 19 18 16 16 15 18 18 17 16 16 17 20 21
21 20 19 19 17 15 14 13 13 11 11 11 12 12 12 13 12 13 12 13 14 15 18 19 16 17 20 20 18 17 14 14 14 14 15 18 19 21 21 21 22 23 22
20 20 19 18 15 15 15 15 15 13 13 11 12 11 12 16 15 12 16 14 15 16 18 16 19 23 22 21 19 18 16 17 17 18 18 18 17 17 18 18 19 20 18
22 21 21 19 17 16 15 15 14 12 11 11 11 12 14 14 14 14 15 15 16 16 15 15 17 17 16 17 17 17 17 17 18 18 19 20 20 20 20 20 18 16 16
23 22 20 17 17 17 16 16 13 11 11 11 10 10 12 15 14 15 14 15 15 14 15 16 15 16 17 18 18 18 20 20 20 21 23 26 27 24 21 20 18 16 16
23 21 20 18 18 17 18 17 15 12 12 12 9 8 11 13 13 13 14 14 14 16 14 14 17 18 18 19 21 21 21 22 21 21 22 24 25 25 21 19 17 17 17
23 21 18 18 17 16 17 17 16 13 14 14 10 10 11 11 11 11 11 12 15 15 14 15 18 20 22 23 23 24 23 24 23 25 26 25 26 23 21 20 21 22 22
23 21 20 18 17 16 18 18 16 15 15 15 11 12 12 9 11 12 11 14 14 16 17 17 20 22 23 24 25 25 25 25 25 25 26 25 26 24 22 21 20 19 18
26 24 18 19 21 21 19 19 19 18 16 15 14 11 9 12 12 12 15 15 14 16 18 18 21 24 25 25 26 26 25 26 26 27 27 27 25 23 24 24 22 21 21
24 24 23 22 22 22 21 20 20 19 17 15 14 13 10 12 14 15 15 15 14 16 17 18 21 23 24 26 28 28 27 27 28 28 28 28 27 25 25 22 22 21 20
26 25 23 21 20 18 18 19 20 19 18 16 14 14 13 13 14 14 14 14 14 17 17 18 21 24 25 26 27 29 29 30 32 32 31 29 26 26 24 22 22 20 20
27 24 23 23 23 22 21 20 21 17 16 17 16 14 14 14 14 14 15 14 15 16 17 19 22 24 26 27 29 29 30 32 33 34 35 34 29 27 24 23 23 23 23
28 27 26 25 25 21 21 20 22 19 19 19 17 15 14 14 13 14 14 13 15 16 18 19 22 24 25 27 27 28 30 33 33 29 28 27 28 29 26 24 24 24 24
30 29 28 25 24 23 21 21 20 19 20 20 17 16 14 14 13 13 13 13 14 17 19 20 22 24 24 25 28 30 30 29 29 26 24 23 22 24 24 25 27 25 24